[[{"header":{"parameterUnit":"m.s-1","parameterCategory":1,"la1":30.6,"la2":29.2853,"lo1":-89.7004,"lo2":-87.6739,"dy":0.0162,"dx":0.0183,"nx":112,"ny":82,"refTime":"2023-10-02T06:00:00:Z","depth":0,"parameterNumber":2,"parameterNumberName":"U-component_of_WINDS"},"data":[0.0,0.0,0.0,0.0,0.0,0.0,0.0,0.0,0.0,0.0,0.0,0.0,0.0,0.0,0.0,0.0,0.0,0.0,0.0,0.0,0.0,0.0,0.0,0.0,0.0,0.0,0.0,0.0,0.0,0.0,0.0,0.0,0.0,0.0,0.0,0.0,0.0,0.0,0.0,0.0,0.0,0.0,0.0,0.0,0.0,0.0,0.0,0.0,0.0,0.0,0.0,0.0,0.0,0.0,0.0,0.0,0.0,0.0,0.0,0.0,0.0,0.0,0.0,0.0,0.0,0.0,0.0,0.0,0.0,0.0,0.0,0.0,0.0,0.0,0.0,0.0,0.0,0.0,0.0,0.0,0.0,0.0,0.0,0.0,0.0,0.0,0.0,0.0,0.0,0.0,1.0073,0.963,1.0762,1.229,1.4111,1.2847,1.1966,1.197,0.0,0.0,0.0,0.0,0.0,0.0,0.0,0.0,0.0,0.0,0.0,0.0,0.0,0.0,0.0,0.0,0.0,0.0,0.0,0.0,0.0,0.0,0.0,0.0,0.0,0.0,0.0,0.0,0.0,0.0,0.0,0.0,0.0,0.0,0.0,0.0,0.0,0.0,0.0,0.0,0.0,0.0,0.0,0.0,0.0,0.0,0.0,0.0,0.0,0.0,0.0,0.0,0.0,0.0,0.0,0.0,0.0,0.0,0.0,0.0,0.0,0.0,0.0,0.0,0.0,0.0,0.0,0.0,0.0,0.0,0.0,0.0,0.0,0.0,0.0,0.0,0.0,0.0,0.0,0.0,0.0,0.0,0.0,0.0,0.0,0.0,0.0,0.0,0.0,0.0,0.0,0.0,0.0,0.0,0.0,0.0,0.0,0.0,0.0,0.0,0.0,0.0,0.0,0.0,1.0177,1.0772,1.1432,1.2207,1.3142,1.2057,1.1595,1.2204,0.0,0.0,0.0,0.0,0.0,0.0,0.0,0.0,0.0,0.0,0.0,0.0,0.0,0.0,0.0,0.0,0.0,0.0,0.0,0.0,0.0,0.0,0.0,0.0,0.0,0.0,0.0,0.0,0.0,0.0,0.0,0.0,0.0,0.0,0.0,0.0,0.0,0.0,0.0,0.0,0.0,0.0,0.0,0.0,0.0,0.0,0.0,0.0,0.0,0.0,0.0,0.0,0.0,0.0,0.0,0.0,0.0,0.0,0.0,0.0,0.0,0.0,0.0,0.0,0.0,0.0,0.0,0.0,0.0,0.0,0.0,0.0,0.0,0.0,0.0,0.0,0.0,0.0,0.0,0.0,0.0,0.0,0.0,0.0,0.0,0.0,0.0,0.0,0.0,0.0,0.0,0.0,0.0,0.0,0.0,0.0,0.0,0.0,0.0,0.0,0.0,0.0,0.0,0.8759,0.8737,1.0236,1.0668,1.1447,1.2871,1.1884,1.1504,1.2239,1.1601,0.0,0.0,0.0,0.0,0.0,0.0,0.0,0.0,0.0,0.0,0.0,0.0,0.0,0.0,0.0,0.0,0.0,0.0,0.0,0.0,0.0,0.0,0.0,0.0,0.0,0.0,0.0,0.0,0.0,0.0,0.0,0.0,0.0,0.0,0.0,0.0,0.0,0.0,0.0,0.0,0.0,0.0,0.0,0.0,0.0,0.0,0.0,0.0,0.0,0.0,0.0,0.0,0.0,0.0,0.0,0.0,0.0,0.0,0.0,0.0,0.0,0.0,0.0,0.0,0.0,0.0,0.0,0.0,0.0,0.0,0.0,0.0,0.0,0.0,0.0,0.0,0.0,0.0,0.0,0.0,0.0,0.0,0.0,0.0,0.0,0.0,0.0,0.0,0.0,0.0,0.0,0.0,0.0,0.0,0.0,0.0,0.0,0.0,0.0,0.0,0.0,0.0,0.7338,0.7468,0.9188,0.9729,1.0656,1.2403,1.1623,1.1412,1.2257,1.1329,0.0,0.0,0.0,0.0,0.0,0.0,0.0,0.0,0.0,0.0,0.0,0.0,0.0,0.0,0.0,0.0,0.0,0.0,0.0,0.0,0.0,0.0,0.0,0.0,0.0,0.0,0.0,0.0,0.0,0.0,0.0,0.0,0.0,0.0,0.0,0.0,0.0,0.0,0.0,0.0,0.0,0.0,0.0,0.0,0.0,0.0,0.0,0.0,0.0,0.0,0.0,0.0,0.0,0.0,0.0,0.0,0.0,0.0,0.0,0.0,0.0,0.0,0.0,0.0,0.0,0.0,0.0,0.0,0.0,0.0,0.0,0.0,0.0,0.0,0.0,0.0,0.0,0.0,0.0,0.0,0.0,0.0,0.0,0.0,0.0,0.0,0.0,0.0,0.0,0.0,0.0,0.0,0.0,0.0,0.0,0.0,0.0,0.0,0.0,0.0,0.0,0.0,0.7115,0.7346,0.8055,0.913,1.0192,1.1155,1.0878,1.1123,1.2231,1.1632,0.0,0.0,0.0,0.0,0.0,0.0,0.0,0.0,0.0,0.0,0.0,0.0,0.0,0.0,0.0,0.0,0.0,0.0,0.0,0.0,0.0,0.0,0.0,0.0,0.0,0.0,0.0,0.0,0.0,0.0,0.0,0.0,0.0,0.0,0.0,0.0,0.0,0.0,0.0,0.0,0.0,0.0,0.0,0.0,0.0,0.0,0.0,0.0,0.0,0.0,0.0,0.0,0.0,0.0,0.0,0.0,0.0,0.0,0.0,0.0,0.0,0.0,0.0,0.0,0.0,0.0,0.0,0.0,0.0,0.0,0.0,0.0,0.0,0.0,0.0,0.0,0.0,0.0,0.0,0.0,0.0,0.0,0.0,0.0,0.0,0.0,0.0,0.0,0.0,0.0,0.0,0.0,0.0,0.0,0.0,0.0,0.0,0.0,0.0,0.0,0.0,0.0,0.7202,0.7441,0.7831,0.9661,1.0823,1.0664,1.1281,1.1771,1.2019,0.0,0.0,0.0,0.0,0.0,0.0,0.0,0.0,0.0,0.0,0.0,0.0,0.0,0.0,0.0,0.0,0.0,0.0,0.0,0.0,0.0,0.0,0.0,0.0,0.0,0.0,0.0,0.0,0.0,0.0,0.0,0.0,0.0,0.0,0.0,0.0,0.0,0.0,0.0,0.0,0.0,0.0,0.0,0.0,0.0,0.0,0.0,0.0,0.0,0.0,0.0,0.0,0.0,0.0,0.0,0.0,0.0,0.0,0.0,0.0,0.0,0.0,0.0,0.0,0.0,0.0,0.0,0.0,0.0,0.0,0.0,0.0,0.0,0.0,0.0,0.0,0.0,0.0,0.0,0.0,0.0,0.0,0.0,0.0,0.0,0.0,0.0,0.0,0.0,0.0,0.0,0.0,0.0,0.0,0.0,0.0,0.0,0.0,0.0,0.0,0.0,0.0,0.718,0.7204,0.7545,0.8206,0.9675,1.0694,1.0916,1.119,1.152,1.1882,0.0,0.0,0.0,0.0,0.0,0.0,0.0,0.0,0.0,0.0,0.0,0.0,0.0,0.0,0.0,0.0,0.0,0.0,0.0,0.0,0.0,0.0,0.0,0.0,0.0,0.0,0.0,0.0,0.0,0.0,0.0,0.0,0.0,0.0,0.0,0.0,0.0,0.0,0.0,0.0,0.0,0.0,0.0,0.0,0.0,0.0,0.0,0.0,0.0,0.0,0.0,0.0,0.0,0.0,0.0,0.0,0.0,0.0,0.0,0.0,0.0,0.0,0.0,0.0,0.0,0.0,0.0,0.0,0.0,0.0,0.0,0.0,0.0,0.0,0.0,0.0,0.0,0.0,0.0,0.0,0.0,0.0,0.0,0.0,0.0,0.0,0.0,0.0,0.0,0.0,0.0,0.0,0.0,0.0,0.0,0.0,0.0,0.0,0.0,0.0,0.0,0.0,0.6998,0.7033,0.7677,0.9147,0.8971,0.9662,1.1895,1.0381,1.0054,0.0,0.0,0.0,0.0,0.0,0.0,0.0,0.0,0.0,0.0,0.0,0.0,0.0,0.0,0.0,0.0,0.0,0.0,0.0,0.0,0.0,0.0,0.0,0.0,0.0,0.0,0.0,0.0,0.0,0.0,0.0,0.0,0.0,0.0,0.0,0.0,0.0,0.0,0.0,0.0,0.0,0.0,0.0,0.0,0.0,0.0,0.0,0.0,0.0,0.0,0.0,0.0,0.0,0.0,0.0,0.0,0.0,0.0,0.0,0.0,0.0,0.0,0.0,0.0,0.0,0.0,0.0,0.0,0.0,0.0,0.0,0.0,0.0,0.0,0.0,0.0,0.0,0.0,0.0,0.0,0.0,0.0,0.0,0.0,0.0,0.0,0.0,0.0,0.0,0.0,0.0,0.0,0.0,0.0,0.0,0.0,0.0,0.0,0.0,0.0,0.0,0.0,0.0,0.7325,0.7908,0.8607,0.924,1.0593,1.1413,1.1341,1.0991,1.092,1.1232,0.0,0.0,0.0,0.0,0.0,0.0,0.0,0.0,0.0,0.0,0.0,0.0,0.0,0.0,0.0,0.0,0.0,0.0,0.0,0.0,0.0,0.0,0.0,0.0,0.0,0.0,0.0,0.0,0.0,0.0,0.0,0.0,0.0,0.0,0.0,0.0,0.0,0.0,0.0,0.0,0.0,0.0,0.0,0.0,0.0,0.0,0.0,0.0,0.0,0.0,0.0,0.0,0.0,0.0,0.0,0.0,0.0,0.0,0.0,0.0,0.0,0.0,0.0,0.0,0.0,0.0,0.0,0.0,0.0,0.0,0.0,0.0,0.0,0.0,0.0,0.0,0.0,0.0,0.0,0.0,0.0,0.0,0.0,0.0,0.0,0.0,0.0,0.0,0.0,0.0,0.0,0.0,0.0,0.0,0.0,0.0,0.0,0.0,0.0,0.0,0.0,0.0,0.7344,0.776,0.8568,0.9762,1.0831,1.1547,1.1846,1.1394,1.1049,1.0995,0.0,0.0,0.0,0.0,0.0,0.0,0.0,0.0,0.0,0.0,0.0,0.0,0.0,0.0,0.0,0.0,0.0,0.0,0.0,0.0,0.0,0.0,0.0,0.0,0.0,0.0,0.0,0.0,0.0,0.0,0.0,0.0,0.0,0.0,0.0,0.0,0.0,0.0,0.0,0.0,0.0,0.0,0.0,0.0,0.0,0.0,0.0,0.0,0.0,0.0,0.0,0.0,0.0,0.0,0.0,0.0,0.0,0.0,0.0,0.0,0.0,0.0,0.0,0.0,0.0,0.0,0.0,0.0,0.0,0.0,0.0,0.0,0.0,0.0,0.0,0.0,0.0,0.0,0.0,0.0,0.0,0.0,0.0,0.0,0.0,0.0,0.0,0.0,0.0,0.0,0.0,0.0,0.0,0.0,0.0,0.0,0.0,0.0,0.0,0.0,0.0,0.0,0.721,0.7172,0.8147,1.0573,1.0403,1.0941,1.2995,1.1654,1.0787,1.0942,0.0,0.0,0.0,0.0,0.0,0.0,0.0,0.0,0.0,0.0,0.0,0.0,0.0,0.0,0.0,0.0,0.0,0.0,0.0,0.0,0.0,0.0,0.0,0.0,0.0,0.0,0.0,0.0,0.0,0.0,0.0,0.0,0.0,0.0,0.0,0.0,0.0,0.0,0.0,0.0,0.0,0.0,0.0,0.0,0.0,0.0,0.0,0.0,0.0,0.0,0.0,0.0,0.0,0.0,0.0,0.0,0.0,0.0,0.0,0.0,1.4982,1.5909,0.0,0.0,0.0,0.0,0.0,0.0,0.0,0.0,0.0,0.0,0.0,0.0,0.0,0.0,0.0,0.0,0.0,0.0,0.0,0.0,0.0,0.0,0.0,0.0,0.0,0.0,0.0,0.0,0.0,0.0,0.0,0.0,0.0,0.0,0.0,0.0,0.0,0.0,0.0,0.0,0.7437,0.8668,0.989,1.094,1.2305,1.309,1.2906,1.2114,1.1363,1.072,1.1078,0.0,0.0,0.0,0.0,0.0,0.0,0.0,0.0,0.0,0.0,0.0,0.0,0.0,0.0,0.0,0.0,0.0,0.0,0.0,0.0,0.0,0.0,0.0,0.0,0.0,0.0,0.0,0.0,0.0,0.0,0.0,0.0,0.0,0.0,0.0,0.0,0.0,0.0,0.0,0.0,0.0,0.0,0.0,0.0,0.0,0.0,0.0,0.0,0.0,0.0,0.0,0.0,0.0,0.0,0.0,0.0,0.0,0.0,0.0,1.482,1.5586,0.0,0.0,0.0,0.0,0.0,0.0,0.0,0.0,0.0,0.0,0.0,0.0,0.0,0.0,0.0,0.0,0.0,0.0,0.0,0.0,0.0,0.0,0.0,0.0,0.0,0.0,0.0,0.0,0.0,0.0,0.0,0.0,0.0,0.0,0.0,0.0,0.0,0.0,0.0,0.0,0.7674,0.8232,0.9243,1.0908,1.1772,1.2433,1.2954,1.231,1.1574,1.0841,1.119,0.0,0.0,0.0,0.0,0.0,0.0,0.0,0.0,0.0,0.0,0.0,0.0,0.0,0.0,0.0,0.0,0.0,0.0,0.0,0.0,0.0,0.0,0.0,0.0,0.0,0.0,0.0,0.0,0.0,0.0,0.0,0.0,0.0,0.0,0.0,0.0,0.0,0.0,0.0,0.0,0.0,0.0,0.0,0.0,0.0,0.0,0.0,0.0,0.0,0.0,0.0,0.0,0.0,1.0726,1.0837,1.1714,1.2071,1.2461,1.2953,1.42,1.4759,1.4849,1.5427,0.0,0.0,0.0,0.0,0.0,0.0,0.0,0.0,0.0,0.0,0.0,0.0,0.0,0.0,0.0,0.0,0.0,0.0,0.0,0.0,0.0,0.0,0.9842,1.1456,1.1684,1.2117,1.4359,0.0,0.0,0.0,0.0,0.0,0.0,0.0,0.0,0.0,0.0,0.0,0.7746,0.7437,0.8218,1.0814,1.0772,1.128,1.3061,1.2497,1.1761,1.1102,1.1555,1.2012,0.0,0.0,0.0,0.0,0.0,0.0,0.0,0.0,0.0,0.0,0.0,0.0,0.0,0.0,0.0,0.0,0.0,0.0,0.0,0.0,0.0,0.0,0.0,0.0,0.0,0.0,0.0,0.0,0.0,0.0,0.0,0.0,1.4974,1.53,0.0,0.0,0.0,0.0,0.0,0.0,0.0,0.0,0.0,0.0,0.0,0.0,0.0,1.0951,1.1229,1.0552,1.023,1.023,0.9654,0.938,0.9381,1.057,1.1139,1.1291,1.2447,0.0,1.4733,1.392,0.0,0.0,0.0,0.0,0.0,0.0,0.0,0.0,0.0,0.0,0.0,0.0,0.0,0.0,0.0,0.0,0.0,0.0,0.0,0.0,0.0,0.0,0.9164,0.9191,0.9823,1.0511,1.0857,1.2691,1.4206,1.3989,1.3167,1.2506,0.0,0.0,0.0,0.0,0.0,0.0,0.7446,0.8046,0.9143,1.0905,1.1652,1.2338,1.3134,1.2872,1.2301,1.1406,1.1205,1.1361,1.1874,1.1782,0.0,0.0,0.0,0.0,0.0,0.0,0.0,0.0,0.0,0.0,0.0,0.0,0.0,0.0,0.0,0.0,0.0,0.0,0.0,0.0,0.0,0.0,0.0,0.0,0.0,0.0,0.0,0.0,0.0,1.34,1.3564,1.3637,1.4635,1.5247,0.0,0.0,0.0,0.0,0.0,0.0,0.0,0.0,0.0,1.088,1.0179,0.9886,1.0036,0.9796,0.969,0.9785,0.9627,0.9544,0.9541,1.0254,1.0553,1.0599,1.1004,1.1871,1.3008,1.302,1.3259,1.3603,0.0,0.0,0.0,0.0,1.4275,1.4887,1.5333,1.5269,1.5006,1.519,0.0,0.0,0.0,0.0,0.0,0.0,0.0,0.894,0.8185,0.8232,0.8481,0.8477,0.8821,0.9092,0.8996,0.9697,1.0671,1.1703,1.1703,1.1532,1.1573,1.0026,0.0,0.0,0.0,0.7235,0.7577,0.783,0.8765,1.0879,1.1244,1.1907,1.3298,1.3173,1.2692,1.1953,1.1472,1.1368,1.167,1.184,1.2413,0.0,0.0,0.0,0.0,0.0,0.0,0.0,0.0,0.0,0.0,0.0,0.0,0.0,0.0,0.0,0.0,0.0,0.0,0.0,0.0,0.0,0.0,0.0,0.0,0.0,0.0,0.0,0.0,1.1716,1.1997,1.1948,1.2321,1.2632,0.0,0.0,0.0,0.0,0.0,0.0,1.0257,0.9896,0.9812,1.0076,0.9653,0.9464,0.958,0.9621,0.9707,0.9897,0.9958,1.0042,1.0191,1.0337,1.0371,1.0363,1.0247,1.0602,1.1272,1.1909,1.2049,1.1833,1.1569,1.1938,1.258,1.2345,1.2742,1.3508,1.4172,1.41,1.3682,1.3738,1.3423,1.2758,1.1369,0.0,0.0,0.0,0.0,0.8869,0.8066,0.7986,0.8155,0.8321,0.8349,0.8321,0.8155,0.7977,0.8203,0.9519,1.0017,1.0209,1.0195,0.9209,0.0,0.883,0.7955,0.7398,0.7719,0.7563,0.8268,1.0403,1.0662,1.1337,1.3018,1.3193,1.2986,1.247,1.1931,1.1632,1.1684,1.192,1.23,1.2818,0.0,0.0,0.0,0.0,0.0,0.0,0.0,0.0,0.0,0.0,0.0,0.0,0.0,0.0,0.0,0.0,0.0,0.0,0.0,0.0,0.0,0.0,0.0,0.0,0.0,0.0,0.0,0.0,0.0,1.0096,1.1528,0.0,0.0,0.0,0.0,0.9802,0.9919,0.9825,0.93,0.9375,0.968,1.0262,1.0066,1.0177,1.0603,1.0371,1.0378,1.063,1.0527,1.0541,1.065,1.0697,1.0616,1.048,1.0473,1.0367,1.0173,1.0143,1.0862,1.1942,1.1353,1.1315,1.1562,1.1565,1.1775,1.2073,1.1797,1.1593,1.1556,1.2133,1.2163,1.1751,1.0587,1.0053,0.0,0.0,0.8096,0.8302,0.8065,0.8241,0.8492,0.8498,0.8498,0.8498,0.8485,0.8471,0.8279,0.7671,0.7437,0.7408,0.7729,0.0,0.7664,0.7691,0.7723,0.774,0.7624,0.7597,0.8052,0.925,1.0235,1.1107,1.1931,1.2738,1.3066,1.2784,1.2457,1.2136,1.1899,1.136,1.1998,1.3983,1.3147,0.0,0.0,0.0,0.0,0.0,0.0,0.0,0.0,0.0,0.0,0.0,0.0,0.0,0.0,0.0,0.0,0.0,0.0,0.0,0.0,0.0,0.0,0.0,0.0,0.0,0.0,0.0,0.0,0.9784,1.0046,0.0,1.0092,1.0028,0.9826,0.9377,0.9673,0.9878,0.9924,1.0114,1.0353,1.0671,1.0744,1.0839,1.1002,1.0934,1.0934,1.1002,1.0982,1.0907,1.0833,1.0833,1.0752,1.0636,1.0636,1.0521,1.0374,1.0324,1.0354,1.0416,1.013,1.0049,1.0157,1.0157,1.0224,1.0325,1.018,1.0069,0.9935,0.994,0.9852,0.9633,0.922,0.9101,0.9,0.8508,0.854,0.871,0.8743,0.8859,0.8968,0.9063,0.8913,0.875,0.875,0.8621,0.843,0.8165,0.7889,0.7763,0.8022,0.7736,0.7539,0.7706,0.7699,0.7692,0.7733,0.7733,0.8163,0.9313,0.9595,1.0413,1.2204,1.2199,1.2382,1.3014,1.2585,1.2171,1.1913,1.1681,1.183,1.2362,1.3155,1.4323,0.0,0.0,0.0,0.0,0.0,0.0,0.0,0.0,0.0,0.0,0.0,0.0,0.0,0.0,0.0,0.0,0.0,0.0,0.0,0.0,0.0,0.0,0.0,0.0,0.0,0.7909,0.8281,0.9515,0.9504,0.9524,0.9894,0.9603,0.9469,0.9696,1.0005,1.0331,1.0636,1.0839,1.1016,1.1137,1.1219,1.1302,1.1314,1.1247,1.1227,1.1274,1.122,1.1145,1.0988,1.0988,1.0907,1.0765,1.0765,1.0677,1.0568,1.0568,1.0337,0.9964,0.9761,0.9716,0.9716,0.9716,0.9716,0.9709,0.9625,0.9503,0.9369,0.9096,0.8913,0.8811,0.8811,0.8859,0.8933,0.8933,0.9008,0.911,0.9233,0.926,0.9281,0.9383,0.9232,0.9061,0.9061,0.8927,0.8798,0.8743,0.8425,0.8221,0.8349,0.7995,0.7797,0.8072,0.7885,0.7821,0.8011,0.7925,0.8136,0.8844,0.912,0.9839,1.1283,1.1699,1.2098,1.2585,1.2614,1.2425,1.2056,1.2136,1.2168,1.2102,1.3612,1.4627,1.5096,0.0,0.0,0.0,0.0,0.0,0.0,0.0,0.0,0.0,0.0,0.0,0.0,0.0,0.0,0.0,0.0,0.0,0.0,0.0,0.0,0.0,0.0,0.0,0.5947,0.6578,0.7436,0.9072,0.9797,1.0006,0.9682,0.9946,1.0271,1.0518,1.0678,1.0885,1.1206,1.1219,1.1286,1.1397,1.1364,1.1399,1.1512,1.1328,1.1288,1.1396,1.1281,1.1206,1.1206,1.1206,1.109,1.0921,1.0921,1.084,1.0738,1.0738,1.0738,1.0704,1.0412,1.0297,1.0322,1.0322,1.0315,1.0256,1.0076,0.9927,0.9785,0.9673,0.953,0.9437,0.9437,0.9437,0.9437,0.9437,0.9437,0.9437,0.9437,0.9437,0.943,0.943,0.9424,0.9417,0.9417,0.9417,0.9369,0.9248,0.8839,0.8532,0.8519,0.8396,0.8403,0.8662,0.8304,0.0,0.8464,0.8196,0.7959,0.7848,0.8803,0.9367,0.9139,1.1194,1.2199,1.1496,1.2492,1.2836,1.2294,1.258,1.2989,1.351,1.4469,1.481,1.4521,0.0,0.0,0.0,0.0,0.0,0.0,0.0,0.0,0.0,0.0,0.0,0.0,0.0,0.0,0.0,0.0,0.0,0.0,0.0,0.0,0.0,0.2272,0.2666,0.4392,0.495,0.5393,0.6056,0.6509,0.6696,0.6608,0.679,0.691,0.6996,0.7124,0.7237,0.7324,0.7329,0.7373,0.7404,0.8714,0.9468,0.9502,1.0811,1.1518,1.1558,1.1511,1.1436,1.1363,1.1363,1.1246,1.1104,1.1104,1.1111,1.1077,1.1077,1.1077,1.1043,1.0717,1.0602,1.0588,1.0473,1.0371,1.0276,1.0236,1.0188,1.0148,1.0107,1.0066,1.0063,1.0063,1.0063,1.0063,1.0063,1.0063,1.0063,1.0063,0.9951,0.9839,0.9839,0.967,0.9544,0.9544,0.9462,0.9396,0.9356,0.9247,0.9028,0.8703,0.8526,0.8478,0.8533,0.835,0.826,0.8342,0.8135,0.8081,0.8275,0.8374,0.8738,0.9533,0.98,1.0047,1.0334,1.0534,1.0844,1.1211,1.1637,1.2629,1.4265,1.405,1.4229,0.0,0.0,0.0,0.0,0.0,0.0,0.0,0.0,0.0,0.0,0.0,0.0,0.0,0.0,0.0,0.0,0.0,0.0,0.0,0.0,0.0,0.0,0.0943,0.1272,0.2187,0.3206,0.4153,0.5075,0.5401,0.5577,0.5577,0.565,0.5686,0.5686,0.5766,0.579,0.579,0.579,0.579,0.579,0.6897,0.7497,0.7497,0.862,0.9183,0.9183,0.9183,0.9145,0.904,0.904,0.8975,0.8858,0.8858,0.8831,0.8783,0.8783,0.8783,0.891,0.0,0.0,0.0,0.0,1.0683,1.0561,1.0561,1.0473,1.0371,1.0371,1.0363,1.0315,1.0315,1.0315,1.0315,1.0315,1.0315,1.0315,1.0315,1.0215,1.0148,1.0148,1.0012,0.9869,0.9778,0.9697,0.9625,0.9503,0.9476,0.0,0.9049,0.8811,0.8696,0.8784,0.856,0.843,0.8533,0.8357,0.8269,0.841,0.8241,0.8353,0.8916,0.9154,0.0,0.0,0.0,1.0275,1.0706,1.0871,0.0,0.0,0.0,1.2447,1.2981,1.2113,0.0,0.0,1.2753,1.263,0.0,0.0,0.0,0.0,0.0,0.0,0.0,0.0,0.0,0.0,0.0,0.0,0.0,0.0,0.0,0.0,0.0,0.0,0.0,0.1491,0.3161,0.4784,0.5066,0.5135,0.5135,0.513,0.5162,0.5164,0.5164,0.5162,0.5162,0.5162,0.0,0.0,0.0,0.5487,0.5477,0.5673,0.5785,0.5785,0.5785,0.5789,0.5796,0.5796,0.5726,0.5626,0.5626,0.555,0.5456,0.5456,0.5456,0.5768,0.9226,1.0565,1.0565,1.0565,1.0563,1.0595,1.0575,0.0,0.0,1.0476,1.0317,1.0075,1.0287,1.0376,1.0363,1.0363,1.0363,1.0363,1.0363,1.0317,1.0304,1.0304,1.0322,1.0243,1.0076,1.0042,0.9961,0.9683,0.9659,0.9605,0.9435,0.9171,0.9028,0.9165,0.8825,0.8628,0.8852,0.8662,0.8471,0.8383,0.8342,0.0,0.7909,0.893,0.9301,0.8601,0.9715,1.0419,1.0447,1.0325,1.0361,1.0589,1.0235,0.9907,0.9657,0.8567,0.8039,0.8083,0.9284,0.994,0.0,0.0,0.0,0.0,0.0,0.0,0.0,0.0,0.0,0.0,0.0,0.0,0.0,0.0,0.0,0.0033,0.0,0.0,0.0,0.0309,0.0693,0.1034,0.1111,0.1113,0.1113,0.1141,0.1134,0.1135,0.1135,0.1135,0.1134,0.1135,0.1135,0.1134,0.2638,0.3444,0.3446,0.5023,0.579,0.579,0.579,0.0,0.5799,0.5799,0.5789,0.5775,0.5775,0.5732,0.5719,0.5719,0.5719,0.5769,0.6312,0.6519,0.6519,0.6519,0.7486,0.878,0.8609,0.8652,0.8951,1.0383,0.9746,0.875,1.0305,1.0698,0.0,1.0636,1.0636,1.0636,1.0636,1.0541,1.0453,1.0453,1.0397,1.0301,1.0243,1.0236,1.0181,0.9967,0.9934,0.9846,0.9612,0.9415,0.9294,0.9221,0.8981,0.8798,0.8737,0.8594,0.8567,0.8757,0.8587,0.8444,0.8383,0.8359,0.8138,0.7694,0.8551,0.9212,0.9546,1.0171,1.0161,0.9363,0.8396,0.7365,0.6236,0.5116,0.4632,0.4766,0.5906,0.6459,0.0,0.0,0.0,0.0,0.0,0.0,0.0,0.0,0.0,0.0,0.0,0.1529,0.1007,0.0,0.0,0.0,0.0,0.0,0.0,0.0,0.0,0.0,0.0,0.0,0.0,0.0,0.0,0.0,0.0,0.0,0.0,0.0,0.0,0.0,0.0958,0.1446,0.1437,0.2402,0.288,0.288,0.2882,0.2891,0.2906,0.2908,0.2908,0.2908,0.2908,0.2908,0.2906,0.2908,0.2908,0.2898,0.2754,0.3871,0.5607,0.5607,0.6168,0.6933,0.6817,0.6806,0.7009,0.7873,0.7493,0.7047,0.8995,0.9477,0.9539,1.0531,1.0745,1.0684,1.0684,1.0663,1.0609,1.0609,1.0555,1.048,1.0399,1.0385,1.0344,1.0195,1.0168,1.0093,0.9839,0.9737,0.9612,0.9342,0.9205,0.9103,0.8981,0.8893,0.8845,0.8798,0.8689,0.8533,0.8417,0.8099,0.7776,0.7525,0.7279,0.7234,0.7451,0.7231,0.6881,0.6418,0.5852,0.5256,0.4644,0.3397,0.283,0.2907,0.2793,0.3097,0.0,0.0,0.0,0.0,0.0,0.0,0.0,0.3249,0.2769,0.1679,0.1445,0.1157,0.0172,0.0,0.0,0.0,0.0,0.0,0.0,0.0,0.0,0.0,0.0,0.0,0.0,0.0,0.0,0.0,0.0,0.0,0.0,0.0,0.0,0.0,0.0,0.0,0.0,0.0,0.0,0.0,0.0,0.0,0.0,0.0,0.0,0.0,0.0,0.0,0.0,0.0,0.0,0.0,0.0,0.1926,0.466,0.4675,0.483,0.5075,0.5048,0.4976,0.4976,0.5315,0.5194,0.5254,0.7178,0.7631,0.7883,0.9783,1.0242,1.0252,1.0625,1.0684,1.0684,1.0684,1.0684,1.065,1.0561,1.0534,1.0493,1.0351,1.0356,1.0263,1.0049,0.9984,0.9873,0.949,0.9422,0.9396,0.9247,0.9228,0.909,0.8825,0.8743,0.8601,0.8362,0.7829,0.7474,0.7364,0.6064,0.5295,0.5279,0.4245,0.361,0.3448,0.3462,0.3363,0.3232,0.2141,0.1619,0.1584,0.0489,0.0576,0.5759,0.5426,0.4696,0.4348,0.3852,0.3339,0.0,0.2367,0.163,0.0441,0.0213,0.0145,0.0036,0.0,0.0,0.0,0.0,0.0,0.0,0.0,0.0,0.0,0.0,0.0,0.0,0.0,0.0,0.0,0.0,0.0,0.0,0.0,0.0,0.0,0.0,0.0,0.0,0.0,0.0,0.0,0.0,0.0,0.0,0.0,0.0,0.0,0.0,0.0,0.0,0.0,0.0,0.0,0.0,0.0272,0.0651,0.0637,0.1717,0.3179,0.307,0.3103,0.3453,0.5044,0.4415,0.3381,0.5328,0.5803,0.6072,0.7815,0.8329,0.867,1.0279,1.0684,1.0684,1.0684,1.0684,1.0717,1.0664,1.0697,1.0649,1.0493,1.0466,1.0378,1.0069,0.9984,0.9913,0.9632,0.9585,0.953,0.9403,0.9267,0.92,0.9138,0.8866,0.8642,0.8498,0.7238,0.6453,0.6443,0.5026,0.4168,0.4178,0.4047,0.3398,0.2223,0.2203,0.1623,0.0456,0.029,0.0234,0.0234,0.006,0.009,0.1802,0.1121,0.0335,0.1408,0.0741,0.003,0.0943,0.0933,0.0599,0.0111,0.0,0.0,0.0,0.0,0.0,0.0,0.0,0.0,0.0,0.0,0.0,0.0,0.0,0.0,0.0,0.0,0.0,0.0,0.0,0.0,0.0,0.0,0.0,0.0,0.0,0.0,0.0,0.0,0.0,0.0,0.0,0.0,0.0,0.0,0.0,0.0,0.0,0.0,0.0,0.0,0.0,0.0,0.0,0.0,0.0,0.0,0.0531,0.1208,0.1159,0.1158,0.1348,0.2107,0.1797,0.1496,0.3433,0.3928,0.4201,0.6065,0.6541,0.6653,0.7418,0.8373,0.9131,0.9123,0.9948,1.0684,1.0684,1.0684,1.0671,1.0636,1.0622,1.0555,1.0344,1.0304,1.0236,1.0032,0.9849,0.968,0.953,0.9456,0.9417,0.9322,0.9124,0.8574,0.7541,0.6811,0.6009,0.5025,0.3611,0.2832,0.2832,0.2085,0.1402,0.0856,0.0833,0.055,0.0,0.0,0.0,0.0,0.0,0.0,-0.1908,-0.2604,-0.3291,-0.2036,-0.2796,-0.3354,-0.1397,-0.0963,-0.0804,-0.012,0.0,0.0,0.0,0.0,0.0,0.0,0.0,0.0,0.0,0.0,0.0,0.0,0.0,0.0,0.0,0.0,0.0,0.0,0.0,0.0,0.0,0.0,0.0,0.0,0.0,0.0,0.0,0.0,0.0,0.0,0.0,0.0,0.0,0.0,0.0,0.0,0.0,0.0,0.0,0.0,0.0,0.0,0.0,0.0,0.0,0.0,0.0,0.0,0.0,0.0,0.0,0.0,0.0,0.026,0.1688,0.203,0.2369,0.4261,0.4717,0.4759,0.5284,0.6343,0.7267,0.7289,0.865,0.9954,0.9958,1.0345,1.0684,1.0684,1.0684,1.067,1.0521,1.0493,1.0446,1.0335,1.0093,0.9897,0.9717,0.9234,0.868,0.8102,0.7973,0.7424,0.6188,0.5609,0.4782,0.3568,0.2213,0.1456,0.1444,0.0521,0.0,0.0,0.0,0.0,0.0,0.0,0.0,0.0,0.0,0.0,-0.47,-0.5045,-0.5464,-0.5989,-0.6439,-0.6162,-0.382,-0.3409,-0.2816,-0.0467,0.0,0.0,0.0,0.0,0.0,0.0,0.0,0.0,0.0,0.0,0.0,0.0,0.0,0.0,0.0,0.0,0.0,0.0,0.0,0.0,0.0,0.0,0.0,0.0,0.0,0.0,0.0,0.0,0.0,0.0,0.0,0.0,0.0,0.0,0.0,0.0,0.0,0.0,0.0,0.0,0.0,0.0,0.0,0.0,0.0,0.0,0.0,0.0,0.0,0.0,0.0,0.0,0.0,0.0,0.0074,0.0074,0.0474,0.2289,0.2772,0.3199,0.4934,0.5422,0.5491,0.549,0.6825,0.8094,0.8067,0.9466,1.0684,1.0684,1.0684,1.067,1.0521,1.0493,1.0446,1.0335,1.0301,1.0209,1.0028,0.8345,0.6531,0.4845,0.4655,0.4626,0.4568,0.3194,0.2315,0.2257,0.0881,0.0059,0.0059,0.0029,0.0,0.0,0.0,0.0,0.0,0.0,0.0,0.0,0.0,0.0,-0.8131,-0.8742,-0.9057,-0.8212,-0.8427,-0.8304,-0.6308,-0.4691,-0.3369,-0.2561,-0.1134,0.0,0.0,0.0,-0.0434,-0.1832,-0.0888,-0.0487,-0.1858,-0.0883,0.0,0.0,0.0,0.0,0.0,0.0,0.0,0.0,0.0,0.0,0.0,0.0,0.0,0.0,0.0,0.0,0.0,0.0,0.0,0.0,0.0,0.0,0.0,0.0,0.0,0.0,0.0,0.0,0.0,0.0,0.0,0.0,0.0,0.0,0.0,0.0,0.0,0.0,0.0,0.0,0.0,0.0,0.0,0.0,0.0,0.0,0.0112,0.074,0.092,0.1058,0.1677,0.2721,0.3621,0.3604,0.4989,0.6286,0.6263,0.6745,0.7179,0.7178,0.7169,0.7156,0.7124,0.7115,0.7106,0.7041,0.7898,0.849,0.8413,0.6787,0.5417,0.4832,0.4755,0.4328,0.3259,0.2712,0.1919,0.0801,0.0278,0.0,0.0,0.0,0.0,0.0,0.0,0.0,0.0,0.0,0.0,0.0,0.0,0.0,-1.0278,-1.1036,-1.1431,-1.0673,-1.0298,-0.9729,-0.8522,-0.6366,-0.4557,-0.4345,-0.295,-0.1716,-0.163,-0.1515,-0.1946,-0.3565,-0.265,-0.2335,-0.4011,-0.3036,-0.2203,-0.2312,-0.2338,-0.1998,-0.1176,-0.1147,-0.0834,-0.0041,0.0,0.0,0.0,0.0,0.0,0.0,0.0,0.0,0.0,0.0,0.0,0.0,0.0,0.0,0.0,0.0,0.0,0.0,0.0,0.0,0.0,0.0,0.0,0.0,0.0,0.0,0.0,0.0,0.0,0.0,0.0,0.0,0.0,0.0,0.0,0.0,0.0,0.0,0.0,0.0,0.0,0.0,0.0,0.0864,0.1748,0.1742,0.3133,0.4429,0.445,0.4931,0.5393,0.541,0.5413,0.5396,0.5396,0.5396,0.5396,0.5396,0.5642,0.5858,0.586,0.4798,0.3821,0.3213,0.3156,0.2727,0.1683,0.1606,0.1133,0.0064,0.0,0.0,0.0,0.0,0.0,0.0,0.0,0.0,0.0,0.0,0.0,0.0,0.0,0.0,-1.1206,-1.1891,-1.2528,-1.3254,-1.2059,-1.0634,-1.0489,-0.848,-0.644,-0.5853,-0.5284,-0.4788,-0.4536,-0.4244,-0.4318,-0.5131,-0.5078,-0.5314,-0.6315,-0.6228,-0.6156,-0.6486,-0.6518,-0.5665,-0.35,-0.343,-0.2606,-0.052,-0.0125,0.0,0.0,0.0,0.0,0.0,0.0,0.0,0.0,0.0,0.0,0.0,0.0,0.0,0.0,0.0,0.0,0.0,0.0,0.0,0.0,0.0,0.0,0.0,0.0,0.0,0.0,0.0,0.0,0.0,0.0,0.0,0.0,0.0,0.0,0.0,0.0,0.0,0.0,0.0,0.0,0.0,0.0,0.0,0.0,0.0,0.1324,0.2569,0.2566,0.3916,0.5108,0.5133,0.5113,0.5135,0.5131,0.5128,0.5128,0.5128,0.3655,0.2605,0.2702,0.2503,0.1774,0.0162,0.0,0.0,0.0,0.0,0.0,0.0,0.0,0.0,0.0,0.0,0.0,0.0,0.0,0.0,0.0,0.0,0.0,0.0,0.0,0.0,-1.1972,-1.2739,-1.3383,-1.3797,-1.3436,-1.2917,-1.2671,-1.037,-0.8159,-0.7715,-0.5875,-0.4344,-0.4156,-0.436,-0.5208,-0.7283,-0.6549,-0.6479,-0.8614,-0.7529,-0.6589,-0.6789,-0.6801,-0.6605,-0.6115,-0.6112,-0.5892,-0.5333,-0.2012,0.0,0.0,0.0,0.0,0.0,0.0,0.0,0.0,0.0,0.0,0.0,0.0,0.0,0.0,0.0,0.0,0.0,0.0,0.0,0.0,0.0,0.0,0.0,0.0,0.0,0.0,0.0,0.0,0.0,0.0,0.0,0.0,0.0,0.0,0.0,0.0,0.0,0.0,0.0,0.0,0.0,0.0,0.0,0.0,0.0,0.0368,0.0687,0.0689,0.1038,0.1375,0.1361,0.1378,0.1361,0.138,0.1377,0.1377,0.1377,0.0975,0.1174,0.2538,0.1499,0.0466,0.0033,0.0,0.0,0.0,0.0,0.0,0.0,0.0,0.0,0.0,0.0,0.0,0.0,0.0,0.0,0.0,0.0,0.0,0.0,0.0,0.0,-1.2786,-1.3403,-1.3865,-1.4034,-1.3116,-1.2292,-1.2782,-1.0594,-0.8494,-0.8722,-0.7383,-0.613,-0.5935,-0.6158,-0.699,-0.8845,-0.8583,-0.8835,-1.0794,-1.0134,-0.9546,-0.9829,-0.9856,-0.9496,-0.8575,-0.8544,-0.8166,-0.7184,-0.3687,-0.1558,-0.1587,-0.0577,0.0,0.0,0.0,0.0,0.0,0.0,0.0,0.0,0.0,0.0,0.0,0.0,0.0,0.0,0.0,0.0,0.0,0.0,0.0,0.0,0.0,0.0,0.0,0.0,0.0,0.0,0.0,0.0,0.0,0.0,0.0,0.0,0.0,0.0,0.0,0.0,0.0,0.0,0.0,0.0,0.0,0.0,0.0,0.0,0.0,0.0,0.0,0.0,0.0,0.0,0.0,0.0,0.0,0.0,0.0,0.037,0.1377,0.0639,0.0,0.0,0.0,0.0,0.0,0.0,0.0,0.0,0.0,0.0,0.0,0.0,0.0,0.0,0.0,0.0,0.0,0.0,0.0,0.0,0.0,0.0,-1.3532,-1.3878,-1.4112,-1.4091,-1.2162,-1.0668,-1.1912,-0.9911,-0.8073,-0.9104,-0.8782,-0.8335,-0.8257,-0.8396,-0.8832,-0.9873,-1.0535,-1.1347,-1.2578,-1.2901,-1.3207,-1.3634,-1.3688,-1.2926,-1.1013,-1.0929,-1.0202,-0.8185,-0.5863,-0.4412,-0.4104,-0.2095,-0.0942,-0.0942,-0.0628,-0.0494,-0.0494,-0.0176,0.0,0.0,0.0,0.0,0.0,0.0,0.0,0.0,0.0,0.0,0.0,0.0,0.0,0.0,0.0,0.0,0.0,0.0,0.0,0.0,0.0,0.0,0.0,0.0,0.0,0.0,0.0,0.0,0.0,0.0,0.0,0.0,0.0,0.0,0.0,0.0,0.0,0.0,0.0,0.0,0.0,0.0,0.0,0.0,0.0,0.0,0.0,0.0,0.0,0.0,0.0,0.0,0.0,0.0,0.0,0.0,0.0,0.0,0.0,0.0,0.0,0.0,0.0,0.0,0.0,0.0,0.0,0.0,0.0,0.0,0.0,0.0,0.0,0.0,-1.3865,-1.4078,-1.4041,-1.3869,-1.2933,-1.1991,-1.1642,-0.9606,-0.8006,-0.869,-0.756,-0.679,-0.7865,-0.8303,-0.8893,-1.0053,-1.0603,-1.1414,-1.2895,-1.3159,-1.339,-1.3969,-1.3994,-1.3911,-1.3637,-1.3626,-1.3476,-1.3091,-1.082,-0.8594,-0.6596,-0.6115,-0.5853,-0.5853,-0.3982,-0.2955,-0.2955,-0.0983,0.0,0.0,0.0,0.0,0.0,0.0,0.0,0.0,0.0,0.0,0.0,0.0,0.0,0.0,0.0,0.0,0.0,0.0,0.0,0.0,0.0,0.0,0.0,0.0,0.0,0.0,0.0,0.0,0.0,0.0,0.0,0.0,0.0,0.0,0.0,0.0,0.0,0.0,0.0,0.0,0.0,0.0,0.0,0.0,0.0,0.0,0.0,0.0,0.0,0.0,0.0,0.0,0.0,0.0,0.0,0.0,0.0,0.0,0.0,0.0,0.0,0.0,0.0,0.0,0.0,0.0,0.0,0.0,0.0,0.0,0.0,0.0,0.0,0.0,-1.3994,-1.4129,-1.4116,-1.3768,-1.3057,-1.2135,-1.1145,-0.9112,-0.7382,-0.7229,-0.5939,-0.5242,-0.6509,-0.7145,-0.7927,-0.9332,-1.0086,-1.0975,-1.2431,-1.2764,-1.3132,-1.4016,-1.4143,-1.4251,-1.4394,-1.4407,-1.4441,-1.4478,-1.3437,-1.1653,-0.9113,-0.777,-0.7102,-0.7102,-0.5987,-0.541,-0.541,-0.4295,-0.3081,-0.1867,-0.1857,-0.1232,0.0,0.0,0.0,0.0,0.0,0.0,0.0,0.0,0.0,0.0,0.0,0.0,0.0,0.0,0.0,0.0,0.0,0.0,0.0,0.0,0.0,0.0,0.0,0.0,0.0,0.0,0.0,0.0,0.0,0.0,0.0,0.0,0.0,0.0,0.0,0.0,0.0,0.0,0.0,0.0,0.0,0.0,0.0,0.0,0.0,0.0,0.0,0.0,0.0,0.0,0.0,0.0,0.0,0.0,0.0,0.0,0.0,0.0,0.0,0.0,0.0,0.0,0.0,0.0,0.0,0.0,0.0,0.0,0.0,0.0,-1.3973,-1.4136,-1.4143,-1.3653,-1.2861,-1.1837,-1.0663,-0.8634,-0.676,-0.5954,-0.4703,-0.4147,-0.5402,-0.6011,-0.6867,-0.862,-0.9456,-1.0397,-1.1846,-1.2298,-1.2881,-1.3899,-1.419,-1.4353,-1.4496,-1.4543,-1.4579,-1.4735,-1.4741,-1.3829,-1.1615,-0.97,-0.8664,-0.8664,-0.8129,-0.7862,-0.7862,-0.7369,-0.6168,-0.4338,-0.386,-0.2609,-0.0753,-0.0219,0.0,0.0,0.0,0.0,0.0,0.0,0.0,0.0,0.0,0.0,0.0,0.0,0.0,0.0,0.0,0.0,0.0,0.0,0.0,0.0,0.0,0.0,0.0,0.0,0.0,0.0,0.0,0.0,0.0,0.0,0.0,0.0,0.0,0.0,0.0,0.0,0.0,0.0,0.0,0.0,0.0,0.0,0.0,0.0,0.0,0.0,0.0,0.0,0.0,0.0,0.0,0.0,0.0,0.0,0.0,0.0,0.0,0.0,0.0,0.0,0.0,0.0,0.0,0.0,0.0,0.0,0.0,0.0,-1.3741,-1.3973,-1.403,-1.3532,-1.2542,-1.1402,-1.0369,-0.8284,-0.6418,-0.5896,-0.4629,-0.4055,-0.5509,-0.5727,-0.6394,-0.856,-0.9103,-0.988,-1.1606,-1.2223,-1.284,-1.3707,-1.4122,-1.4353,-1.4496,-1.4593,-1.478,-1.4936,-1.495,-1.4723,-1.4188,-1.3827,-1.3628,-1.3628,-1.1522,-1.0357,-1.0357,-0.8174,-0.7012,-0.6745,-0.4602,-0.3485,-0.3217,-0.1019,0.0,0.0,0.0,0.0,0.0,0.0,0.0,0.0,0.0,0.0,0.0,0.0,0.0,0.0,0.0,0.0,0.0,0.0,0.0,0.0,0.0,0.0,0.0,0.0,0.0,0.0,0.0,0.0,0.0,0.0,0.0,0.0,0.0,0.0,0.0,0.0,0.0,0.0,0.0,0.0,0.0,0.0,0.0,0.0,0.0,0.0,0.0,0.0,0.0,0.0,0.0,0.0,0.0,0.0,0.0,0.0,0.0,0.0,0.0,0.0,0.0,0.0,0.0,0.0,0.0,0.0,0.0,0.0,-1.3281,-1.3682,-1.3844,-1.3492,-1.2433,-1.1233,-1.0301,-0.8174,-0.6246,-0.577,-0.457,-0.4006,-0.5309,-0.5581,-0.6174,-0.7958,-0.8309,-0.8845,-1.029,-1.0765,-1.1489,-1.2874,-1.3464,-1.4027,-1.4719,-1.4923,-1.5106,-1.5357,-1.5289,-1.514,-1.4923,-1.4604,-1.4387,-1.4306,-1.3356,-1.2863,-1.2863,-1.1921,-1.0717,-0.9242,-0.6834,-0.4963,-0.3535,-0.1116,0.0,0.0,0.0,-0.0794,-0.2058,-0.1992,-0.1977,-0.2005,-0.2026,-0.122,0.0,0.0,0.0,0.0,0.0,0.0,0.0,0.0,0.0,0.0,0.0,0.0,0.0,0.0,0.0,0.0,0.0,0.0,0.0,0.0,0.0,0.0,0.0,0.0,0.0,0.0,0.0,0.0,0.0,0.0,0.0,0.0,0.0,0.0,0.0,0.0,0.0,0.0,0.0,0.0,0.0,0.0,0.0,0.0,0.0,0.0,0.0,0.0,0.0,0.0,0.0,0.0,0.0,0.0,0.0,0.0,0.0,0.0,-1.269,-1.3207,-1.3505,-1.3214,-1.2155,-1.0955,-1.009,-0.8268,-0.6521,-0.5714,-0.4781,-0.4393,-0.5234,-0.5481,-0.6046,-0.7561,-0.7824,-0.827,-0.9503,-0.9934,-1.0657,-1.2074,-1.2732,-1.3186,-1.3443,-1.3905,-1.4322,-1.4561,-1.441,-1.3913,-1.3009,-1.2593,-1.3008,-1.4322,-1.4319,-1.4299,-1.4299,-1.4299,-1.3091,-1.0673,-0.8263,-0.5856,-0.3535,-0.1121,0.0,0.0,0.0,-0.1288,-0.3344,-0.2605,-0.2707,-0.3283,-0.2657,-0.143,0.0,0.0,0.0,0.0,0.0,0.0,0.0,0.0,0.0,0.0,0.0,0.0,0.0,0.0,0.0,0.0,0.0,0.0,0.0,0.0,0.0,0.0,0.0,0.0,0.0,0.0,0.0,0.0,0.0,0.0,0.0,0.0,0.0,0.0,0.0,0.0,0.0,0.0,0.0,0.0,0.0,0.0,0.0,0.0,0.0,0.0,0.0,0.0,0.0,0.0,0.0,0.0,0.0,0.0,0.0,0.0,0.0,0.0,-1.1948,-1.2554,-1.2935,-1.2589,-1.1613,-1.0493,-0.9591,-0.8574,-0.7328,-0.5722,-0.5381,-0.5381,-0.5403,-0.5403,-0.5924,-0.7548,-0.7912,-0.8426,-0.9623,-1.0202,-1.0772,-1.1502,-1.2026,-1.1676,-1.001,-1.106,-1.1926,-1.2138,-1.1937,-1.0597,-0.7807,-0.7537,-0.9616,-1.433,-1.4373,-1.4299,-1.4299,-1.4299,-1.3091,-1.0673,-0.8263,-0.5856,-0.3535,-0.1121,0.0,0.0,0.0,-0.128,-0.3211,-0.0949,-0.1368,-0.3155,-0.0929,0.0,0.0,0.0,0.0,0.0,0.0,0.0,0.0,0.0,0.0,0.0,0.0,0.0,0.0,0.0,0.0,0.0,0.0,0.0,0.0,0.0,0.0,0.0,0.0,0.0,0.0,0.0,0.0,0.0,0.0,0.0,0.0,0.0,0.0,0.0,0.0,0.0,0.0,0.0,0.0,0.0,0.0,0.0,0.0,0.0,0.0,0.0,0.0,0.0,0.0,0.0,0.0,0.0,0.0,0.0,0.0,0.0,0.0,0.0,-1.0716,-1.1131,-1.1382,-1.1179,-1.046,-0.9625,-0.8954,-0.8194,-0.7446,-0.6719,-0.6561,-0.6561,-0.6561,-0.6561,-0.692,-0.7968,-0.8167,-0.8472,-0.9281,-1.0107,-1.0928,-1.1638,-1.3336,-1.3577,-1.137,-1.167,-1.2012,-1.2093,-1.0276,-0.8792,-0.7783,-0.7612,-0.8124,-0.9391,-0.9384,-0.9375,-0.9375,-0.9375,-0.8975,-0.8219,-0.5856,-0.434,-0.3535,-0.1121,0.0,0.0,0.0,-0.1274,-0.3264,-0.2534,-0.2679,-0.3247,-0.2523,-0.1346,0.0,0.0,0.0,0.0,0.0,0.0,0.0,0.0,0.0,0.0,0.0,0.0,0.0,0.0,0.0,0.0,0.0,0.0,0.0,0.0,0.0,0.0,0.0,0.0,0.0,0.0,0.0,0.0,0.0,0.0,0.0,0.0,0.0,0.0,0.0,0.0,0.0,0.0,0.0,0.0,0.0,0.0,0.0,0.0,0.0,0.0,0.0,0.0,0.0,0.0,0.0,0.0,0.0,0.0,0.0,0.0,0.0,0.0,-0.9459,-0.9992,-1.0188,-1.01,-0.958,-0.8941,-0.8425,-0.7902,-0.7441,-0.7168,-0.7098,-0.7098,-0.7098,-0.7098,-0.731,-0.7923,-0.8113,-0.8437,-0.9118,-1.0005,-1.0995,-1.1965,-1.2893,-1.3267,-1.2767,-1.2266,-1.157,-1.0532,-0.8867,-0.7031,-0.4985,-0.477,-0.4621,-0.441,-0.6156,-0.7102,-0.7102,-0.7102,-0.6656,-0.5767,-0.4295,-0.3134,-0.2195,-0.0673,0.0,0.0,0.0,-0.1267,0.0,-0.2391,-0.2578,-0.3232,-0.2394,-0.122,0.0,0.0,0.0,0.0,0.0,0.0,0.0,0.0,0.0,0.0,0.0,0.0,0.0,0.0,0.0,0.0,0.0,0.0,0.0,0.0,0.0,0.0,0.0,0.0,0.0,0.0,0.0,0.0,0.0,0.0,0.0,0.0,0.0,0.0,0.0,0.0,0.0,0.0,0.0,0.0,0.0,0.0,0.0,0.0,0.0,0.0,0.0,0.0,0.0,0.0,0.0,0.0,0.0,0.0,0.0,0.0,0.0,0.0,0.0,-0.8945,-0.9281,-0.9267,-0.8852,-0.8343,-0.802,-0.7658,0.0,-0.7148,-0.7098,-0.7105,-0.7139,-0.7125,-0.7249,-0.7638,-0.7912,-0.8344,-0.9124,-1.0077,-1.1089,-1.2224,-1.1374,-1.1604,-1.3897,-1.2695,-1.0755,-0.8259,-0.7742,-0.5373,-0.0524,-0.0094,0.0,0.0,-0.4273,-0.6611,-0.6611,-0.6611,-0.5499,-0.3356,-0.3356,-0.215,0.0,0.0,0.0,0.0,0.0,-0.1216,-0.2986,-0.0891,-0.1262,-0.2939,-0.0842,0.0,0.0,0.0,0.0,0.0,0.0,0.0,0.0,0.0,0.0,0.0,0.0,0.0,0.0,0.0,0.0,0.0,0.0,0.0,0.0,0.0,0.0,0.0,0.0,0.0,0.0,0.0,0.0,0.0,0.0,0.0,0.0,0.0,0.0,0.0,0.0,0.0,0.0,0.0,0.0,0.0,0.0,0.0,0.0,0.0,0.0,0.0,0.0,0.0,0.0,0.0,0.0,0.0,0.0,0.0,0.0,0.0,0.0,0.0,-0.5582,0.0,-0.7991,-0.79,-0.7852,-0.7726,0.0,-0.736,-0.7348,-0.7148,-0.7098,-0.72,-0.7567,-0.7468,-0.7604,-0.8453,-0.8777,-0.9104,-0.9591,-1.1268,-1.2072,-1.1243,-1.3178,-1.3985,-1.2396,-1.197,-1.1496,-1.0745,-0.7022,-0.4181,-0.2826,-0.1017,0.0,0.0,-0.1082,-0.1658,-0.1658,-0.1658,-0.139,-0.0852,-0.0852,-0.0538,0.0,0.0,0.0,0.0,0.0,-0.0304,-0.0737,-0.0212,-0.0337,-0.0757,-0.021,0.0,0.0,0.0,0.0,0.0,0.0,0.0,0.0,0.0,0.0,0.0,0.0,0.0,0.0,0.0,0.0,0.0,0.0,0.0,0.0,0.0,0.0,0.0,0.0,0.0,0.0,0.0,0.0,0.0,0.0,0.0,0.0,0.0,0.0,0.0,0.0,0.0,0.0,0.0,0.0,0.0,0.0,0.0,0.0,0.0,0.0,0.0,0.0,0.0,0.0,0.0,0.0,0.0,0.0,0.0,0.0,0.0,0.0,0.0,-0.4221,-0.5659,-0.689,-0.7379,-0.759,-0.7638,-0.7377,-0.736,-0.7348,-0.7148,-0.7098,-0.7215,-0.755,-0.7536,-0.7753,-0.8594,-0.8995,-0.958,-1.069,-1.2166,-1.2971,-1.2589,-1.4364,-1.5077,-1.3494,-1.346,-1.294,-1.1503,-0.8818,-0.6141,-0.3747,-0.238,-0.1136,-0.0045,0.0,0.0,0.0,0.0,0.0,0.0,0.0,0.0,0.0,0.0,0.0,0.0,0.0,0.0,0.0,0.0,0.0,0.0,0.0,0.0,0.0,0.0,0.0,0.0,0.0,0.0,0.0,0.0,0.0,0.0,0.0,-0.0712,-0.1333,-0.0292,0.0,0.0,0.0,0.0,0.0,0.0,0.0,0.0,0.0,0.0,0.0,0.0,0.0,0.0,0.0,0.0,0.0,0.0,0.0,0.0,0.0,0.0,0.0,0.0,0.0,0.0,0.0,0.0,0.0,0.0,0.0,0.0,0.0,0.0,0.0,0.0,0.0,0.0,0.0,0.0,0.0,0.0,0.0,0.0,-0.386,-0.493,-0.6202,-0.7252,-0.7672,-0.7767,-0.7604,-0.7505,-0.7389,-0.7215,-0.7179,-0.7283,-0.7525,-0.7689,-0.797,-0.8587,-0.9172,-1.0172,-1.2043,-1.2928,-1.3702,-1.4658,-1.5215,-1.5493,-1.5452,-1.5512,-1.4549,-1.2042,-1.1455,-0.93,-0.4955,-0.4357,-0.3027,-0.0628,-0.0538,-0.0359,0.0,0.0,0.0,0.0,0.0,0.0,0.0,0.0,0.0,0.0,0.0,0.0,0.0,0.0,0.0,0.0,0.0,0.0,0.0,0.0,0.0,0.0,0.0,-0.021,-0.0505,-0.0505,-0.0757,-0.101,-0.1054,-0.24,-0.3533,-0.1601,-0.1052,-0.1009,-0.1009,-0.0757,-0.0505,-0.0505,-0.0253,0.0,0.0,0.0,0.0,0.0,0.0,0.0,0.0,0.0,0.0,0.0,0.0,0.0,0.0,0.0,0.0,0.0,0.0,0.0,0.0,0.0,0.0,0.0,0.0,0.0,0.0,0.0,0.0,0.0,0.0,0.0,0.0,0.0,0.0,0.0,0.0,0.0,-0.4991,-0.6091,-0.6656,-0.708,-0.7492,-0.774,-0.7491,-0.7512,-0.7556,-0.7536,-0.7624,-0.7834,-0.826,-0.8438,-0.8777,-0.9496,-1.0419,-1.1552,-1.299,-1.3736,-1.4326,-1.4869,-1.5554,-1.5879,-1.558,-1.558,-1.5361,-1.478,-1.2545,-1.0785,-0.9843,-0.7735,-0.5462,-0.3134,-0.3045,-0.2061,0.0,0.0,0.0,0.0,0.0,0.0,0.0,0.0,0.0,0.0,0.0,0.0,0.0,0.0,0.0,0.0,0.0,0.0,0.0,0.0,0.0,0.0,0.0,-0.1262,-0.2855,-0.2813,-0.4111,-0.5709,-0.5803,-0.6072,-0.6284,-0.5945,-0.5738,-0.5658,-0.5658,-0.4237,-0.2813,-0.2855,-0.1388,0.0,0.0,0.0,0.0,0.0,0.0,0.0,0.0,0.0,0.0,0.0,0.0,0.0,0.0,0.0,0.0,0.0,0.0,0.0,0.0,0.0,0.0,0.0,0.0,0.0,0.0,0.0,0.0,0.0,0.0,0.0,0.0,0.0,0.0,0.0,0.0,0.0,-0.5355,-0.6466,-0.7335,-0.7539,-0.8085,-0.8444,-0.7988,-0.7934,-0.8008,-0.8058,-0.8126,-0.8309,-0.8791,-0.9164,-0.9724,-1.0711,-1.166,-1.2508,-1.3288,-1.3851,-1.4401,-1.5057,-1.5384,-1.5608,-1.5587,-1.5512,-1.5337,-1.5072,-1.383,-1.2437,-1.0888,-0.9669,-0.7951,-0.5588,-0.5423,-0.4256,-0.1954,-0.1855,-0.1196,0.0,0.0,0.0,0.0,0.0,0.0,-0.0088,-0.1265,-0.1769,-0.1878,-0.3121,-0.3608,-0.3482,-0.2268,-0.1807,-0.1681,-0.0463,0.0,-0.017,-0.1485,-0.2636,-0.3715,-0.4949,-0.6057,-0.6698,-0.5491,-0.597,-0.6903,-0.6823,-0.6785,-0.6793,-0.671,-0.4989,-0.3315,-0.34,-0.1639,0.0,0.0,0.0,0.0,0.0,0.0,0.0,0.0,0.0,0.0,0.0,0.0,0.0,0.0,0.0,0.0,0.0,0.0,0.0,0.0,0.0,0.0,0.0,0.0,0.0,0.0,0.0,0.0,0.0,0.0,0.0,0.0,0.0,0.0,0.0,0.0,0.0,-0.6,-0.7006,-0.7997,-0.8088,-0.852,-0.8866,-0.8662,-0.8532,-0.8546,-0.8866,-0.8934,-0.9036,-0.9383,-0.9992,-1.0765,-1.1786,-1.2684,-1.3363,-1.362,-1.4048,-1.4602,-1.5167,-1.5269,-1.5377,-1.5566,-1.5466,-1.5215,-1.4823,-1.4701,-1.3765,-1.1705,-1.1582,-1.0446,-0.804,-0.7824,-0.642,-0.3612,-0.3399,-0.2187,0.0,0.0,0.0,0.0,0.0,0.0,-0.0088,-0.1785,-0.254,-0.2677,-0.4418,-0.5114,-0.4947,-0.3191,-0.2566,-0.2404,-0.0634,0.0,-0.0344,-0.2784,-0.3958,-0.4764,-0.7137,-0.787,-0.7529,-0.5729,-0.5995,-0.6892,-0.6795,-0.6821,-0.7092,-0.803,-0.6199,-0.4111,-0.4153,-0.2021,0.0,0.0,0.0,0.0,0.0,0.0,0.0,0.0,0.0,0.0,0.0,0.0,0.0,0.0,0.0,0.0,0.0,0.0,0.0,0.0,0.0,0.0,0.0,0.0,0.0,0.0,0.0,0.0,0.0,0.0,0.0,0.0,0.0,0.0,0.0,0.0,0.0,-0.7672,-0.8258,-0.8464,-0.8471,-0.8282,-0.8338,-0.93,-0.9163,-0.9102,-0.9978,-1.0186,-1.0193,-1.0227,-1.1023,-1.1834,-1.2372,-1.3315,-1.4095,-1.4387,-1.4821,-1.5174,-1.5371,-1.552,-1.5566,-1.5587,-1.5371,-1.5187,-1.5153,-1.4767,-1.4426,-1.4226,-1.41,-1.2907,-1.054,-1.0298,-0.8085,-0.3656,-0.3399,-0.2171,0.0,0.0,0.0,0.0,0.0,0.0,0.0,-0.0174,-0.0258,-0.0253,-0.0421,-0.0463,-0.0463,-0.0295,-0.0254,-0.0214,-0.0043,0.0,-0.0347,-0.2772,-0.4932,-0.7051,-0.9468,-1.0161,-1.0047,-1.002,-0.8559,-0.6892,-0.6889,-0.6885,-0.7838,-1.1861,-0.9711,-0.6449,-0.6449,-0.3174,0.0,0.0,0.0,0.0,0.0,0.0,0.0,0.0,0.0,0.0,0.0,0.0,0.0,0.0,0.0,0.0,0.0,0.0,0.0,0.0,0.0,0.0,0.0,0.0,0.0,0.0,0.0,0.0,0.0,0.0,0.0,0.0,0.0,0.0,0.0,0.0,0.0,-0.7617,-0.811,-0.8532,-0.8601,-0.875,-0.9001,-0.9496,-0.9761,-1.0134,-1.0948,-1.126,-1.1479,-1.1626,-1.1986,-1.2427,-1.2969,-1.3709,-1.4319,-1.4611,-1.4882,-1.514,-1.5384,-1.5377,-1.5357,-1.5357,-1.5167,-1.497,-1.478,-1.4604,-1.4475,-1.4387,-1.4333,-1.3854,-1.2872,-1.2644,-1.1015,-0.78,-0.7588,-0.6404,-0.4119,-0.1353,0.0,0.0,0.0,0.0,-0.0087,-0.1519,-0.21,-0.2226,-0.3608,-0.4153,-0.4027,-0.2603,-0.1228,0.0,0.0,-0.0951,-0.2584,-0.4942,-0.7286,-0.9395,-1.0322,-1.059,-1.0019,-0.7095,-0.5554,-0.4837,-0.4716,-0.4709,-0.5433,-0.8462,-0.6933,-0.4626,-0.4613,-0.2224,0.0,0.0,0.0,0.0,0.0,0.0,0.0,0.0,0.0,0.0,0.0,0.0,0.0,0.0,0.0,0.0,0.0,0.0,0.0,0.0,0.0,0.0,0.0,0.0,0.0,0.0,0.0,0.0,0.0,0.0,0.0,0.0,0.0,0.0,0.0,0.0,0.0,-0.7638,-0.7957,-0.8404,-0.8648,-0.9083,-0.9591,-1.012,-1.0521,-1.1043,-1.1986,-1.223,-1.2332,-1.2535,-1.2617,-1.2813,-1.3315,-1.3946,-1.4455,-1.466,-1.4875,-1.5065,-1.5309,-1.5248,-1.5167,-1.512,-1.4984,-1.4787,-1.4529,-1.4468,-1.4401,-1.4306,-1.4299,-1.4231,-1.4119,-1.3919,-1.2648,-1.0302,-1.0147,-0.8915,-0.6662,-0.3576,-0.1747,-0.1049,-0.106,-0.066,-0.0086,-0.1641,-0.2308,-0.2436,-0.3944,-0.4579,-0.4427,-0.2871,-0.179,-0.1123,-0.1123,-0.2661,-0.5041,-0.7424,-0.9322,-1.0717,-1.0717,-1.018,-0.8797,-0.4829,-0.3089,-0.2415,-0.2308,-0.2304,-0.2653,-0.4211,-0.3987,-0.3351,-0.3331,-0.1602,0.0,0.0,0.0,0.0,0.0,0.0,0.0,0.0,0.0,0.0,0.0,0.0,0.0,0.0,0.0,0.0,0.0,0.0,0.0,0.0,0.0,0.0,0.0,0.0,0.0,0.0,0.0,0.0,0.0,0.0,0.0,0.0,0.0,0.0,0.0,0.0,0.0,-0.7988,-0.7988,-0.8128,-0.8574,-0.9171,-0.9971,-1.1286,-1.1511,-1.1789,-1.3132,-1.3051,-1.2699,-1.2699,-1.2861,-1.3105,-1.3356,-1.4027,-1.4563,-1.4674,-1.4869,-1.5071,-1.516,-1.5181,-1.512,-1.503,-1.4828,-1.4626,-1.4523,-1.438,-1.4299,-1.4299,-1.4299,-1.4224,-1.4119,-1.3919,-1.2691,-1.0345,-1.0142,-0.8915,-0.6745,-0.6778,-0.554,-0.3329,-0.3407,-0.22,-0.0043,-0.0043,0.0,0.0,0.0,0.0,-0.0043,-0.0043,-0.1516,-0.3612,-0.3612,-0.514,-0.7458,-0.9869,-1.0717,-1.0717,-1.0673,-0.9064,-0.6656,-0.4295,-0.1882,0.0,0.0,0.0,0.0,0.0,-0.1632,-0.3251,-0.3251,-0.1575,0.0,0.0,0.0,0.0,0.0,0.0,0.0,0.0,0.0,0.0,0.0,0.0,0.0,0.0,0.0,0.0,0.0,0.0,0.0,0.0,0.0,0.0,0.0,0.0,0.0,0.0,0.0,0.0,0.0,0.0,0.0,0.0,0.0,0.0,0.0,0.0,0.0,-0.7912,-0.8162,-0.8595,-0.9069,-0.9869,-1.0813,-1.1979,-1.2291,-1.2684,-1.3926,-1.3743,-1.3348,-1.345,-1.3376,-1.3336,-1.3532,-1.4014,-1.4414,-1.4557,-1.4713,-1.4862,-1.5064,-1.4936,-1.4809,-1.4814,-1.4672,-1.4516,-1.4373,-1.4326,-1.4251,-1.4143,-1.4143,-1.4021,-1.377,-1.3673,-1.3277,-1.2499,-1.2414,-1.2056,-1.1427,-1.1426,-0.9417,-0.5713,-0.573,-0.448,-0.2306,-0.2392,-0.1487,0.0,0.0,-0.1016,-0.2517,-0.2517,-0.3975,-0.6069,-0.6069,-0.7567,-0.9735,-1.0446,-1.1788,-1.2686,-0.9286,-0.7681,-0.6344,-0.2285,-0.0583,0.0,0.0,0.0,0.0,0.0,-0.0491,-0.0977,-0.0977,-0.0487,0.0,0.0,0.0,0.0,0.0,0.0,0.0,0.0,0.0,0.0,0.0,0.0,0.0,0.0,0.0,0.0,0.0,0.0,0.0,0.0,0.0,0.0,0.0,0.0,0.0,0.0,0.0,0.0,0.0,0.0,0.0,0.0,0.0,0.0,0.0,0.0,0.0,-0.8079,-0.8391,-0.8906,-0.9713,-1.0535,-1.1496,-1.2752,-1.32,-1.3599,-1.436,-1.4136,-1.3831,-1.3919,-1.3688,-1.3559,-1.377,-1.4082,-1.4346,-1.4489,-1.459,-1.4706,-1.4862,-1.4748,-1.4667,-1.4613,-1.4563,-1.4455,-1.4312,-1.4245,-1.417,-1.4119,-1.4014,-1.3871,-1.3592,-1.3585,-1.3553,-1.3403,-1.3403,-1.3403,-1.3403,-1.3403,-1.1974,-0.9347,-0.8433,-0.677,-0.4616,-0.3772,-0.3126,-0.2604,-0.1681,-0.2754,-0.4931,-0.4931,-0.6382,-0.8537,-0.8537,-1.0082,-1.2148,-1.2148,-1.3091,-1.3673,-0.978,-0.853,-0.764,-0.2866,-0.1434,-0.1211,-0.0269,0.0,0.0,0.0,0.0,0.0,0.0,0.0,0.0,0.0,0.0,0.0,0.0,0.0,0.0,0.0,0.0,0.0,0.0,0.0,0.0,0.0,0.0,0.0,0.0,0.0,0.0,0.0,0.0,0.0,0.0,0.0,0.0,0.0,0.0,0.0,0.0,0.0,0.0,0.0,0.0,0.0,0.0,0.0,0.0,-0.8397,-0.8648,-0.9096,-1.0427,-1.1314,-1.2152,-1.3538,-1.4173,-1.4509,-1.4509,-1.4299,-1.4159,-1.4159,-1.3878,-1.3777,-1.4048,-1.4211,-1.4346,-1.4475,-1.4489,-1.455,-1.4654,-1.466,-1.4606,-1.4523,-1.4502,-1.4434,-1.4292,-1.415,-1.4105,-1.4078,-1.3899,-1.3714,-1.3572,-1.3565,-1.3497,-1.3403,-1.3403,-1.3403,-1.3403,-1.3403,-1.3403,-1.3321,-1.1261,-0.9082,-0.6867,-0.4649,-0.4816,-0.6533,-0.4444,-0.5052,-0.7223,-0.7223,-0.8808,-1.1028,-1.1028,-1.2414,-1.4299,-1.4299,-1.4299,-1.3894,-1.1477,-1.0717,-0.9869,-0.5276,-0.3759,-0.3134,-0.0942,-0.018,0.0,0.0,0.0,0.0,0.0,0.0,0.0,0.0,0.0,0.0,0.0,0.0,0.0,0.0,0.0,0.0,0.0,0.0,0.0,0.0,0.0,0.0,0.0,0.0,0.0,0.0,0.0,0.0,0.0,0.0,0.0,0.0,0.0,0.0,0.0,0.0,0.0,0.0,0.0,0.0,0.0,0.0,0.0,-0.8689,-0.9035,-0.9591,-1.1056,-1.2361,-1.3497,-1.4167,-1.4441,-1.4509,-1.4509,-1.4462,-1.4414,-1.4414,-1.4272,-1.4177,-1.4238,-1.4278,-1.4312,-1.434,-1.4346,-1.4401,-1.4543,-1.4462,-1.4428,-1.4502,-1.4414,-1.4285,-1.4129,-1.4132,-1.3973,-1.3736,-1.3653,-1.3565,-1.3458,-1.3451,-1.3437,-1.3403,-1.3403,-1.3403,-1.3403,-1.3403,-1.3403,-1.3403,-1.2893,-1.1427,-0.9161,-0.6846,-0.6148,-0.6658,-0.616,-0.7465,-0.9726,-0.9726,-1.1259,-1.3533,-1.3533,-1.385,-1.4299,-1.4299,-1.4299,-1.3894,-1.1477,-1.0717,-1.018,-0.7235,-0.5053,-0.349,-0.2955,-0.1479,0.0,0.0,0.0,0.0,0.0,0.0,0.0,0.0,0.0,0.0,0.0,0.0,0.0,0.0,0.0,0.0,0.0,0.0,0.0,0.0,0.0,0.0,0.0,0.0,0.0,0.0,0.0,0.0,0.0,0.0,0.0,0.0,0.0,0.0,0.0,0.0,0.0,0.0,0.0,0.0,0.0,0.0,0.0,-0.8879,-0.9415,-1.0243,-1.2026,-1.3275,-1.4122,-1.4353,-1.4414,-1.4414,-1.4414,-1.4462,-1.4489,-1.4421,-1.4346,-1.4299,-1.4299,-1.4299,-1.4299,-1.4299,-1.4299,-1.4326,-1.4401,-1.4346,-1.4326,-1.4401,-1.4346,-1.4238,-1.4125,-1.4,-1.3865,-1.3599,-1.3559,-1.3485,-1.3403,-1.3403,-1.3403,-1.3403,-1.3403,-1.3403,-1.3403,-1.3403,-1.3403,-1.3397,-1.3322,-1.2703,-1.1505,-0.9099,-0.8779,-0.9836,-0.8749,-0.9792,-1.2062,-1.2062,-1.2972,-1.4299,-1.4299,-1.4299,-1.4299,-1.4299,-1.4299,-1.4078,-1.2819,-1.2414,-1.1743,-0.8174,-0.6255,-0.4785,-0.2507,-0.0987,0.0,0.0,0.0,0.0,0.0,0.0,0.0,0.0,0.0,0.0,0.0,0.0,0.0,0.0,0.0,0.0,0.0,0.0,0.0,0.0,0.0,0.0,0.0,0.0,0.0,0.0,0.0,0.0,0.0,0.0,0.0,0.0,0.0,0.0,0.0,0.0,0.0,0.0,0.0,0.0,0.0,0.0,0.0,-0.8947,-0.9846,-1.1002,-1.2888,-1.3817,-1.4272,-1.4292,-1.4299,-1.4299,-1.4299,-1.4394,-1.4428,-1.4285,-1.4265,-1.4251,-1.4224,-1.4217,-1.4217,-1.4217,-1.4245,-1.4265,-1.4265,-1.4285,-1.4299,-1.4299,-1.4278,-1.4197,-1.4041,-1.3892,-1.37,-1.3558,-1.3471,-1.339,-1.3363,-1.3363,-1.3349,-1.3322,-1.3349,-1.3363,-1.3363,-1.339,-1.339,-1.3356,-1.3227,-1.3241,-1.3267,-1.1213,-1.1482,-1.3239,-1.1374,-1.1873,-1.3795,-1.3795,-1.3984,-1.4299,-1.4299,-1.4299,-1.4299,-1.4299,-1.4299,-1.4299,-1.4299,-1.4027,-1.2907,-0.893,-0.7149,-0.5678,-0.1748,-0.0314,0.0,0.0,0.0,0.0,0.0,0.0,0.0,0.0,0.0,0.0,0.0,0.0,0.0,0.0,0.0,0.0,0.0,0.0,0.0,0.0,0.0,0.0,0.0,0.0,0.0,0.0,0.0,0.0,0.0,0.0,0.0,0.0,0.0,0.0,0.0,0.0,0.0,0.0,0.0,0.0,0.0,0.0,0.0,-0.877,-1.0238,-1.184,-1.2935,-1.3697,-1.418,-1.4272,-1.4299,-1.4299,-1.4299,-1.4319,-1.4285,-1.4129,-1.4146,-1.4061,-1.3883,-1.3862,-1.3862,-1.3862,-1.4021,-1.4146,-1.4146,-1.4217,-1.4299,-1.4299,-1.4183,-1.4041,-1.3842,-1.3693,-1.3593,-1.3437,-1.341,-1.3342,-1.3248,-1.3241,-1.3186,-1.3064,-1.3186,-1.3241,-1.3248,-1.3336,-1.3329,-1.3241,-1.322,-1.3227,-1.3193,-1.2761,-1.2822,-1.3214,-1.3012,-1.3279,-1.3795,-1.3795,-1.3984,-1.4299,-1.4299,-1.4299,-1.4299,-1.4299,-1.4299,-1.4299,-1.4299,-1.2907,-1.1072,-1.0402,-0.7324,-0.3938,-0.3312,-0.1614,0.0,0.0,0.0,0.0,0.0,0.0,0.0,0.0,0.0,0.0,0.0,0.0,0.0,0.0,0.0,0.0,0.0,0.0,0.0,0.0,0.0,0.0,0.0,0.0,0.0,0.0,0.0,0.0,0.0,0.0,0.0,0.0,0.0,0.0,0.0,0.0,0.0,0.0,0.0,0.0,0.0,0.0,0.0,-0.9415,-1.0461,-1.1577,-1.2805,-1.3418,-1.3783,-1.4102,-1.417,-1.417,-1.417,-1.4102,-1.4048,-1.4112,-1.4,-1.3919,-1.3808,-1.3795,-1.3795,-1.3795,-1.3899,-1.3973,-1.4105,-1.4129,-1.417,-1.417,-1.4109,-1.3973,-1.37,-1.3619,-1.3518,-1.341,-1.3322,-1.3241,-1.3214,-1.3139,-1.3064,-1.3003,-1.3064,-1.3132,-1.3214,-1.3159,-1.3159,-1.3207,-1.3003,-1.3017,-1.3207,-1.3146,-1.3207,-1.3308,-1.337,-1.3573,-1.3795,-1.3795,-1.3984,-1.4299,-1.4299,-1.4299,-1.4285,-1.4204,-1.4231,-1.4285,-1.4197,-1.3513,-1.2458,-1.1117,-0.8308,-0.5276,-0.3982,-0.1882,0.0,0.0,0.0,0.0,0.0,0.0,0.0,0.0,0.0,0.0,0.0,0.0,0.0,0.0,0.0,0.0,0.0,0.0,0.0,0.0,0.0,0.0,0.0,0.0,0.0,0.0,0.0,0.0,0.0,0.0,0.0,0.0,0.0,0.0,0.0,0.0,0.0,0.0,0.0,0.0,0.0,0.0,0.0,-0.9578,-1.0263,-1.0914,-1.2149,-1.2813,-1.3288,-1.3743,-1.3905,-1.3966,-1.4007,-1.3892,-1.3768,-1.3885,-1.3804,-1.3673,-1.3632,-1.3641,-1.3627,-1.3626,-1.366,-1.3783,-1.3939,-1.3994,-1.4014,-1.4014,-1.398,-1.3871,-1.3605,-1.3551,-1.3519,-1.3403,-1.3295,-1.3241,-1.3159,-1.3057,-1.2962,-1.2887,-1.2921,-1.3016,-1.3159,-1.305,-1.3037,-1.3057,-1.2908,-1.2922,-1.3057,-1.3057,-1.3166,-1.3342,-1.3342,-1.3519,-1.3747,-1.3781,-1.3964,-1.4245,-1.4285,-1.4299,-1.4285,-1.417,-1.4204,-1.4278,-1.4122,-1.3775,-1.3034,-1.1218,-0.8998,-0.6745,-0.4963,-0.3179,-0.1793,-0.1793,-0.1793,-0.1658,-0.1076,-0.0897,-0.0762,-0.0135,0.0,0.0,0.0,0.0,0.0,0.0,0.0,0.0,0.0,0.0,0.0,0.0,0.0,0.0,0.0,0.0,0.0,0.0,0.0,0.0,0.0,0.0,0.0,0.0,0.0,0.0,0.0,0.0,0.0,0.0,0.0,0.0,0.0,0.0,0.0,-0.8628,-0.9298,-1.0035,-1.0826,-1.1773,-1.2664,-1.3159,-1.3444,-1.3646,-1.3781,-1.3693,-1.3558,-1.3458,-1.3431,-1.3376,-1.3227,-1.3132,-1.3098,-1.3227,-1.3336,-1.3478,-1.3592,-1.3727,-1.3808,-1.3808,-1.3687,-1.3605,-1.3592,-1.3492,-1.341,-1.3403,-1.3397,-1.3261,-1.3023,-1.3003,-1.286,-1.2528,-1.2671,-1.282,-1.3009,-1.3003,-1.2888,-1.272,-1.303,-1.3003,-1.2713,-1.2713,-1.2915,-1.3227,-1.3227,-1.3363,-1.3612,-1.3747,-1.3939,-1.4146,-1.4245,-1.4299,-1.4299,-1.4292,-1.4292,-1.4278,-1.4122,-1.2621,-1.083,-1.059,-0.8902,-0.7057,-0.6968,-0.6834,-0.6745,-0.6745,-0.6745,-0.6168,-0.3938,-0.3403,-0.2776,-0.0494,0.0,0.0,0.0,0.0,0.0,0.0,0.0,0.0,0.0,0.0,0.0,0.0,0.0,0.0,0.0,0.0,0.0,0.0,0.0,0.0,0.0,0.0,0.0,0.0,0.0,0.0,0.0,0.0,0.0,0.0,0.0,0.0,0.0,0.0,0.0,-0.856,-0.8906,-0.9313,-1.0161,-1.0941,-1.1584,-1.2074,-1.2591,-1.3058,-1.3247,-1.3234,-1.3214,-1.3247,-1.3254,-1.3248,-1.3098,-1.3037,-1.305,-1.3193,-1.322,-1.3349,-1.3558,-1.3632,-1.366,-1.366,-1.3619,-1.3545,-1.3492,-1.3431,-1.3403,-1.3403,-1.322,-1.3111,-1.3003,-1.2805,-1.261,-1.2501,-1.2556,-1.2657,-1.2813,-1.2712,-1.2691,-1.2693,-1.284,-1.2794,-1.2693,-1.2693,-1.2895,-1.322,-1.3275,-1.3444,-1.3592,-1.3646,-1.3858,-1.4125,-1.4136,-1.4217,-1.4272,-1.4031,-1.4136,-1.4245,-1.3899,-1.345,-1.2971,-1.2835,-1.1203,-0.9424,-0.9424,-0.8308,-0.7102,-0.7102,-0.7102,-0.6522,-0.4161,-0.2419,-0.1031,-0.0179,-0.1211,-0.233,-0.233,-0.3535,-0.4072,-0.2553,-0.233,-0.1793,-0.0224,0.0,0.0,0.0,0.0,0.0,0.0,0.0,0.0,0.0,0.0,0.0,0.0,0.0,0.0,0.0,0.0,0.0,0.0,0.0,0.0,0.0,0.0,0.0,0.0,0.0,0.0,-0.8303,-0.852,-0.8838,-0.9723,-1.0202,-1.065,-1.1382,-1.1884,-1.2305,-1.2703,-1.2812,-1.2873,-1.2929,-1.2989,-1.2935,-1.2888,-1.284,-1.2901,-1.3003,-1.3024,-1.3119,-1.3376,-1.3444,-1.3478,-1.3478,-1.3519,-1.3512,-1.341,-1.3356,-1.3322,-1.3322,-1.3132,-1.2975,-1.2888,-1.2637,-1.2501,-1.2501,-1.2501,-1.2556,-1.2611,-1.2549,-1.2556,-1.2618,-1.2665,-1.2665,-1.2625,-1.2813,-1.299,-1.3214,-1.3227,-1.337,-1.3559,-1.3565,-1.3777,-1.4,-1.4098,-1.418,-1.4197,-1.3987,-1.4021,-1.4095,-1.3754,-1.3939,-1.4204,-1.4146,-1.3067,-1.1921,-1.1921,-1.0762,-0.9513,-0.9513,-0.893,-0.7907,-0.6347,-0.3535,-0.1211,-0.1211,-0.2463,-0.358,-0.358,-0.4874,-0.541,-0.3848,-0.291,-0.1838,-0.0224,0.0,0.0,0.0,0.0,0.0,0.0,0.0,0.0,0.0,0.0,0.0,0.0,0.0,0.0,0.0,0.0,0.0,0.0,0.0,0.0,0.0,0.0,0.0,0.0,0.0,0.0,0.0,0.0,0.0,-0.9381,-0.9571,-0.989,-1.1056,-1.1254,-1.137,-1.2094,-1.2359,-1.2461,-1.2481,-1.2481,-1.2528,-1.2638,-1.2583,-1.2549,-1.2665,-1.2686,-1.2779,-1.2982,-1.3118,-1.32,-1.3207,-1.3302,-1.3348,-1.33,-1.3165,-1.3085,-1.3003,-1.295,-1.2841,-1.2686,-1.2576,-1.2501,-1.2501,-1.2501,-1.2501,-1.2501,-1.2501,-1.2501,-1.2508,-1.2618,-1.2644,-1.2528,-1.3009,-1.32,-1.3193,-1.3064,-1.3139,-1.3327,-1.3434,-1.3581,-1.3723,-1.3914,-1.4018,-1.4105,-1.4105,-1.3966,-1.3802,-1.3795,-1.3946,-1.4119,-1.4112,-1.4177,-1.4299,-1.4204,-1.4204,-1.421,-1.421,-1.2458,-1.0717,-1.0717,-0.706,-0.358,-0.358,-0.358,-0.358,-0.358,-0.3669,-0.3669,-0.3625,-0.1658,-0.009,0.0,0.0,0.0,0.0,0.0,0.0,0.0,0.0,0.0,0.0,0.0,0.0,0.0,0.0,0.0,0.0,0.0,0.0,0.0,0.0,0.0,0.0,0.0,0.0,0.0,0.0,0.0,-0.7918,0.0,0.0,0.0,0.0,0.0,-0.9487,-0.9917,-1.0405,-1.113,-1.1313,-1.1475,-1.1901,-1.1895,-1.1874,-1.2016,-1.223,-1.24,-1.2542,-1.2562,-1.2664,-1.2969,-1.2895,-1.2895,-1.305,-1.3098,-1.2464,-1.09,-1.0745,-1.0077,-0.8576,-0.9812,-1.1169,-1.2491,-1.2522,-1.2501,-1.2501,-1.2501,-1.2501,-1.2501,-1.2501,-1.2501,-1.2508,-1.2618,-1.2644,-1.2515,-1.2752,-1.2854,-1.2874,-1.3159,-1.2304,-1.0801,-1.1012,-1.1135,-1.1294,-1.1328,-1.2429,-1.3892,-1.3783,-1.3865,-1.3973,-1.3714,-1.3939,-1.4197,-1.3973,-1.4089,-1.3918,-1.2076,-1.1632,-1.1699,-1.1699,-1.1206,-1.0717,-1.0717,-0.706,-0.358,-0.358,-0.358,-0.358,-0.358,-0.4963,-0.5588,-0.3893,-0.3045,-0.2016,-0.0269,0.0,0.0,0.0,0.0,0.0,0.0,0.0,0.0,0.0,0.0,0.0,0.0,0.0,0.0,0.0,0.0,0.0,0.0,0.0,0.0,0.0,0.0,0.0,0.0,0.0,0.0,-0.7912,-0.7966,-0.8049,-0.8324,0.0,0.0,-0.8987,-0.9217,-0.9528,-1.0218,-1.0407,-1.0569,-1.1016,-1.1118,-1.1179,-1.1225,-1.1579,-1.1975,-1.2271,-1.2318,-1.2424,-1.2601,-1.2562,-1.2603,-1.2752,-1.2827,-1.2037,-0.9944,-1.0547,-1.0458,-0.9169,-1.0178,-1.1335,-1.2463,-1.2501,-1.2501,-1.2501,-1.2501,-1.2501,-1.2501,-1.2501,-1.2501,-1.2508,-1.2596,-1.2583,-1.2515,-1.2732,-1.2752,-1.2632,-1.3119,-1.2503,-1.1242,-1.1359,-1.1504,-1.1667,-1.1667,-1.2599,-1.3788,-1.37,-1.3831,-1.396,-1.3851,-1.3994,-1.417,-1.3994,-1.4109,-1.4,-1.243,-1.2088,-1.2192,-1.2192,-1.2192,-1.1971,-1.0939,-0.7818,-0.4785,-0.3803,-0.2821,-0.2374,-0.3403,-0.4695,-0.5186,-0.3848,-0.2776,-0.1614,-0.0224,0.0,0.0,0.0,0.0,0.0,0.0,0.0,0.0,0.0,0.0,0.0,0.0,0.0,0.0,0.0,0.0,0.0,0.0,0.0,0.0,0.0,0.0,0.0,0.0,0.0,0.0,-0.7902,-0.7959,-0.8209,-0.871,-0.8486,0.0,-0.9089,-0.8974,-0.8866,-0.9422,-0.9589,-0.9754,-0.9975,-1.0233,-1.0392,-1.0392,-1.0819,-1.1336,-1.1941,-1.2036,-1.205,-1.205,-1.2149,-1.2291,-1.2413,-1.2569,-1.1839,-0.9881,-1.1126,-1.205,-1.216,-1.2133,-1.2249,-1.2501,-1.2488,-1.2488,-1.2501,-1.2501,-1.2501,-1.2501,-1.2501,-1.2501,-1.2501,-1.2501,-1.2501,-1.2515,-1.2833,-1.2792,-1.2535,-1.2935,-1.2983,-1.2794,-1.2827,-1.2964,-1.3195,-1.3173,-1.3428,-1.3754,-1.3768,-1.3788,-1.3822,-1.4021,-1.4125,-1.4139,-1.4119,-1.4177,-1.4228,-1.3823,-1.3795,-1.3894,-1.3894,-1.3894,-1.3356,-1.1206,-0.8664,-0.6121,-0.4072,-0.1703,-0.0628,-0.2776,-0.3179,-0.3179,-0.3179,-0.1434,0.0,0.0,0.0,0.0,0.0,0.0,0.0,0.0,0.0,0.0,0.0,0.0,0.0,0.0,0.0,0.0,0.0,0.0,0.0,0.0,0.0,0.0,0.0,0.0,0.0,0.0,0.0,0.0,-0.8213,-0.8377,-0.8547,-0.8431,-0.8696,0.0,-0.858,-0.8601,-0.875,-0.8994,-0.8967,-0.9049,-0.9471,-0.9659,-0.9781,-0.9781,-1.0256,-1.0833,-1.1436,-1.1626,-1.1708,-1.1708,-1.183,-1.1895,-1.1922,-1.2101,-1.1409,-0.9449,-0.8235,-0.8262,-0.992,-0.9905,-1.0668,-1.2456,-1.2393,-1.2386,-1.2501,-1.2501,-1.2501,-1.2501,-1.2501,-1.2501,-1.2501,-1.2501,-1.2501,-1.2508,-1.2562,-1.2556,-1.2508,-1.2596,-1.1669,-1.0144,-1.0373,-1.0522,-1.053,-1.0674,-1.1903,-1.3505,-1.3585,-1.37,-1.3822,-1.4021,-1.4156,-1.4231,-1.4109,-1.4177,-1.3887,-1.1937,-1.1367,-1.1388,-1.1388,-1.1388,-1.1294,-1.0806,-0.7417,-0.4161,-0.3714,-0.1703,-0.0135,-0.0628,-0.0718,-0.0718,-0.0718,-0.0314,0.0,0.0,0.0,0.0,0.0,0.0,0.0,0.0,0.0,0.0,0.0,0.0,0.0,0.0,0.0,0.0,0.0,0.0,0.0,0.0,0.0,0.0,0.0,0.0,0.0,0.0,0.0,0.0,-0.8355,-0.8457,-0.8601,-0.8601,-0.8682,0.0,0.0,-0.8431,-0.8412,-0.8662,-0.8507,-0.8466,-0.8866,-0.8994,-0.9117,-0.9376,-0.9662,-1.0063,-1.0603,-1.1111,-1.1389,-1.1389,-1.1457,-1.1531,-1.1606,-1.1748,-1.1519,-1.0706,-0.8754,-0.8521,-1.0629,-1.0744,-1.1237,-1.2354,-1.2393,-1.2393,-1.2393,-1.2467,-1.2467,-1.24,-1.2467,-1.2501,-1.2501,-1.2501,-1.2501,-1.2508,-1.2583,-1.2569,-1.2508,-1.2583,-1.1985,-1.1075,-1.131,-1.1428,-1.1493,-1.1629,-1.248,-1.3526,-1.3558,-1.368,-1.3808,-1.3933,-1.4061,-1.4156,-1.4,-1.4061,-1.3977,-1.28,-1.2503,-1.2503,-1.2503,-1.161,-1.0407,-0.9197,-0.6168,-0.3268,-0.2061,-0.0852,0.0,0.0,0.0,0.0,0.0,0.0,0.0,0.0,0.0,0.0,0.0,0.0,0.0,0.0,0.0,0.0,0.0,0.0,0.0,0.0,0.0,0.0,0.0,0.0,0.0,0.0,0.0,0.0,0.0,0.0,0.0,0.0,0.0,0.0,-0.8621,-0.8682,-0.8811,-0.8919,-0.8798,-0.8615,0.0,0.0,0.0,-0.837,-0.8182,-0.8088,-0.835,-0.8451,-0.858,-0.8913,-0.9063,-0.9273,-0.9697,-1.0385,-1.0887,-1.0975,-1.0982,-1.1063,-1.124,-1.1402,-1.1613,-1.1948,-1.0361,-1.0162,-1.1939,-1.2135,-1.2216,-1.2244,-1.2332,-1.2332,-1.2244,-1.2359,-1.2372,-1.2291,-1.2406,-1.2474,-1.2501,-1.2501,-1.2501,-1.2469,-1.22,-1.222,-1.2469,-1.22,-1.2305,-1.2706,-1.2901,-1.3091,-1.3234,-1.3342,-1.3478,-1.3587,-1.3578,-1.366,-1.3761,-1.3788,-1.3946,-1.4048,-1.3926,-1.3994,-1.4143,-1.4265,-1.4299,-1.4299,-1.4299,-1.2509,-1.0091,-0.7681,-0.532,-0.2955,-0.0538,0.0,0.0,0.0,0.0,0.0,0.0,0.0,0.0,0.0,0.0,0.0,0.0,0.0,0.0,0.0,0.0,0.0,0.0,0.0,0.0,0.0,0.0,0.0,0.0,0.0,0.0,0.0,0.0,0.0,0.0,0.0,0.0,0.0,0.0,0.0,-0.9435,-0.9629,-0.9724,-0.9281,-0.949,-0.9548,-0.858,0.0,-0.8669,-0.8169,0.0,-0.8002,-0.806,0.0,0.0,-0.8155,-0.8588,-0.8912,-0.8845,-0.9279,-0.9734,-1.0096,-1.0143,-1.0305,-1.0758,-1.0901,-1.1117,-1.1443,-1.1251,-1.1328,-1.1807,-1.1834,-1.1945,-1.2118,-1.1972,-1.1965,-1.2125,-1.2139,-1.2213,-1.2291,-1.2305,-1.2379,-1.2501,-1.2501,-1.2501,-1.2385,-1.0558,-1.0796,-1.2347,-1.0525,-1.0951,-1.2706,-1.2901,-1.3091,-1.3234,-1.3342,-1.341,-1.3444,-1.3538,-1.3599,-1.3632,-1.3754,-1.3946,-1.4112,-1.4048,-1.415,-1.4278,-1.4292,-1.4299,-1.4299,-1.4299,-1.2509,-1.0091,-0.7681,-0.532,-0.2955,-0.0538,0.0,0.0,0.0,0.0,0.0,0.0,0.0,0.0,0.0,0.0,0.0,0.0,0.0,0.0,0.0,0.0,0.0,0.0,0.0,0.0,0.0,0.0,0.0,0.0,0.0,0.0,0.0,0.0,0.0,0.0,0.0,0.0,0.0,0.0,0.0,-0.9639,-0.9731,-0.9825,-0.9605,-0.9537,-0.9401,-0.8927,-0.875,-0.8628,-0.8439,0.0,0.0,0.0,0.0,0.0,0.0,-0.8338,-0.8459,-0.8682,-0.8622,-0.8866,-0.9578,-0.9659,-0.9802,-1.013,-1.0305,-1.0481,-1.0731,-1.0907,-1.1097,-1.1272,-1.1529,-1.1775,-1.1925,-1.1952,-1.1952,-1.1932,-1.2057,-1.2132,-1.2193,-1.225,-1.2366,-1.2501,-1.2501,-1.2501,-1.2463,-1.156,-1.1682,-1.2424,-1.156,-1.1854,-1.2868,-1.2975,-1.3091,-1.3234,-1.3342,-1.3403,-1.3203,-1.1998,-1.155,-1.1358,-1.0196,-0.9836,-0.9937,-1.0,-1.1071,-1.2192,-1.2192,-1.3224,-1.4299,-1.4299,-1.2509,-1.0091,-0.7681,-0.532,-0.2955,-0.0538,0.0,0.0,0.0,0.0,0.0,0.0,0.0,0.0,0.0,0.0,0.0,0.0,0.0,0.0,0.0,0.0,0.0,0.0,0.0,0.0,0.0,0.0,0.0,0.0,0.0,0.0,0.0,0.0,0.0,0.0,0.0,0.0,0.0,0.0,0.0,-0.9897,-0.9958,-0.9994,-0.9832,-0.9578,-0.9315,-0.9104,-0.8873,-0.8689,-0.8648,-0.8547,0.0,0.0,0.0,-0.8196,-0.8423,0.0,-0.8175,-0.8459,-0.8223,-0.8304,-0.9103,-0.9335,-0.9462,-0.968,-0.9731,-0.9903,-1.0134,-1.0276,-1.0461,-1.0772,-1.1178,-1.1482,-1.1665,-1.1857,-1.1884,-1.1739,-1.1884,-1.1996,-1.2036,-1.2155,-1.2031,-1.1619,-1.2211,-1.2185,-1.1637,-1.1637,-1.1953,-1.2463,-1.1921,-1.22,-1.3003,-1.3043,-1.3146,-1.3288,-1.3363,-1.2982,-1.2222,-1.0632,-0.9689,-0.8928,-0.7342,-0.6874,-0.6919,-0.7017,-0.828,-0.9735,-0.9735,-1.0984,-1.2325,-1.2325,-1.1028,-0.9108,-0.67,-0.4829,-0.2955,-0.0538,0.0,0.0,0.0,0.0,0.0,0.0,0.0,0.0,0.0,0.0,0.0,0.0,0.0,0.0,0.0,0.0,0.0,0.0,0.0,0.0,0.0,0.0,0.0,0.0,0.0,0.0,0.0,0.0,0.0,0.0,0.0,0.0,0.0,0.0,0.0,-1.0426,-1.0575,-1.0515,-0.9934,-0.9778,-0.9582,-0.8886,-0.8961,-0.9036,-0.86,-0.8716,-0.8798,-0.8533,-0.8498,0.0,0.0,-0.8294,0.0,0.0,-0.7995,-0.8189,-0.8676,-0.9117,-0.9417,-0.9424,-0.9294,-0.939,-0.9771,-0.9578,-0.9741,-1.0466,-1.0765,-1.107,-1.1396,-1.1552,-1.1597,-1.1626,-1.1597,-1.1665,-1.18,-1.1993,-1.1114,-0.9366,-1.1535,-1.1405,-0.9493,-0.9493,-1.0624,-1.2353,-1.0482,-1.1009,-1.3016,-1.3152,-1.3302,-1.3397,-1.3397,-1.2015,-1.0128,-1.0086,-0.8643,-0.6812,-0.6727,-0.6782,-0.6899,-0.6902,-0.7041,-0.7235,-0.7235,-0.7283,-0.7324,-0.7324,-0.7283,-0.6611,-0.4251,-0.3669,-0.2955,-0.0538,0.0,0.0,0.0,0.0,0.0,0.0,0.0,0.0,0.0,0.0,0.0,0.0,0.0,0.0,0.0,0.0,0.0,0.0,0.0,0.0,0.0,0.0,0.0,0.0,0.0,0.0,0.0,0.0,0.0,0.0,0.0,0.0,0.0,0.0,0.0,-1.0629,-1.0683,-1.0569,-1.0069,-0.9866,-0.968,-0.9158,-0.9186,-0.9206,-0.873,-0.8872,-0.8988,-0.858,-0.8505,0.0,0.0,0.0,-0.824,0.0,-0.7988,-0.7774,-0.7171,-0.8038,-0.8675,-0.8675,-0.8709,-0.8798,-0.8927,-0.9145,-0.9458,-0.9883,-1.0441,-1.0934,-1.1268,-1.1579,-1.1678,-1.1584,-1.1678,-1.1746,-1.1793,-1.1986,-1.1797,-1.1289,-1.2126,-1.2108,-1.145,-1.1543,-1.1927,-1.2476,-1.1874,-1.2179,-1.3009,-1.3057,-1.318,-1.3403,-1.3403,-1.2893,-1.1849,-0.8874,-0.5403,-0.2264,-0.2264,-0.2296,-0.2336,-0.2336,-0.3461,-0.4785,-0.4785,-0.5901,-0.7102,-0.7102,-0.7102,-0.6522,-0.4161,-0.358,-0.2955,-0.0538,0.0,0.0,0.0,0.0,0.0,0.0,0.0,0.0,0.0,0.0,0.0,0.0,0.0,0.0,0.0,0.0,0.0,0.0,0.0,0.0,0.0,0.0,0.0,0.0,0.0,0.0,0.0,0.0,0.0,0.0,0.0,0.0,0.0,0.0,0.0,-1.0636,-1.0644,-1.059,-1.0197,-1.0028,-0.9856,-0.9376,-0.9424,-0.9408,-0.896,-0.909,-0.9172,-0.8886,-0.8696,-0.8533,0.0,0.0,0.0,0.0,-0.7988,-0.7722,-0.6991,-0.7744,-0.7955,-0.7033,-0.7858,-0.8242,-0.7816,-0.8507,-0.9097,-0.9429,-1.0154,-1.0724,-1.1077,-1.1536,-1.178,-1.1775,-1.178,-1.182,-1.1911,-1.205,-1.1797,-1.1213,-1.2081,-1.2108,-1.145,-1.2291,-1.2589,-1.2515,-1.2725,-1.2868,-1.3009,-1.3118,-1.3234,-1.3403,-1.3403,-1.2395,-1.0507,-0.6784,-0.3094,0.0,0.0,0.0,0.0,0.0,-0.107,-0.233,-0.233,-0.3401,-0.4561,-0.4561,-0.4561,-0.4206,-0.2687,-0.233,-0.1882,-0.0314,0.0,0.0,0.0,0.0,0.0,0.0,0.0,0.0,0.0,0.0,0.0,0.0,0.0,0.0,0.0,0.0,0.0,0.0,0.0,0.0,0.0,0.0,0.0,0.0,0.0,0.0,0.0,0.0,0.0,0.0,0.0,0.0,0.0,0.0,0.0]},{"header":{"parameterUnit":"m.s-1","parameterCategory":1,"la1":30.6,"la2":29.2853,"lo1":-89.7004,"lo2":-87.6739,"dy":0.0162,"dx":0.0183,"nx":112,"ny":82,"refTime":"2023-10-02T06:00:00:Z","depth":0,"parameterNumber":3,"parameterNumberName":"V-component_of_WINDS"},"data":[0.0,0.0,0.0,0.0,0.0,0.0,0.0,0.0,0.0,0.0,0.0,0.0,0.0,0.0,0.0,0.0,0.0,0.0,0.0,0.0,0.0,0.0,0.0,0.0,0.0,0.0,0.0,0.0,0.0,0.0,0.0,0.0,0.0,0.0,0.0,0.0,0.0,0.0,0.0,0.0,0.0,0.0,0.0,0.0,0.0,0.0,0.0,0.0,0.0,0.0,0.0,0.0,0.0,0.0,0.0,0.0,0.0,0.0,0.0,0.0,0.0,0.0,0.0,0.0,0.0,0.0,0.0,0.0,0.0,0.0,0.0,0.0,0.0,0.0,0.0,0.0,0.0,0.0,0.0,0.0,0.0,0.0,0.0,0.0,0.0,0.0,0.0,0.0,0.0,0.0,3.213,3.5474,4.0428,4.2598,4.0337,3.9321,3.7102,3.3056,0.0,0.0,0.0,0.0,0.0,0.0,0.0,0.0,0.0,0.0,0.0,0.0,0.0,0.0,0.0,0.0,0.0,0.0,0.0,0.0,0.0,0.0,0.0,0.0,0.0,0.0,0.0,0.0,0.0,0.0,0.0,0.0,0.0,0.0,0.0,0.0,0.0,0.0,0.0,0.0,0.0,0.0,0.0,0.0,0.0,0.0,0.0,0.0,0.0,0.0,0.0,0.0,0.0,0.0,0.0,0.0,0.0,0.0,0.0,0.0,0.0,0.0,0.0,0.0,0.0,0.0,0.0,0.0,0.0,0.0,0.0,0.0,0.0,0.0,0.0,0.0,0.0,0.0,0.0,0.0,0.0,0.0,0.0,0.0,0.0,0.0,0.0,0.0,0.0,0.0,0.0,0.0,0.0,0.0,0.0,0.0,0.0,0.0,0.0,0.0,0.0,0.0,0.0,0.0,3.5565,4.0466,4.3039,4.3556,4.1524,3.8754,3.6155,3.376,0.0,0.0,0.0,0.0,0.0,0.0,0.0,0.0,0.0,0.0,0.0,0.0,0.0,0.0,0.0,0.0,0.0,0.0,0.0,0.0,0.0,0.0,0.0,0.0,0.0,0.0,0.0,0.0,0.0,0.0,0.0,0.0,0.0,0.0,0.0,0.0,0.0,0.0,0.0,0.0,0.0,0.0,0.0,0.0,0.0,0.0,0.0,0.0,0.0,0.0,0.0,0.0,0.0,0.0,0.0,0.0,0.0,0.0,0.0,0.0,0.0,0.0,0.0,0.0,0.0,0.0,0.0,0.0,0.0,0.0,0.0,0.0,0.0,0.0,0.0,0.0,0.0,0.0,0.0,0.0,0.0,0.0,0.0,0.0,0.0,0.0,0.0,0.0,0.0,0.0,0.0,0.0,0.0,0.0,0.0,0.0,0.0,0.0,0.0,0.0,0.0,0.0,0.0,3.5377,3.8033,4.2536,4.4119,4.3964,4.1773,3.8644,3.5938,3.3914,3.1818,0.0,0.0,0.0,0.0,0.0,0.0,0.0,0.0,0.0,0.0,0.0,0.0,0.0,0.0,0.0,0.0,0.0,0.0,0.0,0.0,0.0,0.0,0.0,0.0,0.0,0.0,0.0,0.0,0.0,0.0,0.0,0.0,0.0,0.0,0.0,0.0,0.0,0.0,0.0,0.0,0.0,0.0,0.0,0.0,0.0,0.0,0.0,0.0,0.0,0.0,0.0,0.0,0.0,0.0,0.0,0.0,0.0,0.0,0.0,0.0,0.0,0.0,0.0,0.0,0.0,0.0,0.0,0.0,0.0,0.0,0.0,0.0,0.0,0.0,0.0,0.0,0.0,0.0,0.0,0.0,0.0,0.0,0.0,0.0,0.0,0.0,0.0,0.0,0.0,0.0,0.0,0.0,0.0,0.0,0.0,0.0,0.0,0.0,0.0,0.0,0.0,0.0,3.8884,4.0052,4.3813,4.4575,4.3961,4.1873,3.8315,3.5516,3.3907,3.0503,0.0,0.0,0.0,0.0,0.0,0.0,0.0,0.0,0.0,0.0,0.0,0.0,0.0,0.0,0.0,0.0,0.0,0.0,0.0,0.0,0.0,0.0,0.0,0.0,0.0,0.0,0.0,0.0,0.0,0.0,0.0,0.0,0.0,0.0,0.0,0.0,0.0,0.0,0.0,0.0,0.0,0.0,0.0,0.0,0.0,0.0,0.0,0.0,0.0,0.0,0.0,0.0,0.0,0.0,0.0,0.0,0.0,0.0,0.0,0.0,0.0,0.0,0.0,0.0,0.0,0.0,0.0,0.0,0.0,0.0,0.0,0.0,0.0,0.0,0.0,0.0,0.0,0.0,0.0,0.0,0.0,0.0,0.0,0.0,0.0,0.0,0.0,0.0,0.0,0.0,0.0,0.0,0.0,0.0,0.0,0.0,0.0,0.0,0.0,0.0,0.0,0.0,4.0354,4.1662,4.5107,4.4503,4.3389,4.2183,3.7395,3.4296,3.3834,2.9719,0.0,0.0,0.0,0.0,0.0,0.0,0.0,0.0,0.0,0.0,0.0,0.0,0.0,0.0,0.0,0.0,0.0,0.0,0.0,0.0,0.0,0.0,0.0,0.0,0.0,0.0,0.0,0.0,0.0,0.0,0.0,0.0,0.0,0.0,0.0,0.0,0.0,0.0,0.0,0.0,0.0,0.0,0.0,0.0,0.0,0.0,0.0,0.0,0.0,0.0,0.0,0.0,0.0,0.0,0.0,0.0,0.0,0.0,0.0,0.0,0.0,0.0,0.0,0.0,0.0,0.0,0.0,0.0,0.0,0.0,0.0,0.0,0.0,0.0,0.0,0.0,0.0,0.0,0.0,0.0,0.0,0.0,0.0,0.0,0.0,0.0,0.0,0.0,0.0,0.0,0.0,0.0,0.0,0.0,0.0,0.0,0.0,0.0,0.0,0.0,0.0,0.0,4.0973,4.22,4.4551,4.4031,4.2713,4.0777,3.654,3.3707,3.3079,0.0,0.0,0.0,0.0,0.0,0.0,0.0,0.0,0.0,0.0,0.0,0.0,0.0,0.0,0.0,0.0,0.0,0.0,0.0,0.0,0.0,0.0,0.0,0.0,0.0,0.0,0.0,0.0,0.0,0.0,0.0,0.0,0.0,0.0,0.0,0.0,0.0,0.0,0.0,0.0,0.0,0.0,0.0,0.0,0.0,0.0,0.0,0.0,0.0,0.0,0.0,0.0,0.0,0.0,0.0,0.0,0.0,0.0,0.0,0.0,0.0,0.0,0.0,0.0,0.0,0.0,0.0,0.0,0.0,0.0,0.0,0.0,0.0,0.0,0.0,0.0,0.0,0.0,0.0,0.0,0.0,0.0,0.0,0.0,0.0,0.0,0.0,0.0,0.0,0.0,0.0,0.0,0.0,0.0,0.0,0.0,0.0,0.0,0.0,0.0,0.0,0.0,3.9707,4.0854,4.1984,4.361,4.2867,4.1536,3.9698,3.5423,3.276,3.2589,0.0,0.0,0.0,0.0,0.0,0.0,0.0,0.0,0.0,0.0,0.0,0.0,0.0,0.0,0.0,0.0,0.0,0.0,0.0,0.0,0.0,0.0,0.0,0.0,0.0,0.0,0.0,0.0,0.0,0.0,0.0,0.0,0.0,0.0,0.0,0.0,0.0,0.0,0.0,0.0,0.0,0.0,0.0,0.0,0.0,0.0,0.0,0.0,0.0,0.0,0.0,0.0,0.0,0.0,0.0,0.0,0.0,0.0,0.0,0.0,0.0,0.0,0.0,0.0,0.0,0.0,0.0,0.0,0.0,0.0,0.0,0.0,0.0,0.0,0.0,0.0,0.0,0.0,0.0,0.0,0.0,0.0,0.0,0.0,0.0,0.0,0.0,0.0,0.0,0.0,0.0,0.0,0.0,0.0,0.0,0.0,0.0,0.0,0.0,0.0,0.0,0.0,3.9066,4.0012,4.1046,4.2463,4.1103,3.9861,3.9212,3.3956,3.1234,0.0,0.0,0.0,0.0,0.0,0.0,0.0,0.0,0.0,0.0,0.0,0.0,0.0,0.0,0.0,0.0,0.0,0.0,0.0,0.0,0.0,0.0,0.0,0.0,0.0,0.0,0.0,0.0,0.0,0.0,0.0,0.0,0.0,0.0,0.0,0.0,0.0,0.0,0.0,0.0,0.0,0.0,0.0,0.0,0.0,0.0,0.0,0.0,0.0,0.0,0.0,0.0,0.0,0.0,0.0,0.0,0.0,0.0,0.0,0.0,0.0,0.0,0.0,0.0,0.0,0.0,0.0,0.0,0.0,0.0,0.0,0.0,0.0,0.0,0.0,0.0,0.0,0.0,0.0,0.0,0.0,0.0,0.0,0.0,0.0,0.0,0.0,0.0,0.0,0.0,0.0,0.0,0.0,0.0,0.0,0.0,0.0,0.0,0.0,0.0,0.0,0.0,0.0,4.0634,4.0564,4.0821,4.2443,4.1239,3.9314,3.6808,3.3271,3.1108,3.0913,0.0,0.0,0.0,0.0,0.0,0.0,0.0,0.0,0.0,0.0,0.0,0.0,0.0,0.0,0.0,0.0,0.0,0.0,0.0,0.0,0.0,0.0,0.0,0.0,0.0,0.0,0.0,0.0,0.0,0.0,0.0,0.0,0.0,0.0,0.0,0.0,0.0,0.0,0.0,0.0,0.0,0.0,0.0,0.0,0.0,0.0,0.0,0.0,0.0,0.0,0.0,0.0,0.0,0.0,0.0,0.0,0.0,0.0,0.0,0.0,0.0,0.0,0.0,0.0,0.0,0.0,0.0,0.0,0.0,0.0,0.0,0.0,0.0,0.0,0.0,0.0,0.0,0.0,0.0,0.0,0.0,0.0,0.0,0.0,0.0,0.0,0.0,0.0,0.0,0.0,0.0,0.0,0.0,0.0,0.0,0.0,0.0,0.0,0.0,0.0,0.0,0.0,4.0869,4.0394,4.031,4.1765,4.0248,3.8215,3.5991,3.2514,3.0356,3.021,0.0,0.0,0.0,0.0,0.0,0.0,0.0,0.0,0.0,0.0,0.0,0.0,0.0,0.0,0.0,0.0,0.0,0.0,0.0,0.0,0.0,0.0,0.0,0.0,0.0,0.0,0.0,0.0,0.0,0.0,0.0,0.0,0.0,0.0,0.0,0.0,0.0,0.0,0.0,0.0,0.0,0.0,0.0,0.0,0.0,0.0,0.0,0.0,0.0,0.0,0.0,0.0,0.0,0.0,0.0,0.0,0.0,0.0,0.0,0.0,0.0,0.0,0.0,0.0,0.0,0.0,0.0,0.0,0.0,0.0,0.0,0.0,0.0,0.0,0.0,0.0,0.0,0.0,0.0,0.0,0.0,0.0,0.0,0.0,0.0,0.0,0.0,0.0,0.0,0.0,0.0,0.0,0.0,0.0,0.0,0.0,0.0,0.0,0.0,0.0,0.0,0.0,4.0377,3.9788,3.96,4.0881,3.8826,3.701,3.6257,3.1965,2.9537,3.0063,0.0,0.0,0.0,0.0,0.0,0.0,0.0,0.0,0.0,0.0,0.0,0.0,0.0,0.0,0.0,0.0,0.0,0.0,0.0,0.0,0.0,0.0,0.0,0.0,0.0,0.0,0.0,0.0,0.0,0.0,0.0,0.0,0.0,0.0,0.0,0.0,0.0,0.0,0.0,0.0,0.0,0.0,0.0,0.0,0.0,0.0,0.0,0.0,0.0,0.0,0.0,0.0,0.0,0.0,0.0,0.0,0.0,0.0,0.0,0.0,2.84,2.7486,0.0,0.0,0.0,0.0,0.0,0.0,0.0,0.0,0.0,0.0,0.0,0.0,0.0,0.0,0.0,0.0,0.0,0.0,0.0,0.0,0.0,0.0,0.0,0.0,0.0,0.0,0.0,0.0,0.0,0.0,0.0,0.0,0.0,0.0,0.0,0.0,0.0,0.0,0.0,0.0,4.2043,3.9609,3.8677,4.1553,3.9781,3.7549,3.5459,3.317,3.1115,2.9354,2.729,0.0,0.0,0.0,0.0,0.0,0.0,0.0,0.0,0.0,0.0,0.0,0.0,0.0,0.0,0.0,0.0,0.0,0.0,0.0,0.0,0.0,0.0,0.0,0.0,0.0,0.0,0.0,0.0,0.0,0.0,0.0,0.0,0.0,0.0,0.0,0.0,0.0,0.0,0.0,0.0,0.0,0.0,0.0,0.0,0.0,0.0,0.0,0.0,0.0,0.0,0.0,0.0,0.0,0.0,0.0,0.0,0.0,0.0,0.0,3.2568,3.0507,0.0,0.0,0.0,0.0,0.0,0.0,0.0,0.0,0.0,0.0,0.0,0.0,0.0,0.0,0.0,0.0,0.0,0.0,0.0,0.0,0.0,0.0,0.0,0.0,0.0,0.0,0.0,0.0,0.0,0.0,0.0,0.0,0.0,0.0,0.0,0.0,0.0,0.0,0.0,0.0,4.3111,4.046,3.9158,4.1803,3.9983,3.7772,3.5774,3.3763,3.1745,2.9684,2.8003,0.0,0.0,0.0,0.0,0.0,0.0,0.0,0.0,0.0,0.0,0.0,0.0,0.0,0.0,0.0,0.0,0.0,0.0,0.0,0.0,0.0,0.0,0.0,0.0,0.0,0.0,0.0,0.0,0.0,0.0,0.0,0.0,0.0,0.0,0.0,0.0,0.0,0.0,0.0,0.0,0.0,0.0,0.0,0.0,0.0,0.0,0.0,0.0,0.0,0.0,0.0,0.0,0.0,4.322,4.4078,4.4297,4.5051,4.4742,4.3381,3.8687,3.5576,3.3796,3.2803,0.0,0.0,0.0,0.0,0.0,0.0,0.0,0.0,0.0,0.0,0.0,0.0,0.0,0.0,0.0,0.0,0.0,0.0,0.0,0.0,0.0,0.0,3.8488,3.979,3.9601,3.8284,3.5318,0.0,0.0,0.0,0.0,0.0,0.0,0.0,0.0,0.0,0.0,0.0,4.3376,4.113,3.9945,4.1908,3.994,3.7928,3.6441,3.4277,3.2259,3.0503,2.9287,2.8128,0.0,0.0,0.0,0.0,0.0,0.0,0.0,0.0,0.0,0.0,0.0,0.0,0.0,0.0,0.0,0.0,0.0,0.0,0.0,0.0,0.0,0.0,0.0,0.0,0.0,0.0,0.0,0.0,0.0,0.0,0.0,0.0,2.805,2.885,0.0,0.0,0.0,0.0,0.0,0.0,0.0,0.0,0.0,0.0,0.0,0.0,0.0,4.2155,4.3617,4.5592,4.6625,4.6745,4.9378,5.0305,4.9708,5.0268,4.9985,4.9029,4.8022,0.0,3.8194,3.5283,0.0,0.0,0.0,0.0,0.0,0.0,0.0,0.0,0.0,0.0,0.0,0.0,0.0,0.0,0.0,0.0,0.0,0.0,0.0,0.0,0.0,0.0,4.166,4.0413,3.9862,3.9484,3.8985,3.8345,3.7559,3.6681,3.6486,3.6841,0.0,0.0,0.0,0.0,0.0,0.0,4.1962,4.0219,3.9703,4.1885,4.0221,3.8255,3.6456,3.5305,3.3683,3.139,3.0424,2.9405,2.8229,2.7547,0.0,0.0,0.0,0.0,0.0,0.0,0.0,0.0,0.0,0.0,0.0,0.0,0.0,0.0,0.0,0.0,0.0,0.0,0.0,0.0,0.0,0.0,0.0,0.0,0.0,0.0,0.0,0.0,0.0,3.1189,3.2646,3.1085,3.2394,3.2931,0.0,0.0,0.0,0.0,0.0,0.0,0.0,0.0,0.0,4.4992,4.6756,4.8056,4.8783,5.0106,5.1041,5.154,5.3238,5.4126,5.4285,5.499,5.5092,5.4685,5.4087,5.1421,4.7104,4.1931,3.9061,3.7823,0.0,0.0,0.0,0.0,3.8118,3.8344,3.9302,3.9076,3.834,3.8561,0.0,0.0,0.0,0.0,0.0,0.0,0.0,4.1948,4.1505,4.2849,4.4273,4.3995,4.3848,4.3593,4.3134,4.19,4.0533,3.9351,3.9351,3.9808,4.0528,3.9932,0.0,0.0,0.0,4.1166,4.297,4.1613,4.0907,4.1972,4.0459,3.8718,3.7103,3.6193,3.4871,3.2896,3.1574,3.0155,2.8525,2.854,2.821,0.0,0.0,0.0,0.0,0.0,0.0,0.0,0.0,0.0,0.0,0.0,0.0,0.0,0.0,0.0,0.0,0.0,0.0,0.0,0.0,0.0,0.0,0.0,0.0,0.0,0.0,0.0,0.0,3.5335,3.6517,3.3976,3.6038,3.6881,0.0,0.0,0.0,0.0,0.0,0.0,4.4537,4.6937,4.8908,5.0369,5.2241,5.3505,5.4159,5.439,5.5049,5.6126,5.6472,5.7132,5.7978,5.8627,5.8819,5.8583,5.7929,5.6514,5.4192,4.7877,4.4005,4.1957,4.0936,4.0463,4.0514,4.2013,4.2506,4.2679,4.4189,4.3802,4.2582,4.2359,4.1311,4.0007,3.9246,0.0,0.0,0.0,0.0,4.3838,4.447,4.5436,4.6398,4.7043,4.7197,4.7043,4.6398,4.524,4.3729,4.154,4.1423,4.1819,4.2264,4.101,0.0,4.2451,4.2027,4.2089,4.3778,4.2893,4.2166,4.2214,4.0858,3.9296,3.774,3.6809,3.5679,3.4204,3.2779,3.1266,2.9614,2.9689,2.9109,2.7684,0.0,0.0,0.0,0.0,0.0,0.0,0.0,0.0,0.0,0.0,0.0,0.0,0.0,0.0,0.0,0.0,0.0,0.0,0.0,0.0,0.0,0.0,0.0,0.0,0.0,0.0,0.0,0.0,0.0,3.818,4.0704,0.0,0.0,0.0,0.0,4.4559,4.6293,4.8427,5.1273,5.2331,5.4379,5.7648,5.7088,5.7901,6.0325,5.8819,5.8858,6.0479,5.9704,5.9781,6.0594,6.0666,6.0204,5.9435,5.9396,5.8423,5.6434,5.0993,4.8005,4.67,4.5117,4.4965,4.5628,4.5748,4.6259,4.6788,4.6133,4.5338,4.4783,4.6288,4.6199,4.554,4.5744,4.5344,0.0,0.0,4.5337,4.6491,4.574,4.674,4.8005,4.8043,4.8043,4.8043,4.7966,4.7889,4.6654,4.2556,4.113,4.1095,4.2744,0.0,4.2915,4.3069,4.3658,4.3893,4.3239,4.3085,4.2923,4.2601,4.1531,4.0051,3.8056,3.6927,3.5899,3.5004,3.4167,3.3286,3.2416,3.095,3.012,3.0029,2.7876,0.0,0.0,0.0,0.0,0.0,0.0,0.0,0.0,0.0,0.0,0.0,0.0,0.0,0.0,0.0,0.0,0.0,0.0,0.0,0.0,0.0,0.0,0.0,0.0,0.0,0.0,0.0,0.0,4.3683,4.6146,0.0,4.5055,4.6429,4.8028,4.9391,5.1561,5.3788,5.5923,5.7357,5.8902,6.071,6.0935,6.1473,6.2397,6.1814,6.1814,6.2397,6.2083,6.1858,6.1633,6.1633,6.1172,6.0319,6.0319,5.9665,5.8462,5.6565,5.4215,5.1775,5.0637,5.0375,5.0632,5.0632,5.0818,5.1036,5.0747,5.0052,4.9242,4.8723,4.8023,4.735,4.7432,4.7654,4.7832,4.7645,4.8432,4.9394,4.9586,5.0082,5.0697,5.1236,5.0548,4.9784,4.9784,4.8894,4.7658,4.6158,4.4739,4.4167,4.5351,4.3735,4.262,4.3701,4.3662,4.3624,4.3855,4.3855,4.3777,4.3466,4.2084,4.0721,3.9608,3.7684,3.6347,3.5877,3.4578,3.344,3.2619,3.2039,3.1484,3.0984,2.9633,2.9695,0.0,0.0,0.0,0.0,0.0,0.0,0.0,0.0,0.0,0.0,0.0,0.0,0.0,0.0,0.0,0.0,0.0,0.0,0.0,0.0,0.0,0.0,0.0,0.0,0.0,4.648,4.8992,4.8808,5.1434,5.2502,5.0604,5.2131,5.3703,5.4813,5.6742,5.8588,6.0319,6.1473,6.2474,6.3364,6.3628,6.3891,6.4166,6.3583,6.3468,6.3737,6.3429,6.3006,6.2518,6.2518,6.2056,6.1248,6.1248,6.0748,5.9935,5.9935,5.8627,5.6511,5.5357,5.4928,5.4928,5.4928,5.4928,5.489,5.4587,5.3895,5.2967,5.1587,5.0548,4.9813,4.9813,5.024,5.0664,5.0664,5.1087,5.1664,5.2197,5.2351,5.2467,5.3044,5.2356,5.1553,5.1553,5.0625,4.9736,4.9428,4.7778,4.6624,4.7197,4.5197,4.4081,4.5778,4.4859,4.4355,4.5432,4.509,4.4576,4.4083,4.2908,4.1787,4.0772,3.9026,3.7511,3.6484,3.5315,3.4137,3.3066,3.3286,3.2983,3.2049,3.1352,3.1367,3.2053,0.0,0.0,0.0,0.0,0.0,0.0,0.0,0.0,0.0,0.0,0.0,0.0,0.0,0.0,0.0,0.0,0.0,0.0,0.0,0.0,0.0,0.0,0.0,4.5945,5.0393,5.3548,5.3494,5.6461,5.7852,5.6164,5.7505,5.9193,6.0816,6.1739,6.2933,6.4582,6.4659,6.5044,6.5897,6.507,6.5063,6.5916,6.4243,6.3814,6.4628,6.3775,6.3352,6.3352,6.3352,6.2897,6.2133,6.2133,6.1672,6.0896,6.0896,6.0896,6.0704,5.905,5.8396,5.8352,5.8352,5.8313,5.8165,5.7324,5.6478,5.567,5.4857,5.4049,5.3351,5.3351,5.3351,5.3351,5.3351,5.3351,5.3351,5.3351,5.3351,5.3313,5.3313,5.3274,5.3236,5.3236,5.3236,5.2967,5.2115,4.9966,4.8235,4.8159,4.7466,4.7505,4.9125,4.7244,0.0,4.7851,4.6629,4.5282,4.4509,4.413,4.3255,4.1546,4.0797,3.9364,3.6883,3.6475,3.5567,3.3894,3.4621,3.4511,3.3386,3.2981,3.2358,3.1545,0.0,0.0,0.0,0.0,0.0,0.0,0.0,0.0,0.0,0.0,0.0,0.0,0.0,0.0,0.0,0.0,0.0,0.0,0.0,0.0,0.0,4.8971,5.1415,5.1493,5.4855,5.7992,5.9811,6.1924,6.3044,6.2542,6.2955,6.3414,6.3876,6.4726,6.5421,6.5883,6.5922,6.5995,6.6267,6.5911,6.5807,6.6039,6.5481,6.532,6.5551,6.5282,6.4859,6.4237,6.4237,6.3782,6.2974,6.2974,6.2814,6.2621,6.2621,6.2621,6.2429,6.0781,6.0127,6.005,5.9396,5.8819,5.828,5.805,5.778,5.755,5.7319,5.7088,5.689,5.689,5.689,5.689,5.689,5.689,5.689,5.689,5.6434,5.5978,5.5978,5.5016,5.4126,5.4126,5.3664,5.3121,5.289,5.2274,5.1202,4.9356,4.8355,4.7928,4.8394,4.7355,4.6697,4.7158,4.6283,4.5975,4.6932,4.5883,4.482,4.4138,4.2237,3.9927,3.7184,3.6966,3.6102,3.4185,3.5484,3.5848,3.4976,3.561,3.5665,0.0,0.0,0.0,0.0,0.0,0.0,0.0,0.0,0.0,0.0,0.0,0.0,0.0,0.0,0.0,0.0,0.0,0.0,0.0,0.0,0.0,0.0,5.4015,5.6861,5.8944,6.054,6.2323,6.4488,6.5873,6.6681,6.6681,6.6675,6.6672,6.6672,6.7175,6.7447,6.7447,6.7447,6.7447,6.7447,6.7029,6.6768,6.6768,6.6317,6.6123,6.6123,6.6123,6.5852,6.5354,6.5354,6.489,6.4039,6.4039,6.3845,6.3497,6.3497,6.3497,6.34,0.0,0.0,0.0,0.0,6.0589,5.9896,5.9896,5.9396,5.8819,5.8819,5.8583,5.8313,5.8313,5.8313,5.8313,5.8313,5.8313,5.8313,5.8313,5.7934,5.755,5.755,5.678,5.5972,5.5631,5.517,5.4587,5.3895,5.3741,0.0,5.1318,4.9971,4.9317,4.9659,4.8389,4.7658,4.8394,4.7394,4.6894,4.7543,4.674,4.5767,4.4825,4.3301,0.0,0.0,0.0,3.7687,3.6509,3.7072,0.0,0.0,0.0,3.8096,3.7835,3.8859,0.0,0.0,3.8324,3.931,0.0,0.0,0.0,0.0,0.0,0.0,0.0,0.0,0.0,0.0,0.0,0.0,0.0,0.0,0.0,0.0,5.8906,6.1914,6.6797,6.6663,6.6565,6.7878,6.868,6.9106,6.9106,6.9028,6.8948,6.8986,6.8986,6.8948,6.8948,6.8948,0.0,0.0,0.0,6.7825,6.7708,6.6947,6.6546,6.6546,6.6546,6.6585,6.6662,6.6662,6.6276,6.554,6.554,6.5076,6.4378,6.4378,6.4378,6.4312,6.3631,6.3344,6.3344,6.3344,6.2908,6.2269,6.2153,0.0,0.0,5.9792,5.9265,5.8633,5.8715,5.866,5.8583,5.8583,5.8583,5.8583,5.8583,5.8511,5.8434,5.8434,5.8352,5.8088,5.7324,5.7132,5.667,5.5093,5.478,5.4472,5.351,5.201,5.1202,5.1813,4.9889,4.8933,5.0361,4.9125,4.7889,4.7389,4.7158,0.0,4.4855,4.4264,4.295,4.0463,3.9889,3.9751,3.9945,3.9129,3.9443,4.1039,4.0484,4.0203,4.0224,4.1189,4.2091,4.2957,4.2314,4.2526,0.0,0.0,0.0,0.0,0.0,0.0,0.0,0.0,0.0,0.0,0.0,0.0,0.0,0.0,0.0,6.0195,6.3945,6.7539,7.0586,7.0859,7.0543,7.0188,7.0264,7.0343,7.0343,6.9717,6.9326,6.9366,6.9366,6.9366,6.9326,6.9366,6.9366,6.9326,6.9051,6.8585,6.7881,6.7587,6.7447,6.7447,6.7447,0.0,6.8426,6.8426,6.831,6.8154,6.8154,6.8079,6.7924,6.7924,6.7924,6.7645,6.481,6.3691,6.3691,6.3691,6.3545,6.3221,6.2496,6.2056,6.1737,6.1631,6.1102,6.0582,6.1169,6.0864,0.0,6.0319,6.0319,6.0319,6.0319,5.9781,5.9281,5.9281,5.8775,5.8236,5.8088,5.805,5.7742,5.6709,5.6516,5.6016,5.4511,5.3395,5.2544,5.1962,5.0933,5.0053,4.9707,4.874,4.8586,4.9822,4.8702,4.7735,4.7389,4.6084,4.4178,4.1639,4.0554,4.0609,4.1975,4.0983,4.0945,4.2016,4.2817,4.3284,4.3343,4.4472,4.5507,4.6318,4.5241,4.5599,0.0,0.0,0.0,0.0,0.0,0.0,0.0,0.0,0.0,0.0,0.0,5.2868,5.5928,0.0,6.2383,6.6211,6.8672,7.0859,7.3008,7.3281,7.3125,7.2695,7.2265,7.2187,7.2617,7.2265,7.2031,7.2031,7.2031,7.1836,7.1367,7.1367,7.1172,7.0703,7.0228,6.975,6.9321,6.8786,6.8533,6.8533,6.8572,6.8806,6.9158,6.9197,6.9197,6.9197,6.9197,6.9197,6.9158,6.9197,6.9197,6.8962,6.7287,6.6254,6.5738,6.5738,6.5177,6.4275,6.3856,6.3425,6.3049,6.2986,6.2718,6.2455,6.2757,6.2251,6.153,6.1487,6.1133,6.0787,6.0787,6.0473,6.0165,6.0165,5.9858,5.9435,5.8973,5.8896,5.8665,5.7819,5.7665,5.7242,5.5978,5.5401,5.4511,5.2813,5.2202,5.1625,5.0774,5.0274,5.0005,5.0053,4.9279,4.8394,4.7582,4.5932,4.4244,4.2543,4.1951,4.2236,4.3507,4.3069,4.3443,4.4777,4.5406,4.5911,4.637,4.7457,4.8433,4.9289,4.9178,4.9317,0.0,0.0,0.0,0.0,0.0,0.0,0.0,4.8759,4.9728,5.3997,5.6349,5.8895,6.3007,6.4883,6.7148,7.1328,7.2422,7.3242,7.4648,7.4844,7.4922,7.5078,7.418,7.3828,7.4531,7.4609,7.4609,7.4609,7.4609,7.4297,7.3594,7.3555,7.3164,7.2265,7.1758,7.1289,7.0976,7.043,7.0078,6.9922,6.9961,6.9961,6.9922,6.9961,7.0,7.0,7.0,6.9961,6.9922,6.9961,6.9961,6.9922,6.9922,6.9231,6.8239,6.7925,6.6974,6.5859,6.5509,6.5044,6.4574,6.439,6.4204,6.4082,6.3934,6.3291,6.2513,6.2204,6.1615,6.1059,6.0837,6.0787,6.0787,6.0787,6.0787,6.0594,5.9896,5.9742,5.9511,5.8704,5.8544,5.8204,5.717,5.6983,5.617,5.3818,5.3433,5.3121,5.2274,5.2,5.139,5.0048,4.9586,4.8779,4.7274,4.586,4.4811,4.4156,4.4195,4.453,4.524,4.5388,4.6187,4.7805,4.8,4.8477,4.9308,5.0306,5.1146,5.1851,5.2771,5.2809,3.9267,3.9867,4.1218,4.5417,4.605,4.8126,0.0,5.8624,5.8571,6.2225,6.5,6.6679,6.6484,6.9023,7.1328,7.1914,7.3945,7.5547,7.5742,7.5742,7.6055,7.6836,7.5469,7.4492,7.4609,7.4609,7.4609,7.4609,7.4609,7.457,7.4453,7.4453,7.4062,7.3164,7.3828,7.3437,7.1875,7.2539,7.2461,7.1719,7.1719,7.1719,7.1719,7.1719,7.1719,7.1719,7.1719,7.1719,7.1719,7.1719,7.1719,7.1719,7.1719,7.1171,7.0192,6.8708,6.8416,6.852,6.6961,6.6881,6.7294,6.641,6.5711,6.5186,6.4977,6.4309,6.3421,6.2521,6.2218,6.1935,6.1015,6.0787,6.0787,6.0787,6.0787,6.0781,6.0671,6.0666,6.0396,5.9511,5.9358,5.8858,5.7286,5.6983,5.6401,5.4626,5.4357,5.4049,5.3159,5.239,5.1846,5.1659,5.0279,4.9009,4.8043,4.7894,4.7808,4.7731,4.7822,4.7944,4.8061,4.8072,4.8592,4.9677,5.046,5.1302,5.2224,5.3124,5.3593,5.371,5.4609,5.4961,4.4612,4.565,4.7186,4.9628,5.226,5.582,6.175,6.3352,6.4567,6.8047,7.0469,7.2109,7.2773,7.4062,7.5195,7.5703,7.6289,7.664,7.664,7.5781,7.5078,7.4961,7.3828,7.3867,7.5937,7.6094,7.6094,7.6094,7.6094,7.5898,7.539,7.5351,7.4961,7.4062,7.4414,7.4258,7.3515,7.3867,7.3633,7.2773,7.2773,7.25,7.1992,7.1992,7.1992,7.1992,7.1992,7.1992,7.1992,7.1992,7.1992,7.1992,7.1992,7.1797,7.1328,7.0117,6.9529,6.9208,6.8545,6.8506,6.8619,6.7741,6.7241,6.6897,6.62,6.539,6.4629,6.4088,6.357,6.297,6.2097,6.1779,6.1553,6.1041,6.0872,6.0787,6.0787,6.0787,6.071,6.0319,6.0242,5.9858,5.8665,5.8434,5.805,5.6896,5.5857,5.4895,5.4049,5.3626,5.3236,5.2697,5.1582,5.0726,5.0455,5.0046,4.9834,4.9904,5.0065,5.035,5.0859,5.0934,5.1387,5.2298,5.2689,5.3044,5.3476,5.4336,5.4765,5.4805,5.6172,5.6797,4.8556,5.0206,5.2397,5.4063,5.8214,6.2684,6.5649,6.7884,7.0151,7.3164,7.4805,7.5976,7.6992,7.7187,7.7344,7.7734,7.7461,7.7109,7.6875,7.5351,7.3906,7.3047,7.1953,7.2461,7.5469,7.6211,7.6562,7.6836,7.707,7.6914,7.6289,7.625,7.5859,7.5,7.5195,7.5195,7.4961,7.5195,7.4883,7.4023,7.3789,7.3203,7.2344,7.2109,7.1992,7.1992,7.1992,7.2148,7.2344,7.2344,7.2344,7.2344,7.2344,7.2226,7.1914,7.1289,7.0664,7.0078,6.9883,6.9805,6.9609,6.8789,6.8398,6.8046,6.7283,6.6453,6.5778,6.5565,6.4907,6.4042,6.3178,6.2648,6.2273,6.1877,6.1307,6.0911,6.1147,6.1004,6.0787,6.0787,6.0787,6.0512,5.9665,5.9511,5.9242,5.8429,5.7242,5.6126,5.5285,5.4813,5.4231,5.3412,5.276,5.2406,5.2527,5.2003,5.1732,5.183,5.1984,5.2323,5.2949,5.3044,5.3476,5.4336,5.4375,5.4609,5.5078,5.5703,5.6133,5.6406,5.7656,5.8242,4.9661,5.21,5.5474,5.8836,6.2913,6.7061,7.0678,7.3475,7.5885,7.7889,7.8359,7.8125,7.7344,7.7187,7.6914,7.6094,7.668,7.6914,7.6055,7.4453,7.3008,7.2148,7.0508,7.0195,7.1992,7.3672,7.5039,7.5898,7.6719,7.7187,7.7148,7.7148,7.6758,7.5898,7.668,7.6719,7.5859,7.6719,7.668,7.582,7.4961,7.4101,7.3242,7.2383,7.1992,7.1992,7.1992,7.2461,7.3242,7.3242,7.3242,7.3242,7.3242,7.2734,7.1992,7.1953,7.1953,7.1797,7.0976,7.0664,7.0508,6.9648,6.8828,6.8203,6.8164,6.7539,6.6795,6.6601,6.5957,6.5117,6.4029,6.3166,6.2768,6.3552,6.2323,6.1225,6.2056,6.1502,6.0787,6.0787,6.0787,6.0512,5.9665,5.9511,5.9242,5.8429,5.8236,5.7896,5.7055,5.5627,5.4414,5.3688,5.3548,5.355,5.3555,5.3655,5.37,5.3702,5.3821,5.3945,5.3945,5.3945,5.4375,5.5234,5.5273,5.6094,5.7773,5.7812,5.8242,5.9062,5.914,5.914,5.3803,5.7424,6.1287,6.4833,6.894,7.2888,7.591,7.7397,7.813,7.8239,7.6984,7.5469,7.4023,7.2851,7.2303,7.2985,7.3979,7.4451,7.4039,7.3588,7.2148,6.8984,6.8594,6.8398,6.7812,7.0859,7.3711,7.5742,7.6172,7.6836,7.8008,7.8047,7.8164,7.8398,7.8203,7.793,7.7617,7.7344,7.6758,7.5898,7.5039,7.4453,7.414,7.3242,7.2851,7.2851,7.2851,7.3047,7.3281,7.3281,7.3281,7.3242,7.2656,7.2265,7.1992,7.1992,7.1992,7.1953,7.164,7.1562,7.1406,7.0547,7.0078,6.9765,6.9219,6.8867,6.8476,6.7847,6.7455,6.6906,6.5408,6.4747,6.439,6.4078,6.3398,6.2772,6.2539,6.2213,6.1811,6.1221,6.1143,6.1027,6.0756,6.0678,6.06,6.0333,5.9241,5.8331,5.8026,5.7609,5.7244,5.7022,5.648,5.6162,5.6312,5.5832,5.5826,5.6479,5.6562,5.6601,5.6601,5.7148,5.7305,5.7031,5.7578,5.8164,5.875,5.875,5.8906,5.9219,5.9765,6.0,5.8478,6.2589,6.6525,7.0367,7.3856,7.6808,7.8602,7.8688,7.7992,7.6517,7.4043,7.1503,6.9473,6.7756,6.7315,6.9479,7.038,7.1329,7.2741,7.2241,7.0825,6.8359,6.8007,6.7822,6.7372,7.0108,7.2768,7.4805,7.6133,7.7305,7.8437,7.8789,7.918,7.9687,7.9219,7.8789,7.8515,7.8242,7.75,7.6367,7.5469,7.4883,7.457,7.4023,7.375,7.375,7.375,7.3945,7.4219,7.4219,7.4219,7.418,7.3594,7.3203,7.289,7.2578,7.2461,7.2422,7.2109,7.1797,7.1445,7.0898,7.0508,7.0195,7.0,6.9726,6.9414,6.914,6.8672,6.793,6.6836,6.601,6.5406,6.5172,6.4494,6.3831,6.3634,6.3089,6.2424,6.1834,6.1481,6.1286,6.1286,6.1286,6.1286,6.1286,6.0322,5.9478,5.9164,5.8906,5.8782,5.8858,5.8391,5.81,5.8218,5.7712,5.7684,5.832,5.8359,5.8203,5.789,5.875,5.8789,5.793,5.875,5.9336,5.9648,5.9648,5.9805,6.0117,6.0625,6.0859,6.3551,6.7436,7.1052,7.5168,7.7505,7.8778,7.8679,7.7427,7.5507,7.2851,6.9565,6.639,6.3862,6.216,6.2233,6.5659,6.6368,6.7996,7.2185,7.0742,6.9493,7.0169,6.8872,6.8634,7.046,7.1402,7.2375,7.3396,7.6562,7.8476,7.8633,7.9336,7.9805,7.9844,7.9805,7.9414,7.8633,7.9336,7.8867,7.7265,7.6445,7.5586,7.4726,7.4687,7.4687,7.4687,7.4687,7.5156,7.5898,7.5898,7.5898,7.5898,7.5859,7.5312,7.4414,7.3594,7.3281,7.3125,7.2305,7.1445,7.0781,7.0781,7.0195,6.9687,7.0508,7.0195,6.9687,7.0469,6.9531,6.8281,6.8281,6.6953,6.5898,6.6836,6.5611,6.448,6.5301,6.4021,6.2722,6.2602,6.1938,6.1387,6.1348,6.1309,6.1309,6.1309,6.1415,6.1194,6.0369,5.9557,5.9114,5.9297,5.9297,5.9258,5.9258,5.9219,5.9219,5.9258,5.9258,5.8906,5.8047,5.8867,5.8906,5.8047,5.8867,5.9687,6.0469,6.0469,6.0898,6.1719,6.1719,6.1719,6.7898,7.2245,7.5899,7.8246,7.8705,7.8238,7.7011,7.4082,7.0585,6.6743,6.2812,5.9333,5.6762,5.6982,5.8793,6.2703,6.6122,6.9268,7.2104,7.3168,7.3023,7.1318,7.1866,7.2316,7.2163,7.4045,7.5395,7.5672,7.6848,7.8359,8.0273,8.0547,8.0976,8.1601,8.1015,8.0586,8.0351,7.9922,7.918,7.8164,7.793,7.7383,7.6523,7.5859,7.5586,7.5586,7.5586,7.5703,7.5898,7.5898,7.5898,7.5859,7.5195,7.4414,7.3594,7.3398,7.289,7.2305,7.207,7.1836,7.168,7.168,7.1523,7.1367,7.1601,7.1523,7.125,7.082,6.9961,6.918,6.918,6.789,6.6953,6.8476,6.7499,6.6246,6.6481,6.5617,6.4634,6.397,6.3149,6.2368,6.1703,6.1586,6.1586,6.1586,6.1633,6.1512,6.1197,6.1075,6.1014,6.1055,6.0469,6.0078,6.0078,5.9531,5.9453,6.0078,6.0078,6.0,5.9765,6.0586,6.0664,5.9765,6.0625,6.1172,6.1367,6.1367,6.1484,6.1719,6.1719,6.1719,7.2514,7.6015,7.8631,7.9592,7.864,7.6796,7.3903,7.0102,6.5624,6.0152,5.6315,5.3281,5.1102,5.1783,5.4239,5.9186,6.3327,6.7392,7.1692,7.3563,7.439,7.4038,7.4862,7.5302,7.4901,7.6477,7.7697,7.8186,7.8546,7.936,8.0805,8.1326,8.1797,8.2265,8.1836,8.1562,8.1562,8.0312,7.9687,7.9609,7.8867,7.8242,7.7734,7.6875,7.6484,7.6484,7.6484,7.6484,7.6484,7.6484,7.6484,7.6406,7.5937,7.543,7.4961,7.457,7.3906,7.3086,7.2695,7.2305,7.1992,7.1992,7.1992,7.1992,7.1992,7.1992,7.1914,7.1406,7.0664,7.0039,7.0039,6.9023,6.8242,6.9258,6.8476,6.7461,6.7461,6.6484,6.5351,6.4453,6.3906,6.3281,6.2422,6.2265,6.2148,6.1758,6.1719,6.1678,6.1586,6.1637,6.1719,6.1719,6.125,6.0976,6.0976,6.0547,6.0508,6.0937,6.0976,6.0781,6.043,6.125,6.1289,6.043,6.125,6.1719,6.1719,6.1719,6.1719,6.1719,6.1719,6.1719,7.6746,7.8707,7.9777,7.9662,7.7607,7.4435,7.0009,6.5583,6.0558,5.4043,5.0611,4.8349,4.6975,4.7466,5.0087,5.617,5.994,6.4557,7.1559,7.3168,7.4661,7.7323,7.763,7.7761,7.8055,7.8698,7.9504,8.0405,8.0685,8.0817,8.0833,8.1692,8.2221,8.2221,8.2263,8.2264,8.2264,8.0781,8.0351,8.0976,7.9531,7.8789,7.8633,7.7773,7.7383,7.7383,7.7265,7.7187,7.7187,7.7187,7.7187,7.7187,7.7187,7.7148,7.6953,7.6172,7.5351,7.4492,7.3594,7.2812,7.2148,7.2031,7.1992,7.1992,7.1992,7.1992,7.1992,7.1992,7.1367,7.0742,7.0859,7.0156,6.9453,6.9765,6.9062,6.8398,6.8515,6.7187,6.5664,6.4648,6.4453,6.4219,6.332,6.3086,6.2734,6.1992,6.1758,6.1719,6.1719,6.1719,6.1719,6.1719,6.1719,6.1719,6.1719,6.1719,6.1719,6.1719,6.1719,6.1367,6.0586,6.1289,6.1328,6.0586,6.1328,6.1719,6.1719,6.1719,6.1719,6.1719,6.1719,6.1719,7.8631,7.9585,7.9631,7.8907,7.5264,7.0709,6.6449,6.065,5.5006,5.0904,4.7567,4.5433,4.5774,4.7086,5.0274,5.7011,6.0325,6.4942,7.3129,7.4392,7.57,7.8969,7.9361,7.9654,8.0414,8.0614,8.0798,8.094,8.1157,8.1344,8.153,8.1685,8.1783,8.1783,8.1973,8.2056,8.2056,8.1908,8.1562,8.1015,8.0703,8.0195,7.9453,7.8633,7.8281,7.8242,7.75,7.7187,7.7187,7.7187,7.7187,7.7187,7.7187,7.6758,7.6094,7.5976,7.5351,7.4492,7.3594,7.3203,7.2969,7.2226,7.1992,7.1992,7.1992,7.1992,7.1992,7.1992,7.1367,7.0859,7.1601,7.0586,6.9765,7.1211,7.0351,6.9375,7.0117,6.8945,6.7265,6.5664,6.5351,6.5117,6.4219,6.3476,6.2969,6.2812,6.2148,6.1719,6.1719,6.1719,6.1719,6.1719,6.1719,6.1719,6.1719,6.1719,6.1719,6.1719,6.1719,6.164,6.1484,6.1601,6.164,6.1484,6.1601,6.1719,6.1719,6.1719,6.1719,6.1719,6.1719,6.1719,7.9361,8.0131,8.0054,7.833,7.4053,6.8821,6.3205,5.7129,5.1505,4.7658,4.4922,4.3474,4.4211,4.609,4.9011,5.3608,5.7203,6.2243,7.0276,7.2161,7.4476,7.9238,8.0208,8.0823,8.1631,8.1708,8.19,8.237,8.2507,8.2264,8.1563,8.1623,8.1684,8.1684,8.1773,8.1852,8.1852,8.1958,8.1817,8.1502,8.1072,8.0694,8.0351,7.9492,7.9101,7.9101,7.8672,7.8515,7.8476,7.8047,7.789,7.7812,7.7383,7.6953,7.6562,7.6562,7.6015,7.5156,7.4297,7.3672,7.3164,7.2265,7.1992,7.1992,7.1992,7.1992,7.1992,7.1992,7.2031,7.2031,7.1992,7.1719,7.1523,7.1914,7.1015,7.0078,7.0039,6.9062,6.7969,6.7109,6.6601,6.6015,6.5117,6.4648,6.4219,6.375,6.332,6.3047,6.3047,6.2656,6.2187,6.1758,6.1719,6.1719,6.1719,6.1719,6.1719,6.1719,6.1719,6.1719,6.1719,6.1719,6.1719,6.1719,6.1719,6.1719,6.1719,6.1719,6.1914,6.2383,6.2383,6.2383,7.9246,8.0169,8.0208,7.7676,7.2937,6.7128,6.0473,5.4318,4.8871,4.5038,4.2946,4.2101,4.3022,4.4715,4.7001,5.0163,5.3626,5.8775,6.6968,6.9744,7.3053,7.8823,8.0477,8.14,8.2208,8.2477,8.2947,8.3832,8.387,8.3194,8.1678,8.1574,8.1572,8.1572,8.1627,8.1653,8.1653,8.166,8.1799,8.1916,8.1275,8.1052,8.1207,8.0351,7.9961,7.9961,7.9765,7.9687,7.9648,7.8828,7.8515,7.8398,7.7539,7.7187,7.7187,7.7187,7.6758,7.6055,7.5195,7.4414,7.3672,7.2617,7.2148,7.1992,7.1992,7.1992,7.2031,7.2226,7.2773,7.3125,7.2461,7.2773,7.3086,7.2226,7.1484,7.0742,6.9883,6.918,6.8672,6.8515,6.793,6.7187,6.6328,6.6015,6.5586,6.4726,6.4414,6.4297,6.4297,6.3711,6.3008,6.2344,6.2109,6.1914,6.1719,6.1875,6.1914,6.1719,6.1719,6.1719,6.1719,6.1719,6.1797,6.1953,6.1797,6.1875,6.2265,6.207,6.2422,6.3281,6.3281,6.3281,7.8176,7.9246,7.9315,7.6746,7.1129,6.4666,5.8621,5.2119,4.6591,4.3863,4.2051,4.1403,4.2929,4.2782,4.4267,4.9817,5.1625,5.5852,6.582,6.9321,7.2822,7.7984,8.0092,8.14,8.2208,8.3024,8.3824,8.4709,8.4786,8.4032,8.2301,8.1531,8.1168,8.1168,8.1336,8.1414,8.1414,8.1623,8.1692,8.1714,8.1824,8.1879,8.189,8.1204,8.0898,8.0859,8.0039,7.9687,7.9648,7.8828,7.8515,7.8398,7.7539,7.7187,7.7187,7.7187,7.7148,7.6953,7.6094,7.5742,7.539,7.3711,7.2656,7.1992,7.1992,7.1992,7.2187,7.2969,7.3242,7.3281,7.3203,7.3242,7.3086,7.2226,7.1953,7.164,7.0781,7.0508,7.0234,6.9531,6.9336,6.8984,6.8125,6.7305,6.6484,6.5625,6.4805,6.4297,6.4297,6.4219,6.414,6.4062,6.3359,6.2578,6.1758,6.2422,6.2539,6.1758,6.1719,6.1719,6.1719,6.1719,6.207,6.2851,6.2109,6.2461,6.4062,6.3281,6.332,6.418,6.418,6.418,7.5322,7.7592,7.8515,7.6515,7.0514,6.3705,5.8236,5.1425,4.5708,4.3644,4.1939,4.1133,4.2285,4.2211,4.3075,4.6313,4.7124,5.0164,5.8357,6.1248,6.5365,7.3014,7.6361,7.9554,8.3478,8.4632,8.567,8.7094,8.6709,8.5863,8.4632,8.2824,8.1593,8.1131,8.1174,8.1214,8.1214,8.1279,8.1407,8.1509,8.1707,8.1881,8.1994,8.1867,8.1797,8.1758,8.1406,8.0894,8.0247,7.9389,7.8764,7.8216,7.7356,7.71,7.7187,7.7187,7.7187,7.707,7.6211,7.5898,7.5703,7.4492,7.3867,7.3476,7.293,7.2422,7.2305,7.3672,7.4062,7.4062,7.4062,7.3672,7.3086,7.2226,7.1992,7.1914,7.1562,7.1055,7.0625,7.0273,6.9805,6.9336,6.8984,6.8242,6.7578,6.7226,6.6406,6.5859,6.5859,6.539,6.5078,6.5078,6.4297,6.3633,6.3281,6.3594,6.3633,6.3281,6.3242,6.3242,6.3242,6.3242,6.3437,6.3789,6.3437,6.3594,6.4297,6.3945,6.4219,6.5078,6.5078,6.5078,7.1738,7.4899,7.6592,7.4938,6.8936,6.2127,5.7044,5.042,4.4801,4.2863,4.1562,4.0937,4.1507,4.1633,4.2186,4.4003,4.4513,4.7052,5.3895,5.6516,6.0633,6.8475,7.2206,7.6489,8.2545,8.5676,8.7943,8.9408,8.8482,8.7534,8.6725,8.4259,8.2417,8.1485,8.1208,8.1093,8.1093,8.1093,8.1217,8.1413,8.1614,8.1822,8.1994,8.2219,8.2304,8.2304,8.2031,8.1435,8.0634,7.9567,7.8742,7.8134,7.7298,7.7096,7.7187,7.7187,7.7187,7.7109,7.6484,7.6289,7.6133,7.5273,7.4961,7.4883,7.4258,7.3476,7.3008,7.4258,7.4609,7.4648,7.4922,7.4336,7.3476,7.2578,7.2383,7.2383,7.2383,7.1914,7.1484,7.1484,7.0976,7.039,6.9883,6.9297,6.8867,6.8633,6.7851,6.7265,6.7265,6.6523,6.5976,6.5976,6.5664,6.5156,6.4375,6.4531,6.457,6.4336,6.4297,6.4297,6.4297,6.4297,6.4414,6.4687,6.4414,6.4531,6.5078,6.4805,6.5117,6.5976,6.5976,6.6133,6.7545,7.0968,7.3122,7.1398,6.5859,5.9511,5.4395,4.8625,4.3647,4.1206,4.07,4.07,4.0697,4.0697,4.1493,4.3926,4.5013,4.7937,5.4747,5.7857,6.1089,6.5442,6.8205,7.2187,7.8347,8.5813,9.0585,9.1424,8.9914,8.8705,8.8131,8.5606,8.3589,8.2317,8.1516,8.1093,8.1093,8.1093,8.1217,8.1413,8.1614,8.1822,8.1994,8.2219,8.2304,8.2265,8.1406,8.0888,8.06,7.9096,7.8386,7.8139,7.7455,7.7187,7.7187,7.7187,7.7187,7.7187,7.7187,7.7187,7.7031,7.6172,7.5898,7.5898,7.5898,7.5273,7.457,7.4609,7.4609,7.4805,7.5664,7.5234,7.4375,7.3476,7.3281,7.3281,7.3281,7.3281,7.3281,7.3281,7.3281,7.2695,7.0976,7.0664,7.039,6.9609,6.875,6.8203,6.8203,6.7422,6.6875,6.6875,6.7656,6.7109,6.4531,6.5078,6.5234,6.4336,6.4297,6.4297,6.4297,6.4297,6.4726,6.5586,6.4726,6.5156,6.6875,6.6015,6.6015,6.6875,6.6875,6.7344,6.0583,6.3128,6.4551,6.3397,5.9319,5.4587,5.062,4.6471,4.2913,4.0976,4.0566,4.0566,4.0566,4.0566,4.1774,4.5479,4.6317,4.8048,5.2467,5.7319,6.1973,6.6211,7.563,8.3077,8.6364,8.9398,9.1244,9.1469,9.063,8.9766,8.8957,8.6462,8.4375,8.2828,8.1964,8.1494,8.1494,8.1494,8.1539,8.1618,8.1822,8.1955,8.1994,8.2219,8.2304,8.2265,8.1367,8.0537,7.9738,7.8709,7.7923,7.7275,7.7068,7.7097,7.7187,7.7187,7.7187,7.7187,7.7187,7.7187,7.7148,7.6875,7.6797,7.6797,7.6797,7.5742,7.4609,7.4609,7.5039,7.539,7.5078,7.5234,7.5273,7.4414,7.418,7.418,7.418,7.418,7.4023,7.3437,7.3281,7.293,7.1797,7.1094,7.0625,7.0351,6.957,6.9023,6.9023,6.8789,6.8594,6.8594,6.8867,6.8203,6.625,6.6875,6.6992,6.6133,6.6094,6.6094,6.6094,6.6094,6.6211,6.6484,6.6797,6.7226,6.7773,6.8125,6.8398,6.8672,6.8633,6.875,5.4339,5.6665,5.778,5.728,5.4159,5.0543,4.7778,4.4816,4.22,4.0781,4.0516,4.0516,4.0516,4.0516,4.1589,4.4932,4.6009,4.7697,5.1385,5.6742,6.2358,6.7859,7.836,8.5579,8.6721,8.9397,9.0946,9.0679,9.0033,8.9333,8.8649,8.6509,8.4639,8.3282,8.2231,8.1684,8.1684,8.1684,8.1721,8.1828,8.1958,8.2049,8.2119,8.2224,8.2304,8.2226,8.1015,8.0107,0.0,7.8245,7.7457,7.6924,7.6994,7.71,7.7187,7.7187,7.7187,7.7187,7.7187,7.7187,7.7187,7.7187,7.7187,7.7187,7.7187,7.6211,7.5156,7.5508,7.5742,7.5859,7.5625,7.5976,7.6172,7.5312,7.5078,7.5078,7.5078,7.5078,7.4844,7.3945,7.3789,7.3398,7.2226,7.1562,7.1172,7.1172,7.0469,6.9883,6.9883,6.9648,6.9453,6.9453,6.9726,6.9336,6.7969,6.8359,6.832,6.7461,6.7383,6.7383,6.7383,6.7383,6.7539,6.7851,6.8398,6.8672,6.8672,6.9219,6.9492,6.9492,6.9414,6.957,0.0,5.1217,5.2467,5.239,5.0043,4.7317,4.5629,4.3431,0.0,4.0666,4.0516,4.0554,4.0746,4.0669,4.1243,4.3316,4.5013,4.7475,5.1582,5.6967,6.3294,7.0907,7.7845,8.1916,8.1678,8.689,9.0024,8.9345,8.849,8.7843,8.742,8.5742,8.4453,8.3633,8.2389,8.1725,8.1725,8.1725,8.1847,8.2001,8.2001,8.212,8.2304,8.2304,8.2304,8.2187,8.0469,7.96,7.9319,7.7807,7.7099,7.6936,7.7144,7.7187,7.7187,7.7187,7.7187,7.7187,7.7187,7.7187,7.7187,7.7187,7.7187,7.7187,7.7187,7.6601,7.6055,7.6875,7.6523,7.6094,7.6914,7.7148,7.6992,7.6172,7.5976,7.5976,7.5976,7.5976,7.5742,7.4844,7.4687,7.414,7.2461,7.2187,7.2187,7.2187,7.1484,7.0976,7.0976,7.0273,6.9805,6.9844,7.043,7.0508,6.9726,6.9609,6.9219,6.8359,6.8281,6.8281,6.8281,6.8281,6.8633,6.9375,6.9531,6.9609,6.9687,6.9609,6.9609,6.9687,6.9609,7.0039,4.2762,0.0,4.5316,4.4658,4.4389,4.3816,0.0,4.1739,4.1542,4.0666,4.0516,4.1093,4.3051,4.2354,4.3124,4.8091,4.9779,5.1467,5.4395,6.3698,7.2874,7.9995,8.5,8.7681,8.717,8.9043,8.9971,8.912,8.8001,8.7048,8.6321,8.4759,8.3828,8.3594,8.2649,8.2171,8.2171,8.2171,8.2176,8.2222,8.2222,8.2264,8.2304,8.2304,8.2304,8.2187,8.0469,7.9687,7.9489,7.7851,7.7187,7.7145,7.7187,7.7187,7.7187,7.7187,7.7187,7.7187,7.7187,7.7187,7.7187,7.7187,7.7187,7.7187,7.7187,7.6601,7.5937,7.6133,7.6055,7.5937,7.6133,7.6719,7.7148,7.6953,7.6875,7.6875,7.6875,7.6875,7.664,7.5742,7.5586,7.5234,7.418,7.3984,7.3984,7.3984,7.3828,7.3672,7.3672,7.293,7.2656,7.332,7.2383,7.1875,7.2344,7.1172,7.0078,6.9258,6.918,6.918,6.9101,6.918,6.9258,6.9414,7.0078,7.0742,7.1406,7.1406,7.1406,7.1406,7.1406,7.1484,4.0798,4.1924,4.3046,4.2528,4.3047,4.3316,4.1974,4.1739,4.1542,4.0666,4.0516,4.105,4.2816,4.2739,4.397,4.874,5.0851,5.4159,6.0627,6.8776,7.6486,8.2996,8.6709,8.8609,8.8311,8.9067,8.8907,8.7371,8.6622,8.5796,8.4761,8.3911,8.3312,8.3008,8.2539,8.2304,8.2304,8.2304,8.2304,8.2304,8.2304,8.2304,8.2304,8.2304,8.2304,8.2187,8.0469,7.9687,7.957,7.789,7.7187,7.7187,7.7187,7.7187,7.7187,7.7187,7.7187,7.7187,7.7187,7.7187,7.7187,7.7187,7.7187,7.7187,7.7187,7.6793,7.6394,7.6484,7.6484,7.6484,7.6484,7.6836,7.7187,7.7187,7.7187,7.7187,7.7187,7.7187,7.6953,7.6055,7.5898,7.5625,7.4765,7.4609,7.4609,7.4609,7.4609,7.4609,7.4609,7.418,7.4062,7.4531,7.3398,7.2773,7.3242,7.207,7.0937,7.0117,7.0039,7.0039,7.0,7.0039,7.0234,7.0586,7.1055,7.1523,7.1992,7.1992,7.1992,7.1992,7.1992,7.1992,4.1265,4.2646,4.3782,4.2907,4.3508,4.4047,4.3124,4.2427,4.1773,4.105,4.0977,4.1435,4.2543,4.3466,4.5201,4.8702,5.1851,5.7506,6.8084,7.3084,7.7707,8.3131,8.6286,8.7863,8.7632,8.8256,8.7826,8.5681,8.521,8.449,8.3251,8.3128,8.2796,8.2263,8.2264,8.2265,8.2304,8.2304,8.2304,8.2304,8.2304,8.2304,8.2304,8.2304,8.2226,8.1992,8.039,7.9648,7.9414,7.7851,7.7187,7.7187,7.7187,7.7187,7.7187,7.7187,7.7187,7.7187,7.7187,7.7187,7.7147,7.7147,7.7145,7.7142,7.7258,7.7189,7.7067,7.7249,7.718,7.7103,7.7103,7.7145,7.7147,7.7147,7.7187,7.7187,7.7187,7.7187,7.7031,7.6406,7.6172,7.5898,7.5312,7.5078,7.5,7.5,7.5,7.5,7.5,7.4883,7.4844,7.4961,7.4101,7.3555,7.3672,7.289,7.207,7.1328,7.1172,7.1172,7.1289,7.1055,7.1328,7.2187,7.207,7.1992,7.1992,7.1992,7.1992,7.1992,7.1992,7.1992,4.3386,4.5689,4.6439,4.2025,4.2628,4.3893,4.235,4.2466,4.2854,4.2739,4.3239,4.4432,4.6697,4.7855,4.9779,5.3857,5.9088,6.5513,7.3668,7.79,8.1246,8.4324,8.8209,9.0056,8.8641,8.8641,8.8243,8.7154,8.5214,8.3683,8.2776,8.2215,8.1966,8.2049,8.2053,8.2122,8.2304,8.2304,8.2304,8.2304,8.2304,8.2304,8.2304,8.2304,8.1914,8.1133,8.0156,7.9297,7.8594,7.7617,7.7187,7.7187,7.7187,7.7187,7.7187,7.7187,7.7187,7.7187,7.7187,7.7099,7.6939,7.6941,7.6843,7.6819,7.7517,7.7693,7.7676,7.7702,7.7209,7.6705,7.6705,7.6836,7.6941,7.6939,7.7097,7.7187,7.7187,7.7187,7.7383,7.7969,7.75,7.7187,7.7812,7.7305,7.6797,7.6797,7.6797,7.6797,7.6797,7.6172,7.5976,7.6719,7.5351,7.4687,7.543,7.4687,7.414,7.4023,7.332,7.3242,7.3984,7.2578,7.2226,7.3086,7.2383,7.1992,7.1992,7.1992,7.1992,7.1992,7.1992,7.1992,4.2279,4.4257,4.5665,4.373,4.5855,4.7735,4.5158,4.485,4.5274,4.5701,4.6086,4.7124,4.9697,5.1972,5.5324,6.0941,6.6128,7.0937,7.5361,7.8554,8.167,8.5124,8.7248,8.8517,8.8679,8.8256,8.7256,8.5478,8.4342,8.3216,8.2015,8.1695,8.1645,8.184,8.1382,8.1216,8.1422,8.0955,8.1241,8.2304,8.2304,8.2304,8.2304,8.2304,8.1836,8.0937,7.9951,7.9082,7.8259,7.7281,7.6868,7.6874,7.6998,7.7049,7.7052,7.7147,7.75,7.789,7.7759,7.7924,7.8232,7.8124,7.8046,7.8033,7.8519,7.8602,7.8407,7.7983,7.7555,7.7162,7.6699,7.6752,7.6882,7.6917,7.7053,7.7187,7.7187,7.7578,7.8008,7.8437,7.8515,7.8672,7.9062,7.8828,7.8555,7.8555,7.8555,7.8398,7.7969,7.7539,7.7265,7.7226,7.6055,7.5469,7.5859,7.5117,7.4609,7.4609,7.4219,7.3984,7.3906,7.3125,7.2656,7.2617,7.2187,7.1992,7.1992,7.1992,7.1992,7.1992,7.1992,7.1992,4.2193,4.362,4.5355,4.6013,4.8317,5.012,4.8966,4.8235,4.8312,5.012,5.0505,5.1082,5.3044,5.6665,6.1248,6.7058,7.1937,7.5546,7.7246,7.9669,8.2546,8.6017,8.6594,8.7209,8.8564,8.7709,8.6286,8.4332,8.364,8.2809,8.1665,8.1446,8.1403,8.1636,8.0794,8.0447,8.07,7.9849,8.0165,8.1679,8.1914,8.1992,8.1992,8.2226,8.1719,8.0664,7.9824,7.8904,7.7884,7.7061,7.6744,7.6755,7.6926,7.7106,7.7306,7.7458,7.8047,7.8749,7.8505,7.8807,7.931,7.9093,7.9023,7.9095,7.9442,7.9501,7.9271,7.8652,7.8454,7.8116,7.6808,7.6624,7.6843,7.6841,7.7161,7.75,7.75,7.8164,7.8828,7.9062,7.9414,7.9765,7.9961,7.9844,7.9687,7.9687,7.9687,7.9492,7.8867,7.8789,7.8437,7.7617,7.6914,7.6445,7.6211,7.5586,7.5195,7.5195,7.4844,7.4492,7.4219,7.3633,7.3086,7.2617,7.2226,7.1992,7.1992,7.1992,7.1992,7.1992,7.1992,7.1992,4.5847,4.7134,4.7851,4.7889,4.6971,4.7437,5.2741,5.213,5.1784,5.6588,5.7582,5.7621,5.7813,6.2512,6.7327,7.0167,7.5515,7.9939,8.1593,8.4055,8.6055,8.7171,8.8017,8.8564,8.8679,8.7171,8.6132,8.594,8.3747,8.2339,8.2255,8.1524,8.1207,8.143,8.0595,8.0297,8.0698,7.9849,7.958,7.9883,8.0703,8.1094,8.1133,8.1914,8.1367,7.9805,7.9726,7.8749,7.7265,7.7186,7.7147,7.7147,7.7187,7.7656,7.8398,7.8398,7.8906,7.9569,7.9366,7.9221,7.91,7.8887,7.884,7.8973,7.9803,8.0169,8.029,8.0252,8.0213,7.9576,7.6784,7.6338,7.6604,7.6604,7.7552,7.8398,7.8398,7.9023,7.9844,8.0664,8.0195,7.9961,8.0781,8.0234,7.9687,7.9687,7.9687,7.9687,7.9609,7.9609,7.9297,7.8476,7.8359,7.8008,7.7187,7.7031,7.6992,7.6992,7.5508,7.5312,7.6836,7.4609,7.3633,7.4414,7.2812,7.1992,7.1992,7.1992,7.1992,7.1992,7.1992,7.1992,4.3756,4.5851,4.8235,4.8779,4.9625,5.1048,5.3857,5.5357,5.7473,6.2089,6.3858,6.4891,6.5936,6.7975,7.0475,7.3553,7.7746,8.1208,8.2862,8.4401,8.5863,8.7248,8.7209,8.7094,8.7094,8.6017,8.4901,8.3824,8.2824,8.2093,8.1593,8.1285,8.0892,8.0421,7.9548,7.9001,7.8755,7.7912,7.7588,7.7781,7.9988,8.1015,8.1015,8.1914,8.1367,7.9687,7.9556,7.8566,7.6999,7.6868,7.6841,7.6847,7.6948,7.7607,7.8515,7.8515,7.9252,8.0271,8.0082,8.0256,8.0508,8.0434,8.0439,8.0512,8.1096,8.1334,8.1262,8.0722,8.0605,8.0207,7.8451,7.7777,7.7714,7.8223,7.8406,7.8633,7.914,7.9922,8.0625,8.0937,8.1172,8.1406,8.1758,8.1523,8.1328,8.1328,8.1328,8.1133,8.0586,8.0508,8.0195,7.9336,7.8789,7.8359,7.8047,7.75,7.7187,7.7187,7.6562,7.6289,7.6406,7.543,7.457,7.3828,7.3125,7.2539,7.1992,7.1992,7.1992,7.1992,7.1992,7.1992,4.3316,4.5124,4.7663,4.9048,5.151,5.4395,5.7396,5.9665,6.2627,6.7975,6.936,6.9937,7.1091,7.1552,7.2668,7.5515,7.9092,8.1977,8.3409,8.4362,8.544,8.6824,8.6478,8.6017,8.5747,8.4978,8.3862,8.2401,8.2054,8.167,8.1131,8.1093,8.0708,7.9815,7.8938,7.8202,7.76,7.6754,7.6395,7.6625,7.8942,8.0059,8.0149,8.1009,8.0622,7.9297,7.9162,7.8325,7.6993,7.6852,7.6934,7.7217,7.7368,7.8143,7.9172,7.9172,7.9956,8.0976,8.0792,8.1028,8.1407,8.1407,8.1436,8.1558,8.1889,8.2051,8.1956,8.1373,8.1217,8.105,8.0358,7.9392,7.8718,7.9266,7.9359,7.9453,8.0,8.0781,8.1406,8.1406,8.1875,8.2304,8.2304,8.2304,8.2304,8.2304,8.2304,8.207,8.1484,8.1406,8.1094,8.0195,7.9375,7.8867,7.8867,7.8086,7.7617,7.7617,7.7344,7.6914,7.6328,7.6055,7.5195,7.375,7.3437,7.2851,7.1992,7.1992,7.1992,7.1992,7.1992,7.1992,4.5594,4.5594,4.6244,4.8783,5.201,5.6549,6.4211,6.5282,6.6859,7.4476,7.4014,7.2252,7.2252,7.2937,7.4084,7.5745,7.9554,8.2593,8.3486,8.4324,8.5201,8.5978,8.6094,8.5747,8.497,8.4093,8.3216,8.2362,8.1554,8.1093,8.1093,8.1093,8.0669,7.9815,7.8938,7.8195,7.7595,7.6715,7.6395,7.6618,7.7477,7.8006,7.821,7.9028,7.9071,7.8515,7.8515,7.8008,7.7187,7.7187,7.7695,7.8515,7.8515,7.9399,8.07,8.07,8.1126,8.1652,8.1475,8.1407,8.1407,8.1413,8.1529,8.1721,8.1958,8.2127,8.2304,8.2304,8.2304,8.2304,8.2304,8.0882,7.9426,7.9426,8.0219,8.1015,8.1015,8.1679,8.2304,8.2304,8.2304,8.2304,8.2304,8.2304,8.2304,8.2304,8.2304,8.2304,8.2304,8.2304,8.1953,8.1094,8.0234,7.9726,7.9726,7.8984,7.8515,7.8515,7.7695,7.7226,7.7187,7.6367,7.5508,7.4648,7.375,7.289,7.1992,7.1992,7.1992,7.1992,7.1992,7.1992,4.5013,4.6436,4.8899,5.1433,5.5972,6.1518,6.7936,6.9706,7.1937,7.8977,7.7938,7.5945,7.6522,7.5861,7.563,7.6746,7.9477,8.1747,8.2554,8.3439,8.4286,8.5162,8.4709,8.4255,8.4016,8.3208,8.2324,8.1516,8.1246,8.0823,8.0208,8.0208,7.9515,7.8092,7.7792,7.7266,7.6485,7.6222,7.6121,7.6179,7.6455,7.7044,7.8033,7.8854,7.8896,7.8286,7.8284,7.7876,7.7187,7.7187,7.761,7.8201,7.8201,7.9158,8.0474,8.0474,8.0897,8.1491,8.1403,8.1298,8.1242,8.1504,8.1631,8.1746,8.2116,8.2263,8.2304,8.2304,8.2304,8.2304,8.2304,8.1873,8.1439,8.1439,8.1209,8.1172,8.1797,8.2109,8.2304,8.2304,8.2304,8.2304,8.2304,8.2304,8.2304,8.2304,8.2304,8.2304,8.2304,8.2304,8.2187,8.1953,8.1133,8.0625,8.0625,7.9844,7.9101,7.8555,7.8242,7.7851,7.7226,7.6367,7.5781,7.5508,7.4062,7.3164,7.289,7.2305,7.1992,7.1992,7.2617,7.289,4.5817,4.7586,5.051,5.5088,5.994,6.5404,7.2322,7.5099,7.7369,8.1439,8.0169,7.8438,7.8938,7.763,7.6899,7.8092,7.9862,8.1362,8.217,8.2747,8.3401,8.4286,8.3909,8.3447,8.3139,8.2593,8.1977,8.117,8.0785,8.0362,7.9815,7.9477,7.8669,7.733,7.7292,7.6861,7.6015,7.6015,7.6015,7.6015,7.6015,7.6411,7.717,7.7786,7.787,7.7558,7.7643,7.7398,7.6987,7.7052,7.7646,7.8517,7.8517,7.9431,8.08,8.08,8.1016,8.1285,8.1285,8.1217,8.1161,8.1485,8.1586,8.1675,8.2059,8.2175,8.2217,8.2265,8.2304,8.2304,8.2304,8.2304,8.2304,8.2304,8.1914,8.164,8.2187,8.2304,8.2304,8.2304,8.2304,8.2304,8.2304,8.2304,8.2304,8.2304,8.2304,8.2304,8.2304,8.2304,8.2304,8.2304,8.1836,8.1523,8.1523,8.0703,8.0,7.9531,7.8867,7.8242,7.7734,7.6875,7.6094,7.539,7.4336,7.3633,7.3281,7.2773,7.2695,7.3047,7.3555,7.3828,4.7625,4.9048,5.1587,5.9325,6.4166,6.9135,7.7022,8.0639,8.2285,8.2285,8.1093,8.0046,8.0046,7.8707,7.813,7.9669,8.0592,8.1362,8.2093,8.217,8.2516,8.337,8.3409,8.3101,8.2362,8.2247,8.1862,8.1054,8.0246,7.9738,7.9585,7.8823,7.8023,7.7215,7.7176,7.6791,7.6015,7.6015,7.6015,7.6015,7.6015,7.6015,7.6029,7.6203,7.6376,7.6567,7.6695,7.6685,7.6597,7.6785,7.7726,7.9085,7.9085,8.0024,8.1365,8.1365,8.1244,8.1093,8.1093,8.1093,8.1123,8.1343,8.1407,8.1475,8.1861,8.1984,8.2049,8.2221,8.2304,8.2304,8.2304,8.2304,8.2304,8.2304,8.2304,8.2304,8.2304,8.2304,8.2304,8.2304,8.2304,8.2304,8.2304,8.2304,8.2304,8.2304,8.2304,8.2304,8.2304,8.2304,8.2304,8.2304,8.2304,8.2304,8.2304,8.1562,8.1094,8.1015,7.957,7.8672,7.8515,7.7578,7.6367,7.4883,7.4687,7.4258,7.3555,7.3476,7.3828,7.4609,7.4687,7.4726,4.9437,5.1241,5.4395,6.2704,7.0328,7.6791,8.06,8.19,8.2285,8.2285,8.2016,8.1747,8.1747,8.0939,8.04,8.0746,8.0977,8.117,8.1323,8.1362,8.167,8.2477,8.2016,8.1823,8.2247,8.1747,8.1016,8.0131,7.9892,7.9246,7.79,7.7676,7.7176,7.6322,7.6284,7.6207,7.6015,7.6015,7.6015,7.6015,7.6015,7.6015,7.6015,7.6024,7.6179,7.6327,7.5863,7.6002,7.6586,7.6667,7.7532,7.8855,7.8855,7.9795,8.1145,8.1145,8.1131,8.1093,8.1093,8.1093,8.1123,8.1343,8.1407,8.1436,8.1672,8.1875,8.1996,8.2056,8.2174,8.2304,8.2304,8.2304,8.2304,8.2304,8.2304,8.2304,8.2304,8.2304,8.2304,8.2304,8.2304,8.2304,8.2304,8.2304,8.2304,8.2304,8.2304,8.2304,8.2304,8.2304,8.2304,8.2304,8.2304,8.2304,8.2304,8.2148,8.1719,8.1054,8.0664,7.9883,7.8555,7.6992,7.6328,7.664,7.5312,7.4844,7.5351,7.4648,7.4414,7.4609,7.5312,7.5625,5.0356,5.3395,5.8088,6.8205,7.5284,8.0092,8.14,8.1747,8.1747,8.1747,8.2016,8.217,8.1785,8.1362,8.1093,8.1093,8.1093,8.1093,8.1093,8.1093,8.1246,8.167,8.1362,8.1246,8.167,8.1362,8.0746,7.9854,7.94,7.8631,7.7369,7.6899,7.6476,7.6015,7.6015,7.6015,7.6015,7.6015,7.6015,7.6015,7.6015,7.6015,7.5976,7.5553,7.566,7.6128,7.5469,7.5585,7.6322,7.6415,7.7312,7.8651,7.8651,7.9654,8.1093,8.1093,8.1093,8.1093,8.1093,8.1093,8.1131,8.1221,8.1244,8.1305,8.1623,8.1753,8.1891,8.2071,8.222,8.2304,8.2304,8.2304,8.2304,8.2304,8.2304,8.2304,8.2304,8.2304,8.2304,8.2304,8.2304,8.2304,8.2304,8.2304,8.2304,8.2304,8.2304,8.2304,8.2304,8.2304,8.2304,8.2304,8.2304,8.2304,8.2304,8.2304,8.2109,8.164,8.1211,8.0625,7.9726,7.8047,7.6953,7.6601,7.5703,7.5469,7.5898,7.543,7.543,7.5859,7.6328,7.6523,5.0582,5.5659,6.2397,7.3091,7.8361,8.0939,8.1054,8.1093,8.1093,8.1093,8.1631,8.1823,8.1016,8.09,8.0823,8.0669,8.0631,8.0631,8.0631,8.0785,8.09,8.09,8.1016,8.1093,8.1093,8.0977,8.0516,7.9631,7.8784,7.7946,7.7138,7.6399,7.5938,7.5784,7.5784,7.5707,7.5553,7.5707,7.5784,7.5784,7.5938,7.5938,7.5745,7.5014,7.5091,7.5721,7.5026,7.5143,7.5806,7.6108,7.7138,7.8484,7.8484,7.9561,8.1093,8.1093,8.1093,8.1093,8.1093,8.1093,8.1093,8.1093,8.11,8.1207,8.1543,8.1719,8.1834,8.2169,8.2265,8.2304,8.2304,8.2304,8.2304,8.2304,8.2304,8.2304,8.2304,8.2304,8.2304,8.2304,8.2304,8.2304,8.2304,8.2304,8.2304,8.2304,8.2304,8.2304,8.2304,8.2304,8.2304,8.2304,8.2304,8.2304,8.2304,8.2304,8.2304,8.2304,8.1601,8.1172,8.1015,7.9687,7.8164,7.6601,7.6289,7.6133,7.6133,7.6133,7.6484,7.7187,7.7344,7.7422,4.9899,5.8248,6.7366,7.336,7.7431,8.0162,8.0939,8.1093,8.1093,8.1093,8.1208,8.1016,8.0131,7.9969,7.9746,7.8984,7.8869,7.8869,7.8869,7.9515,7.9969,7.9969,8.0631,8.1093,8.1093,8.0439,7.9631,7.8754,7.7907,7.7092,7.6207,7.6053,7.5668,7.4892,7.4853,7.4546,7.3853,7.4546,7.4853,7.4892,7.563,7.5592,7.4853,7.4738,7.4776,7.4822,7.4025,7.4134,7.4938,7.5726,7.7028,7.8484,7.8484,7.9561,8.1093,8.1093,8.1093,8.1093,8.1093,8.1093,8.1093,8.1093,8.1207,8.1359,8.1408,8.1664,8.1976,8.2003,8.2171,8.2304,8.2304,8.2304,8.2304,8.2304,8.2304,8.2304,8.2304,8.2304,8.2304,8.2304,8.2304,8.2304,8.2304,8.2304,8.2304,8.2304,8.2304,8.2304,8.2304,8.2304,8.2304,8.2304,8.2304,8.2304,8.2304,8.2304,8.2304,8.2304,8.2187,8.1797,8.1015,8.0781,8.0195,7.9219,7.7773,7.7031,7.7031,7.7031,7.7109,7.7226,7.7969,7.832,5.3395,5.9517,6.5865,7.2392,7.5853,7.8169,7.9977,8.0362,8.0362,8.0362,7.9977,7.9669,7.9777,7.94,7.8938,7.8561,7.8484,7.8484,7.8484,7.8823,7.9246,7.9738,8.0131,8.0362,8.0362,8.0015,7.9246,7.7946,7.7484,7.6907,7.6053,7.5553,7.5091,7.47,7.4276,7.3853,7.3507,7.3853,7.4238,7.47,7.463,7.463,7.4661,7.3745,7.3822,7.4661,7.4315,7.4661,7.5476,7.5822,7.6976,7.8484,7.8484,7.9561,8.1093,8.1093,8.1093,8.1016,8.0554,8.0708,8.1016,8.0516,8.0752,8.1238,8.1353,8.1609,8.1861,8.1973,8.2127,8.2304,8.2304,8.2304,8.2304,8.2304,8.2304,8.2304,8.2304,8.2304,8.2304,8.2304,8.2304,8.2304,8.2304,8.2304,8.2304,8.2304,8.2304,8.2304,8.2304,8.2304,8.2304,8.2304,8.2304,8.2304,8.2304,8.2304,8.2304,8.2304,8.2304,8.2148,8.1758,8.125,8.082,8.0429,7.8789,7.793,7.793,7.793,7.793,7.7969,7.8789,7.918,5.4318,5.8204,6.2095,6.8898,7.2668,7.5361,7.7938,7.8861,7.9208,7.9438,7.8784,7.833,7.8746,7.8284,7.7792,7.7561,7.7361,7.7284,7.7522,7.7715,7.8169,7.9054,7.9361,7.9477,7.9477,7.9285,7.8669,7.7407,7.7099,7.6669,7.6015,7.5399,7.4853,7.4392,7.3815,7.3276,7.2853,7.3046,7.3584,7.4392,7.3776,7.3699,7.4053,7.3206,7.3283,7.4053,7.4053,7.4668,7.5668,7.5668,7.6669,7.8215,7.8407,7.9446,8.0785,8.1016,8.1093,8.1016,8.0362,8.0554,8.0977,8.0092,8.043,8.1147,8.1103,8.134,8.1714,8.1881,8.2048,8.2168,8.2168,8.2168,8.2171,8.2219,8.2221,8.2223,8.2304,8.2304,8.2304,8.2304,8.2304,8.2304,8.2304,8.2304,8.2304,8.2304,8.2304,8.2304,8.2304,8.2304,8.2304,8.2304,8.2304,8.2304,8.2304,8.2304,8.2304,8.2304,8.2304,8.2304,8.2304,8.1679,8.1328,8.1328,7.9883,7.8945,7.8515,7.8515,7.8515,7.8515,7.9531,8.0039,4.9091,5.29,5.7093,6.1595,6.6981,7.1822,7.4392,7.6245,7.7638,7.8407,7.7907,7.7138,7.6322,7.6169,7.5861,7.5014,7.4238,7.4046,7.4776,7.563,7.6438,7.733,7.8099,7.8561,7.8561,7.7869,7.7407,7.733,7.6515,7.6053,7.6015,7.5976,7.5207,7.3623,7.3507,7.2699,7.1052,7.186,7.2706,7.3546,7.3507,7.3091,7.2367,7.3899,7.3745,7.2329,7.2329,7.3245,7.4776,7.4776,7.5784,7.7445,7.8215,7.9054,7.9969,8.0785,8.1093,8.1093,8.1054,8.1054,8.0977,8.0092,8.054,8.1234,8.0439,8.0879,8.1688,8.1695,8.1707,8.1714,8.1714,8.1714,8.1799,8.1976,8.2039,8.2062,8.2264,8.2304,8.2304,8.2304,8.2304,8.2304,8.2304,8.2304,8.2304,8.2304,8.2304,8.2304,8.2304,8.2304,8.2304,8.2304,8.2304,8.2304,8.2304,8.2304,8.2304,8.2304,8.2304,8.2304,8.2304,8.2265,8.2226,8.2226,8.1328,8.0078,7.8515,7.8515,7.8515,7.8555,8.0156,8.0937,4.8548,5.051,5.2818,5.7627,6.205,6.5904,6.8475,7.1636,7.4291,7.513,7.5053,7.4938,7.513,7.5168,7.4892,7.4046,7.3699,7.3776,7.4584,7.4976,7.5707,7.7138,7.7561,7.7715,7.7715,7.7484,7.7061,7.6515,7.6169,7.6015,7.6015,7.4976,7.4123,7.3507,7.2392,7.1514,7.0898,7.1206,7.1783,7.2668,7.2091,7.1975,7.2213,7.2822,7.279,7.2213,7.2213,7.3129,7.4738,7.5284,7.6245,7.733,7.7638,7.8592,7.9854,8.0169,8.0631,8.0939,7.9831,8.0169,8.0785,7.8823,7.9574,8.1039,8.019,8.0671,8.1527,8.1527,8.1609,8.1684,8.1684,8.1684,8.1732,8.1965,8.2113,8.222,8.2265,8.2217,8.2115,8.2115,8.1994,8.1969,8.2109,8.2115,8.2168,8.2265,8.2304,8.2304,8.2304,8.2304,8.2304,8.2304,8.2304,8.2304,8.2304,8.2304,8.2304,8.2304,8.2304,8.2304,8.2304,8.2304,8.2304,8.2304,8.1445,8.0703,8.0117,8.0117,8.0117,8.0117,8.1289,8.1836,4.7086,4.8317,5.0125,5.4967,5.7857,6.0594,6.4551,6.7398,6.9783,7.1815,7.243,7.2776,7.3322,7.343,7.336,7.3091,7.2822,7.293,7.3745,7.386,7.4399,7.5861,7.6245,7.6438,7.6438,7.6669,7.663,7.6053,7.5745,7.5553,7.5553,7.4238,7.3353,7.3091,7.1668,7.0898,7.0898,7.0898,7.1206,7.1752,7.1168,7.1206,7.179,7.2059,7.2059,7.1828,7.2668,7.3668,7.47,7.5014,7.5822,7.6899,7.7176,7.813,7.94,7.97,8.0162,8.0516,7.9323,7.9515,7.9939,7.8253,7.9054,8.0554,7.9969,8.0509,8.1279,8.1279,8.1401,8.1517,8.1517,8.1543,8.1649,8.1785,8.1994,8.2217,8.2217,8.2072,8.1992,8.1992,8.1886,8.1852,8.198,8.2058,8.2167,8.2265,8.2304,8.2304,8.2304,8.2304,8.2304,8.2304,8.2304,8.2304,8.2304,8.2304,8.2304,8.2304,8.2304,8.2304,8.2304,8.2304,8.2304,8.2304,8.1719,8.1445,8.1445,8.1133,8.1015,8.1015,8.1875,8.2304,0.0,0.0,0.0,5.3203,5.428,5.6088,6.2704,6.3622,6.4275,6.859,7.009,7.0667,7.0783,7.0783,7.1052,7.1905,7.136,7.1168,7.2059,7.2175,7.2476,7.3392,7.4161,7.4623,7.4661,7.5438,7.5945,7.5914,7.5144,7.4683,7.4697,7.3913,7.306,7.2175,7.1321,7.0898,7.0898,7.0898,7.0898,7.0898,7.0898,7.0898,7.0937,7.179,7.1706,7.1052,7.3546,7.4623,7.4584,7.3853,7.4514,7.6068,7.6922,7.7768,7.8576,7.9415,7.9754,7.9738,7.9738,7.9208,7.8523,7.8484,7.9092,7.9815,7.9777,8.04,8.1093,8.107,8.107,8.1108,8.1108,8.1238,8.1407,8.1407,8.1727,8.1992,8.1992,8.1992,8.1992,8.1992,8.1988,8.1988,8.199,8.2171,8.2304,8.2304,8.2304,8.2304,8.2304,8.2304,8.2304,8.2304,8.2304,8.2304,8.2304,8.2304,8.2304,8.2304,8.2304,8.2304,8.2304,8.2304,8.2304,8.2304,8.2304,8.2304,8.2304,8.1445,8.1054,8.1054,8.1914,8.2304,4.5051,0.0,0.0,0.0,0.0,0.0,5.3977,5.6242,5.9011,6.3326,6.4365,6.5288,6.7712,6.7673,6.7558,6.8366,6.936,7.0321,7.1129,7.1245,7.1822,7.3315,7.3129,7.3129,7.3776,7.4046,7.4234,7.4322,7.4108,7.4044,7.4193,7.3291,7.2306,7.1297,7.1014,7.0898,7.0898,7.0898,7.0898,7.0898,7.0898,7.0898,7.0937,7.179,7.1706,7.0975,7.2322,7.2899,7.3014,7.463,7.529,7.5363,7.624,7.709,7.7896,7.8128,7.8475,7.8784,7.8169,7.8631,7.9246,7.8023,7.9054,8.0516,7.9246,7.99,8.1,8.0505,8.0847,8.1311,8.1311,8.1341,8.1407,8.1407,8.1727,8.1992,8.1992,8.1992,8.1992,8.1992,8.1881,8.184,8.1978,8.2053,8.2124,8.2265,8.2304,8.2304,8.2304,8.2304,8.2304,8.2304,8.2304,8.2304,8.2304,8.2304,8.2304,8.2304,8.2304,8.2304,8.2304,8.2304,8.2304,8.2304,8.2304,8.2304,8.2304,8.207,8.1953,8.1953,8.2187,8.2304,4.5013,4.5321,4.5941,4.736,0.0,0.0,5.113,5.2438,5.4208,5.8132,5.9209,6.0133,6.2474,6.3051,6.3397,6.3865,6.5667,6.7699,6.959,6.986,7.0238,7.1238,7.1245,7.1475,7.2322,7.2745,7.3157,7.3668,7.3307,7.2965,7.2705,7.2137,7.1569,7.0905,7.0898,7.0898,7.0898,7.0898,7.0898,7.0898,7.0898,7.0898,7.0937,7.1437,7.136,7.0975,7.2206,7.2322,7.1867,7.4399,7.5218,7.4943,7.5439,7.6404,7.7486,7.7486,7.7894,7.8446,7.7946,7.8438,7.9169,7.8554,7.9361,8.0362,7.9361,8.0015,8.0946,8.0175,8.0583,8.1278,8.1278,8.1278,8.1311,8.1377,8.1658,8.1891,8.1982,8.2061,8.2114,8.2039,8.1897,8.1867,8.198,8.2062,8.2171,8.2265,8.2304,8.2304,8.2304,8.2304,8.2304,8.2304,8.2304,8.2304,8.2304,8.2304,8.2304,8.2304,8.2304,8.2304,8.2304,8.2304,8.2304,8.2304,8.2304,8.2304,8.2304,8.2304,8.2304,8.2304,8.2304,8.2304,4.4816,4.5282,4.6706,4.9553,4.8283,0.0,5.1548,5.0894,5.0279,5.3433,5.4554,5.5318,5.639,5.7852,5.8934,5.8934,6.116,6.4083,6.7507,6.8045,6.8122,6.8122,6.8898,6.9706,7.0398,7.1283,7.22,7.3203,7.255,7.1769,7.0997,7.0843,7.0823,7.0898,7.0821,7.0821,7.0898,7.0898,7.0898,7.0898,7.0898,7.0898,7.0898,7.0898,7.0898,7.0975,7.2545,7.2315,7.1091,7.336,7.4343,7.4456,7.4648,7.5695,7.7042,7.7165,7.7636,7.8253,7.833,7.8446,7.8638,7.9515,7.9854,7.9931,7.9815,8.04,8.0946,8.0184,8.0546,8.1123,8.1123,8.1123,8.1174,8.1341,8.1572,8.1763,8.1969,8.217,8.2263,8.2062,8.2048,8.2048,8.2048,8.2175,8.2304,8.2304,8.2304,8.2304,8.2304,8.2304,8.2304,8.2304,8.2304,8.2304,8.2304,8.2304,8.2304,8.2304,8.2304,8.2304,8.2304,8.2304,8.2304,8.2304,8.2304,8.2304,8.2304,8.2304,8.2304,8.2304,8.2304,8.2304,4.6428,4.7509,4.8471,4.7817,4.9159,0.0,4.8505,4.8779,4.9784,5.1169,5.1015,5.1318,5.3544,5.478,5.5472,5.5472,5.8165,6.1435,6.4859,6.5936,6.6397,6.6397,6.709,6.7673,6.7827,6.8629,6.9578,7.0581,7.1244,7.1477,7.1148,7.0479,7.0328,7.0867,7.0283,7.0244,7.0898,7.0898,7.0898,7.0898,7.0898,7.0898,7.0898,7.0898,7.0898,7.0937,7.1245,7.1206,7.0937,7.1437,7.2148,7.3049,7.4397,7.5165,7.5519,7.6249,7.6501,7.6592,7.7292,7.7946,7.8638,7.9515,8.0285,8.0708,8.0015,8.04,8.1085,8.1079,8.12,8.1355,8.1355,8.1355,8.1329,8.1395,8.1695,8.1965,8.1986,8.217,8.2304,8.2263,8.2223,8.2223,8.2223,8.2265,8.2304,8.2304,8.2304,8.2304,8.2304,8.2304,8.2304,8.2304,8.2304,8.2304,8.2304,8.2304,8.2304,8.2304,8.2304,8.2304,8.2304,8.2304,8.2304,8.2304,8.2304,8.2304,8.2304,8.2304,8.2304,8.2304,8.2304,8.2304,4.7235,4.7812,4.8779,4.8779,4.9082,0.0,0.0,4.7817,4.786,4.9125,4.8399,4.8168,5.0279,5.101,5.1702,5.3005,5.4621,5.689,6.0325,6.3012,6.4589,6.4589,6.4974,6.5397,6.582,6.6628,6.7699,6.9058,6.9726,7.003,6.982,6.9803,6.9962,7.029,7.0283,7.0283,7.0283,7.0706,7.0706,7.0321,7.0706,7.0898,7.0898,7.0898,7.0898,7.0937,7.136,7.1283,7.0937,7.136,7.1859,7.2479,7.3747,7.4519,7.4944,7.5832,7.637,7.6707,7.7138,7.783,7.8561,7.9015,7.9746,8.0285,7.94,7.9746,8.0554,8.1105,8.1231,8.1231,8.1231,8.1324,8.1447,8.1514,8.1799,8.2044,8.2122,8.2222,8.2304,8.2304,8.2304,8.2304,8.2304,8.2304,8.2304,8.2304,8.2304,8.2304,8.2304,8.2304,8.2304,8.2304,8.2304,8.2304,8.2304,8.2304,8.2304,8.2304,8.2304,8.2304,8.2304,8.2304,8.2304,8.2304,8.2304,8.2304,8.2304,8.2304,8.2304,8.2304,8.2304,8.2304,4.8894,4.9082,4.9971,5.0745,4.9894,4.8856,0.0,0.0,0.0,4.7471,4.6552,4.6013,4.7355,4.7774,4.8505,5.0389,5.1236,5.2587,5.517,5.8896,6.1544,6.2044,6.2083,6.2545,6.3743,6.4666,6.5859,6.7545,6.7807,6.7995,6.8142,6.8821,6.9283,6.9436,6.9937,6.9937,6.9436,7.009,7.0167,6.9706,7.036,7.0744,7.0898,7.0898,7.0898,7.0944,7.1704,7.1582,7.0944,7.1704,7.2082,7.229,7.3168,7.4007,7.4815,7.5668,7.6438,7.7053,7.7253,7.7715,7.8292,7.8446,7.9092,7.9669,7.8977,7.9361,8.0208,8.09,8.1093,8.1093,8.1093,8.1269,8.1447,8.1631,8.1858,8.2056,8.2264,8.2304,8.2304,8.2304,8.2304,8.2304,8.2304,8.2304,8.2304,8.2304,8.2304,8.2304,8.2304,8.2304,8.2304,8.2304,8.2304,8.2304,8.2304,8.2304,8.2304,8.2304,8.2304,8.2304,8.2304,8.2304,8.2304,8.2304,8.2304,8.2304,8.2304,8.2304,8.2304,8.2304,8.2304,8.2304,5.351,5.4785,5.5324,5.2467,5.3818,5.4323,4.8505,0.0,4.9322,4.6475,0.0,4.5671,4.5859,0.0,0.0,4.6398,4.886,5.0707,5.0322,5.2626,5.5203,5.744,5.7709,5.8632,6.1012,6.2018,6.3249,6.4897,6.505,6.571,6.7173,6.7327,6.7744,6.8507,6.7898,6.7859,6.8545,6.8622,6.9045,6.9706,6.9783,7.0206,7.0898,7.0898,7.0898,7.0919,7.1174,7.1178,7.0925,7.1219,7.1668,7.229,7.3168,7.4007,7.4815,7.5668,7.6053,7.6245,7.7022,7.7369,7.7561,7.8253,7.9092,7.9777,7.9669,8.0246,8.0977,8.1054,8.1093,8.1093,8.1093,8.1269,8.1447,8.1631,8.1858,8.2056,8.2264,8.2304,8.2304,8.2304,8.2304,8.2304,8.2304,8.2304,8.2304,8.2304,8.2304,8.2304,8.2304,8.2304,8.2304,8.2304,8.2304,8.2304,8.2304,8.2304,8.2304,8.2304,8.2304,8.2304,8.2304,8.2304,8.2304,8.2304,8.2304,8.2304,8.2304,8.2304,8.2304,8.2304,8.2304,8.2304,5.4664,5.5362,5.5901,5.4472,5.4087,5.3318,5.0466,4.9466,4.8933,4.8014,0.0,0.0,0.0,0.0,0.0,0.0,4.7437,4.8129,4.924,4.9053,5.0279,5.4318,5.478,5.5588,5.7632,5.8632,5.9633,6.0858,6.1858,6.2935,6.4134,6.5596,6.6782,6.7628,6.7782,6.7782,6.7667,6.816,6.8584,6.893,6.9475,7.0129,7.0898,7.0898,7.0898,7.0905,7.0979,7.0998,7.0912,7.0979,7.1801,7.2976,7.3353,7.4007,7.4815,7.5668,7.6015,7.6089,7.6565,7.6713,7.686,7.7772,7.8684,7.9498,8.0002,8.0689,8.1278,8.1278,8.1196,8.1093,8.1093,8.1269,8.1447,8.1631,8.1858,8.2056,8.2264,8.2304,8.2304,8.2304,8.2304,8.2304,8.2304,8.2304,8.2304,8.2304,8.2304,8.2304,8.2304,8.2304,8.2304,8.2304,8.2304,8.2304,8.2304,8.2304,8.2304,8.2304,8.2304,8.2304,8.2304,8.2304,8.2304,8.2304,8.2304,8.2304,8.2304,8.2304,8.2304,8.2304,8.2304,8.2304,5.6126,5.6472,5.6863,5.5939,5.4318,5.2659,5.1467,5.0159,4.912,4.9048,4.8471,0.0,0.0,0.0,4.6629,4.762,0.0,4.6513,4.8129,4.6783,4.7244,5.1625,5.2774,5.3664,5.4895,5.5362,5.6165,5.7473,5.828,5.9517,6.1287,6.3595,6.5327,6.6365,6.7244,6.7398,6.6789,6.7398,6.7814,6.8045,6.8936,6.9791,7.0613,7.083,7.0914,7.0966,7.0966,7.0953,7.0905,7.1236,7.2179,7.3507,7.3738,7.4315,7.5123,7.5784,7.6048,7.6095,7.6254,7.6498,7.6866,7.7583,7.8567,7.9582,8.0201,8.0905,8.1491,8.1491,8.1371,8.1258,8.1258,8.1365,8.1524,8.1718,8.1889,8.2056,8.2264,8.2304,8.2304,8.2304,8.2304,8.2304,8.2304,8.2304,8.2304,8.2304,8.2304,8.2304,8.2304,8.2304,8.2304,8.2304,8.2304,8.2304,8.2304,8.2304,8.2304,8.2304,8.2304,8.2304,8.2304,8.2304,8.2304,8.2304,8.2304,8.2304,8.2304,8.2304,8.2304,8.2304,8.2304,8.2304,5.9127,5.9973,5.9825,5.6516,5.5631,5.4516,5.0394,5.0659,5.1082,4.862,4.9433,5.0053,4.8394,4.8043,0.0,0.0,4.6889,0.0,0.0,4.5633,4.659,4.9202,5.1702,5.3236,5.3274,5.2544,5.3082,5.5593,5.4318,5.5241,5.9358,6.1248,6.298,6.4628,6.5513,6.5981,6.5936,6.5981,6.6365,6.7135,6.8013,6.8954,6.9962,7.0587,7.1004,7.1206,7.1206,7.1085,7.0964,7.2014,7.2845,7.3584,7.4353,7.52,7.5976,7.5976,7.6128,7.6284,7.6289,7.6977,7.7866,7.7874,7.9006,8.0368,8.0407,8.0983,8.1672,8.1672,8.1707,8.1664,8.1664,8.1707,8.1725,8.196,8.1988,8.2056,8.2264,8.2304,8.2304,8.2304,8.2304,8.2304,8.2304,8.2304,8.2304,8.2304,8.2304,8.2304,8.2304,8.2304,8.2304,8.2304,8.2304,8.2304,8.2304,8.2304,8.2304,8.2304,8.2304,8.2304,8.2304,8.2304,8.2304,8.2304,8.2304,8.2304,8.2304,8.2304,8.2304,8.2304,8.2304,8.2304,6.0281,6.0589,6.0133,5.7286,5.6132,5.4895,5.1774,5.1928,5.2043,4.951,5.0317,5.0813,4.8505,4.8082,0.0,0.0,0.0,4.6581,0.0,4.5594,4.6147,4.7627,4.8518,4.9043,4.9043,4.9236,4.9736,5.0625,5.1697,5.3467,5.6049,5.9402,6.2012,6.3698,6.5667,6.6442,6.5904,6.6442,6.6827,6.7096,6.7975,6.888,6.9796,7.0567,7.0927,7.1036,7.1615,7.1512,7.0982,7.1917,7.2777,7.3546,7.3815,7.4745,7.6015,7.6015,7.6024,7.6154,7.64,7.7272,7.8287,7.8287,7.942,8.0786,8.0786,8.1293,8.1891,8.1891,8.1819,8.1684,8.1684,8.1684,8.1732,8.1965,8.1992,8.2056,8.2264,8.2304,8.2304,8.2304,8.2304,8.2304,8.2304,8.2304,8.2304,8.2304,8.2304,8.2304,8.2304,8.2304,8.2304,8.2304,8.2304,8.2304,8.2304,8.2304,8.2304,8.2304,8.2304,8.2304,8.2304,8.2304,8.2304,8.2304,8.2304,8.2304,8.2304,8.2304,8.2617,8.3164,8.3164,8.2851,6.0319,6.0556,6.0248,5.8017,5.7055,5.5895,5.3005,5.3274,5.3356,5.0818,5.139,5.1851,5.0236,4.9159,4.8394,0.0,0.0,0.0,0.0,4.5594,4.5838,4.643,4.6746,4.7067,4.7411,4.7598,4.781,4.8159,4.9667,5.1428,5.3472,5.7588,6.0819,6.282,6.5634,6.7019,6.6782,6.7019,6.725,6.7552,6.8122,6.888,6.9808,7.0535,7.0927,7.1036,7.153,7.1398,7.0975,7.2168,7.2976,7.3546,7.4161,7.5053,7.6015,7.6015,7.6106,7.6272,7.6575,7.7673,7.8945,7.8945,8.0078,8.1445,8.1445,8.1751,8.2115,8.2115,8.2,8.1904,8.1904,8.1904,8.1962,8.2065,8.2115,8.2127,8.2265,8.2304,8.2304,8.2304,8.2304,8.2304,8.2304,8.2304,8.2304,8.2304,8.2304,8.2304,8.2304,8.2304,8.2304,8.2304,8.2304,8.2304,8.2304,8.2304,8.2304,8.2304,8.2304,8.2304,8.2304,8.2304,8.2734,8.3672,8.2773,8.289,8.414,8.3203,8.3203,8.4062,8.4062,8.375]}]]